[[{"header":{"parameterUnit":"m.s-1","parameterCategory":1,"la1":30.6,"la2":29.2853,"lo1":-89.7004,"lo2":-87.6739,"dy":0.0162,"dx":0.0183,"nx":112,"ny":82,"refTime":"2026-05-03T12:00:00:Z","depth":0,"parameterNumber":2,"parameterNumberName":"U-component_of_WINDS"},"data":[0.0,0.0,0.0,0.0,0.0,0.0,0.0,0.0,0.0,0.0,0.0,0.0,0.0,0.0,0.0,0.0,0.0,0.0,0.0,0.0,0.0,0.0,0.0,0.0,0.0,0.0,0.0,0.0,0.0,0.0,0.0,0.0,0.0,0.0,0.0,0.0,0.0,0.0,0.0,0.0,0.0,0.0,0.0,0.0,0.0,0.0,0.0,0.0,0.0,0.0,0.0,0.0,0.0,0.0,0.0,0.0,0.0,0.0,0.0,0.0,0.0,0.0,0.0,0.0,0.0,0.0,0.0,0.0,0.0,0.0,0.0,0.0,0.0,0.0,0.0,0.0,0.0,0.0,0.0,0.0,0.0,0.0,0.0,0.0,0.0,0.0,0.0,0.0,0.0,0.0,0.0,0.6657,0.8282,0.94,0.975,0.9593,0.9196,0.8565,0.0,0.0,0.0,0.0,0.0,0.0,0.0,0.0,0.0,0.0,0.0,0.0,0.0,0.0,0.0,0.0,0.0,0.0,0.0,0.0,0.0,0.0,0.0,0.0,0.0,0.0,0.0,0.0,0.0,0.0,0.0,0.0,0.0,0.0,0.0,0.0,0.0,0.0,0.0,0.0,0.0,0.0,0.0,0.0,0.0,0.0,0.0,0.0,0.0,0.0,0.0,0.0,0.0,0.0,0.0,0.0,0.0,0.0,0.0,0.0,0.0,0.0,0.0,0.0,0.0,0.0,0.0,0.0,0.0,0.0,0.0,0.0,0.0,0.0,0.0,0.0,0.0,0.0,0.0,0.0,0.0,0.0,0.0,0.0,0.0,0.0,0.0,0.0,0.0,0.0,0.0,0.0,0.0,0.0,0.0,0.0,0.0,0.0,0.0,0.0,0.0,0.0,0.0,0.0,0.5709,0.796,0.8706,0.9234,0.9682,0.9478,0.9,0.8229,0.0,0.0,0.0,0.0,0.0,0.0,0.0,0.0,0.0,0.0,0.0,0.0,0.0,0.0,0.0,0.0,0.0,0.0,0.0,0.0,0.0,0.0,0.0,0.0,0.0,0.0,0.0,0.0,0.0,0.0,0.0,0.0,0.0,0.0,0.0,0.0,0.0,0.0,0.0,0.0,0.0,0.0,0.0,0.0,0.0,0.0,0.0,0.0,0.0,0.0,0.0,0.0,0.0,0.0,0.0,0.0,0.0,0.0,0.0,0.0,0.0,0.0,0.0,0.0,0.0,0.0,0.0,0.0,0.0,0.0,0.0,0.0,0.0,0.0,0.0,0.0,0.0,0.0,0.0,0.0,0.0,0.0,0.0,0.0,0.0,0.0,0.0,0.0,0.0,0.0,0.0,0.0,0.0,0.0,0.0,0.0,0.0,0.0,0.0,0.0,0.0,0.0,0.0,0.544,0.6533,0.8108,0.8807,0.9287,0.957,0.9418,0.8992,0.8266,0.6752,0.0,0.0,0.0,0.0,0.0,0.0,0.0,0.0,0.0,0.0,0.0,0.0,0.0,0.0,0.0,0.0,0.0,0.0,0.0,0.0,0.0,0.0,0.0,0.0,0.0,0.0,0.0,0.0,0.0,0.0,0.0,0.0,0.0,0.0,0.0,0.0,0.0,0.0,0.0,0.0,0.0,0.0,0.0,0.0,0.0,0.0,0.0,0.0,0.0,0.0,0.0,0.0,0.0,0.0,0.0,0.0,0.0,0.0,0.0,0.0,0.0,0.0,0.0,0.0,0.0,0.0,0.0,0.0,0.0,0.0,0.0,0.0,0.0,0.0,0.0,0.0,0.0,0.0,0.0,0.0,0.0,0.0,0.0,0.0,0.0,0.0,0.0,0.0,0.0,0.0,0.0,0.0,0.0,0.0,0.0,0.0,0.0,0.0,0.0,0.0,0.0,0.0,0.6084,0.7088,0.7998,0.8781,0.9308,0.9491,0.9282,0.8895,0.8268,0.6683,0.0,0.0,0.0,0.0,0.0,0.0,0.0,0.0,0.0,0.0,0.0,0.0,0.0,0.0,0.0,0.0,0.0,0.0,0.0,0.0,0.0,0.0,0.0,0.0,0.0,0.0,0.0,0.0,0.0,0.0,0.0,0.0,0.0,0.0,0.0,0.0,0.0,0.0,0.0,0.0,0.0,0.0,0.0,0.0,0.0,0.0,0.0,0.0,0.0,0.0,0.0,0.0,0.0,0.0,0.0,0.0,0.0,0.0,0.0,0.0,0.0,0.0,0.0,0.0,0.0,0.0,0.0,0.0,0.0,0.0,0.0,0.0,0.0,0.0,0.0,0.0,0.0,0.0,0.0,0.0,0.0,0.0,0.0,0.0,0.0,0.0,0.0,0.0,0.0,0.0,0.0,0.0,0.0,0.0,0.0,0.0,0.0,0.0,0.0,0.0,0.0,0.0,0.5973,0.6929,0.7986,0.8656,0.9157,0.947,0.9026,0.8537,0.8046,0.639,0.0,0.0,0.0,0.0,0.0,0.0,0.0,0.0,0.0,0.0,0.0,0.0,0.0,0.0,0.0,0.0,0.0,0.0,0.0,0.0,0.0,0.0,0.0,0.0,0.0,0.0,0.0,0.0,0.0,0.0,0.0,0.0,0.0,0.0,0.0,0.0,0.0,0.0,0.0,0.0,0.0,0.0,0.0,0.0,0.0,0.0,0.0,0.0,0.0,0.0,0.0,0.0,0.0,0.0,0.0,0.0,0.0,0.0,0.0,0.0,0.0,0.0,0.0,0.0,0.0,0.0,0.0,0.0,0.0,0.0,0.0,0.0,0.0,0.0,0.0,0.0,0.0,0.0,0.0,0.0,0.0,0.0,0.0,0.0,0.0,0.0,0.0,0.0,0.0,0.0,0.0,0.0,0.0,0.0,0.0,0.0,0.0,0.0,0.0,0.0,0.0,0.0,0.5957,0.6913,0.0,0.8647,0.9106,0.9345,0.9194,0.8728,0.7931,0.0,0.0,0.0,0.0,0.0,0.0,0.0,0.0,0.0,0.0,0.0,0.0,0.0,0.0,0.0,0.0,0.0,0.0,0.0,0.0,0.0,0.0,0.0,0.0,0.0,0.0,0.0,0.0,0.0,0.0,0.0,0.0,0.0,0.0,0.0,0.0,0.0,0.0,0.0,0.0,0.0,0.0,0.0,0.0,0.0,0.0,0.0,0.0,0.0,0.0,0.0,0.0,0.0,0.0,0.0,0.0,0.0,0.0,0.0,0.0,0.0,0.0,0.0,0.0,0.0,0.0,0.0,0.0,0.0,0.0,0.0,0.0,0.0,0.0,0.0,0.0,0.0,0.0,0.0,0.0,0.0,0.0,0.0,0.0,0.0,0.0,0.0,0.0,0.0,0.0,0.0,0.0,0.0,0.0,0.0,0.0,0.0,0.0,0.0,0.0,0.0,0.0,0.5315,0.6158,0.7071,0.0,0.8684,0.9115,0.9307,0.9002,0.8536,0.7933,0.0,0.0,0.0,0.0,0.0,0.0,0.0,0.0,0.0,0.0,0.0,0.0,0.0,0.0,0.0,0.0,0.0,0.0,0.0,0.0,0.0,0.0,0.0,0.0,0.0,0.0,0.0,0.0,0.0,0.0,0.0,0.0,0.0,0.0,0.0,0.0,0.0,0.0,0.0,0.0,0.0,0.0,0.0,0.0,0.0,0.0,0.0,0.0,0.0,0.0,0.0,0.0,0.0,0.0,0.0,0.0,0.0,0.0,0.0,0.0,0.0,0.0,0.0,0.0,0.0,0.0,0.0,0.0,0.0,0.0,0.0,0.0,0.0,0.0,0.0,0.0,0.0,0.0,0.0,0.0,0.0,0.0,0.0,0.0,0.0,0.0,0.0,0.0,0.0,0.0,0.0,0.0,0.0,0.0,0.0,0.0,0.0,0.0,0.0,0.0,0.0,0.0,0.5776,0.6608,0.7402,0.8209,0.877,0.918,0.9375,0.8353,0.7812,0.0,0.0,0.0,0.0,0.0,0.0,0.0,0.0,0.0,0.0,0.0,0.0,0.0,0.0,0.0,0.0,0.0,0.0,0.0,0.0,0.0,0.0,0.0,0.0,0.0,0.0,0.0,0.0,0.0,0.0,0.0,0.0,0.0,0.0,0.0,0.0,0.0,0.0,0.0,0.0,0.0,0.0,0.0,0.0,0.0,0.0,0.0,0.0,0.0,0.0,0.0,0.0,0.0,0.0,0.0,0.0,0.0,0.0,0.0,0.0,0.0,0.0,0.0,0.0,0.0,0.0,0.0,0.0,0.0,0.0,0.0,0.0,0.0,0.0,0.0,0.0,0.0,0.0,0.0,0.0,0.0,0.0,0.0,0.0,0.0,0.0,0.0,0.0,0.0,0.0,0.0,0.0,0.0,0.0,0.0,0.0,0.0,0.0,0.0,0.0,0.0,0.0,0.0,0.0,0.6806,0.7475,0.8409,0.8865,0.918,0.9375,0.8622,0.8198,0.8371,0.0,0.0,0.0,0.0,0.0,0.0,0.0,0.0,0.0,0.0,0.0,0.0,0.0,0.0,0.0,0.0,0.0,0.0,0.0,0.0,0.0,0.0,0.0,0.0,0.0,0.0,0.0,0.0,0.0,0.0,0.0,0.0,0.0,0.0,0.0,0.0,0.0,0.0,0.0,0.0,0.0,0.0,0.0,0.0,0.0,0.0,0.0,0.0,0.0,0.0,0.0,0.0,0.0,0.0,0.0,0.0,0.0,0.0,0.0,0.0,0.0,0.0,0.0,0.0,0.0,0.0,0.0,0.0,0.0,0.0,0.0,0.0,0.0,0.0,0.0,0.0,0.0,0.0,0.0,0.0,0.0,0.0,0.0,0.0,0.0,0.0,0.0,0.0,0.0,0.0,0.0,0.0,0.0,0.0,0.0,0.0,0.0,0.0,0.0,0.0,0.0,0.0,0.6548,0.7219,0.7855,0.8565,0.9009,0.9329,0.9475,0.8736,0.8224,0.8155,0.0,0.0,0.0,0.0,0.0,0.0,0.0,0.0,0.0,0.0,0.0,0.0,0.0,0.0,0.0,0.0,0.0,0.0,0.0,0.0,0.0,0.0,0.0,0.0,0.0,0.0,0.0,0.0,0.0,0.0,0.0,0.0,0.0,0.0,0.0,0.0,0.0,0.0,0.0,0.0,0.0,0.0,0.0,0.0,0.0,0.0,0.0,0.0,0.0,0.0,0.0,0.0,0.0,0.0,0.0,0.0,0.0,0.0,0.0,0.0,0.0,0.0,0.0,0.0,0.0,0.0,0.0,0.0,0.0,0.0,0.0,0.0,0.0,0.0,0.0,0.0,0.0,0.0,0.0,0.0,0.0,0.0,0.0,0.0,0.0,0.0,0.0,0.0,0.0,0.0,0.0,0.0,0.0,0.0,0.0,0.0,0.0,0.0,0.0,0.0,0.0,0.0,0.6841,0.7749,0.8416,0.8717,0.9205,0.9525,0.9582,0.8736,0.8075,0.7772,0.0,0.0,0.0,0.0,0.0,0.0,0.0,0.0,0.0,0.0,0.0,0.0,0.0,0.0,0.0,0.0,0.0,0.0,0.0,0.0,0.0,0.0,0.0,0.0,0.0,0.0,0.0,0.0,0.0,0.0,0.0,0.0,0.0,0.0,0.0,0.0,0.0,0.0,0.0,0.0,0.0,0.0,0.0,0.0,0.0,0.0,0.0,0.0,0.0,0.0,0.0,0.0,0.0,0.0,0.0,0.0,0.0,0.0,0.0,0.0,0.5804,0.0,0.0,0.0,0.0,0.0,0.0,0.0,0.0,0.0,0.0,0.0,0.0,0.0,0.0,0.0,0.0,0.0,0.0,0.0,0.0,0.0,0.0,0.0,0.0,0.0,0.0,0.0,0.0,0.0,0.0,0.0,0.0,0.0,0.0,0.0,0.0,0.0,0.0,0.0,0.0,0.0,0.7431,0.8015,0.8521,0.9115,0.9374,0.9504,0.9513,0.8708,0.8417,0.8908,0.0,0.0,0.0,0.0,0.0,0.0,0.0,0.0,0.0,0.0,0.0,0.0,0.0,0.0,0.0,0.0,0.0,0.0,0.0,0.0,0.0,0.0,0.0,0.0,0.0,0.0,0.0,0.0,0.0,0.0,0.0,0.0,0.0,0.0,0.0,0.0,0.0,0.0,0.0,0.0,0.0,0.0,0.0,0.0,0.0,0.0,0.0,0.0,0.0,0.0,0.0,0.0,0.0,0.0,0.0,0.0,0.0,0.0,0.0,0.0,0.0,0.6327,0.0,0.0,0.0,0.0,0.0,0.0,0.0,0.0,0.0,0.0,0.0,0.0,0.0,0.0,0.0,0.0,0.0,0.0,0.0,0.0,0.0,0.0,0.0,0.0,0.0,0.0,0.0,0.0,0.0,0.0,0.0,0.0,0.0,0.0,0.0,0.0,0.0,0.0,0.0,0.0,0.794,0.842,0.8805,0.9244,0.9486,0.9581,0.9554,0.9104,0.8787,0.8736,0.7609,0.0,0.0,0.0,0.0,0.0,0.0,0.0,0.0,0.0,0.0,0.0,0.0,0.0,0.0,0.0,0.0,0.0,0.0,0.0,0.0,0.0,0.0,0.0,0.0,0.0,0.0,0.0,0.0,0.0,0.0,0.0,0.0,0.0,0.0,0.0,0.0,0.0,0.0,0.0,0.0,0.0,0.0,0.0,0.0,0.0,0.0,0.0,0.0,0.0,0.0,0.0,0.0,0.0,0.0,0.6533,0.6512,0.554,0.5589,0.6403,0.6306,0.6732,0.7446,0.0,0.0,0.0,0.0,0.0,0.0,0.0,0.0,0.0,0.0,0.0,0.0,0.0,0.0,0.0,0.0,0.0,0.0,0.0,0.0,0.0,0.0,0.0,0.0,0.0,0.9944,0.9824,0.0,0.0,0.0,0.0,0.0,0.0,0.0,0.0,0.0,0.0,0.0,0.0,0.8578,0.9021,0.9341,0.955,0.979,0.9863,0.9633,0.9535,0.9169,0.8399,0.8301,0.7748,0.0,0.0,0.0,0.0,0.0,0.0,0.0,0.0,0.0,0.0,0.0,0.0,0.0,0.0,0.0,0.0,0.0,0.0,0.0,0.0,0.0,0.0,0.0,0.0,0.0,0.0,0.0,0.0,0.0,0.0,0.0,0.0,0.3454,0.5933,0.0,0.0,0.0,0.0,0.0,0.0,0.0,0.0,0.0,0.0,0.0,0.0,0.0,0.0,0.4969,0.5451,0.5738,0.5848,0.5613,0.5503,0.548,0.4941,0.4754,0.489,0.4877,0.0,0.6728,0.6493,0.0,0.0,0.0,0.0,0.0,0.0,0.0,0.0,0.0,0.0,0.0,0.0,0.0,0.0,0.0,0.0,0.0,0.0,0.0,0.0,0.0,0.0,0.9968,1.079,1.108,1.1187,0.0,0.9939,0.8603,0.7952,0.0,0.0,0.0,0.0,0.0,0.0,0.0,0.0,0.9678,1.0083,1.0345,1.0664,1.0821,1.0578,0.9749,0.9571,0.9446,0.9312,0.8566,0.8405,0.8994,0.7061,0.0,0.0,0.0,0.0,0.0,0.0,0.0,0.0,0.0,0.0,0.0,0.0,0.0,0.0,0.0,0.0,0.0,0.0,0.0,0.0,0.0,0.0,0.0,0.0,0.0,0.0,0.0,0.0,0.0,0.2335,0.2519,0.2866,0.2913,0.2961,0.0,0.0,0.0,0.0,0.0,0.0,0.0,0.0,0.0,0.471,0.4617,0.4641,0.482,0.4963,0.5054,0.5048,0.5492,0.529,0.4564,0.4829,0.469,0.4252,0.4066,0.4323,0.4878,0.5249,0.5402,0.5446,0.0,0.0,0.0,0.0,0.0,0.7056,0.7815,0.0,0.0,0.0,0.0,0.0,0.0,0.0,0.0,0.0,0.0,0.0,0.0,0.0,0.0,1.1555,1.193,1.2087,1.2371,1.1835,1.1048,0.0,0.9472,0.8815,0.8372,0.0,0.0,0.0,0.0,0.0,1.067,1.103,1.1306,1.1594,1.1303,1.0914,1.0463,0.9931,0.9585,0.9508,0.9183,0.894,0.8834,0.8209,0.7522,0.0,0.0,0.0,0.0,0.0,0.0,0.0,0.0,0.0,0.0,0.0,0.0,0.0,0.0,0.0,0.0,0.0,0.0,0.0,0.0,0.0,0.0,0.0,0.0,0.0,0.0,0.0,0.0,0.1794,0.1206,-0.0225,0.1159,0.2171,0.0,0.0,0.0,0.0,0.0,0.0,0.4667,0.4922,0.5006,0.494,0.4827,0.4638,0.4403,0.4435,0.4194,0.3656,0.4323,0.4071,0.3048,0.3708,0.3699,0.3132,0.314,0.3231,0.3424,0.4048,0.4632,0.5122,0.5216,0.5635,0.6247,0.6756,0.7226,0.7659,0.8084,0.8346,0.8571,0.8911,0.0,0.8553,0.8859,0.0,0.0,0.0,0.0,0.9286,0.9888,0.0,1.127,1.2375,1.2783,1.2992,1.3238,1.3341,1.3063,0.0,1.1337,1.08,1.014,0.0,0.0,0.0,0.0,1.0693,1.1628,1.1984,1.2252,1.247,1.2051,1.1554,1.1044,1.0394,0.9887,0.9568,0.9617,0.932,0.8588,0.8953,0.8293,0.0,0.0,0.0,0.0,0.0,0.0,0.0,0.0,0.0,0.0,0.0,0.0,0.0,0.0,0.0,0.0,0.0,0.0,0.0,0.0,0.0,0.0,0.0,0.0,0.0,0.0,0.0,0.0,0.0,0.0,-0.158,-0.0612,0.0,0.0,0.0,0.0,0.3819,0.3908,0.4134,0.4573,0.462,0.4512,0.4244,0.4858,0.4737,0.3834,0.3956,0.3212,0.1628,0.1102,0.0686,0.0419,0.0693,0.0811,0.081,0.1783,0.2487,0.3038,0.3415,0.3995,0.462,0.4375,0.4906,0.5849,0.6153,0.6711,0.7395,0.7862,0.815,0.8417,0.9159,0.9236,0.9179,0.975,0.9215,0.0,0.0,0.9767,1.053,1.1067,1.2167,1.321,1.347,1.3828,1.4121,1.4134,1.429,1.3922,0.0,1.1861,1.1825,1.1789,0.0,1.1557,1.147,1.1386,1.1676,1.2621,1.2963,1.3178,1.3323,1.3479,1.2878,1.1158,1.0906,1.0508,0.9746,0.9585,0.9421,0.9268,0.861,0.8185,0.7987,0.6713,0.0,0.0,0.0,0.0,0.0,0.0,0.0,0.0,0.0,0.0,0.0,0.0,0.0,0.0,0.0,0.0,0.0,0.0,0.0,0.0,0.0,0.0,0.0,0.0,0.0,0.0,0.0,0.0,-0.1634,-0.1081,0.0,0.0,0.1902,0.2756,0.3355,0.3558,0.3786,0.4132,0.4138,0.4217,0.4322,0.3475,0.2593,0.1752,0.1376,0.0873,0.0347,-0.0386,-0.1278,-0.2258,-0.2136,-0.0843,0.1404,0.1734,0.2377,0.3243,0.3637,0.3937,0.4072,0.3966,0.4571,0.5564,0.6258,0.7075,0.7939,0.8701,0.9138,0.947,0.9902,1.0129,1.0309,1.0519,1.0308,1.0167,1.0966,1.1413,1.1933,1.3173,1.3489,1.3639,1.423,1.4092,1.3867,1.4149,1.4257,1.4156,1.368,1.3161,1.2806,1.2806,1.2263,1.194,1.2272,1.2305,1.2582,1.34,1.3895,1.4214,1.4354,1.4003,1.3265,1.2015,1.1286,1.0519,0.9621,0.9609,0.95,0.9179,0.9082,0.8501,0.7349,0.6915,0.6505,0.0,0.0,0.0,0.0,0.0,0.0,0.0,0.0,0.0,0.0,0.0,0.0,0.0,0.0,0.0,0.0,0.0,0.0,0.0,0.0,0.0,0.0,0.0,0.0,0.0,0.0,0.0123,-0.1042,-0.128,-0.0924,0.0086,0.1053,0.1983,0.2905,0.3134,0.3393,0.3731,0.3778,0.3672,0.342,0.2166,0.0977,-0.0079,-0.1031,-0.1602,-0.179,-0.2323,-0.3023,-0.3862,-0.3692,-0.185,0.1225,0.2074,0.2914,0.3777,0.4039,0.4191,0.4306,0.4365,0.506,0.6139,0.6774,0.7685,0.8718,0.9613,1.0303,1.0796,1.1084,1.1325,1.159,1.1801,1.1801,1.1848,1.2609,1.2873,1.3205,1.4257,1.4329,1.4186,1.4458,1.4264,1.4023,1.4096,1.4149,1.4257,1.4464,1.4077,1.3702,1.3702,1.3198,1.2876,1.316,1.3231,1.3453,1.3926,1.4417,1.4726,1.4811,1.4456,1.3718,1.2474,1.1669,1.074,0.9581,0.9593,0.9483,0.9109,0.9358,0.8803,0.7332,0.7232,0.6978,0.6537,0.0,0.0,0.0,0.0,0.0,0.0,0.0,0.0,0.0,0.0,0.0,0.0,0.0,0.0,0.0,0.0,0.0,0.0,0.0,0.0,0.0,0.0,0.0,0.0584,0.0664,0.0615,-0.0,-0.134,-0.1607,-0.0155,-0.0,0.0738,0.2505,0.2676,0.2942,0.3452,0.3421,0.2774,0.1464,0.1044,0.004,-0.1548,-0.2944,-0.4003,-0.4688,-0.4727,-0.4587,-0.4387,-0.3825,-0.2262,0.0133,0.2546,0.3991,0.464,0.4487,0.4783,0.5305,0.5459,0.638,0.7599,0.7627,0.8523,0.9808,1.0593,1.1447,1.2283,1.2609,1.2761,1.2965,1.3602,1.3561,1.3391,1.3734,1.401,1.4239,1.4254,1.4706,1.4927,1.4222,1.4427,1.4619,1.4015,1.4051,1.4257,1.4464,1.4488,1.4488,1.4488,1.4488,1.4441,1.4245,1.4219,0.0,1.4201,1.45,1.4714,1.471,1.4883,1.4275,1.2491,1.2068,1.1228,0.9635,0.9527,0.9385,0.9109,0.9367,0.9071,0.8144,0.7664,0.7429,0.741,0.0,0.0,0.0,0.0,0.0,0.0,0.0,0.0,0.0,0.0,0.0,0.0,0.0,0.0,0.0,0.0,0.0,0.0,0.0,0.0,0.0,0.0,0.1956,0.1725,0.0312,-0.1016,-0.1843,-0.1943,-0.1391,-0.0139,-0.0182,0.0262,0.158,0.2301,0.2772,0.2924,0.1525,0.0545,0.0123,-0.0734,-0.1795,-0.3029,-0.381,-0.4267,-0.4487,-0.4923,-0.4874,-0.4387,-0.3825,-0.2262,0.0133,0.2546,0.3725,0.3976,0.4744,0.513,0.5336,0.5777,0.6457,0.731,0.8434,0.9975,1.158,1.1805,1.2357,1.3018,1.3113,1.3313,1.355,1.3744,1.3744,1.3782,1.4352,1.4566,1.4867,1.5836,1.5806,1.5463,1.5225,1.4979,1.4637,1.4032,1.4051,1.4257,1.4464,1.4488,1.4488,1.4488,1.4488,1.4441,1.4245,0.0,0.0,1.4232,1.461,1.4887,1.4853,1.493,1.4508,1.3338,1.2511,1.156,0.0,0.9921,0.9525,0.9247,0.9538,0.9342,0.8556,0.8413,0.8064,0.0,0.0,0.0,0.0,0.0,0.0,0.0,0.0,0.0,0.0,0.0,0.0,0.0,0.0,0.0,0.0,0.0,0.0,0.0,0.0,0.0,0.0,0.2113,0.1611,0.1159,-0.0065,-0.142,-0.2706,-0.2617,-0.2176,-0.1571,-0.1076,-0.0507,0.0078,0.0546,0.0986,0.1406,0.0321,-0.09,-0.2141,-0.2828,-0.3512,-0.4316,-0.4609,-0.4913,-0.5173,-0.5524,-0.5351,-0.4783,-0.4447,-0.2926,0.0,0.241,0.3585,0.3653,0.4565,0.5341,0.0,0.0,0.0,0.0,0.0,1.1462,1.2675,1.2871,1.3401,1.4039,1.4039,1.4317,1.4644,1.4803,1.4856,1.4958,1.5499,1.5633,1.5816,1.6616,1.657,1.6222,1.5657,1.5391,1.5036,1.4204,1.4123,1.4257,1.4464,0.0,0.0,1.4488,1.4488,1.4464,1.4332,1.4429,1.4488,0.0,1.4749,1.4991,1.4959,1.4988,1.4619,1.3671,1.2928,0.0,0.0,0.0,0.996,0.9488,0.9651,0.0,0.0,0.0,0.0,0.0,0.0,0.0,0.0,0.9382,0.9549,0.0,0.0,0.0,0.0,0.0,0.0,0.0,0.0,0.0,0.0,0.0,0.0,0.0,0.0,0.0,0.0,0.1831,0.071,-0.0398,-0.0734,-0.1434,-0.2951,-0.3235,-0.3367,-0.3531,-0.2339,-0.1549,-0.1544,-0.1828,-0.1617,-0.0713,0.0,0.0,0.0,0.0,-0.4937,-0.5303,-0.5351,-0.5658,-0.6184,-0.6184,-0.5873,-0.5308,-0.53,-0.3818,-0.102,0.2051,0.3486,0.3639,0.4256,0.5583,0.7321,0.7931,0.8772,0.9915,1.1771,1.282,0.0,0.0,0.0,0.0,1.5165,1.5448,1.5856,1.6191,1.6301,1.6367,1.6712,1.6789,1.6815,1.6841,1.7076,1.7004,1.5849,1.5769,1.5645,1.4576,1.4286,1.4282,1.4464,1.4488,1.4488,1.4488,1.4488,1.4488,1.4488,1.4488,0.0,1.4687,1.4876,1.4998,1.5005,0.0,0.0,1.3823,1.3383,1.289,1.2299,1.145,1.0687,1.0049,1.0011,1.0018,1.0031,1.097,1.1464,1.1465,1.2361,1.2806,1.2784,1.1275,1.0969,0.0,0.0,0.0,0.0,0.0,0.0,0.0,0.0,0.0,0.0,0.0,0.0,0.0,0.0,0.0,0.1369,0.0428,-0.0551,-0.1398,-0.289,-0.3699,-0.3306,-0.3345,-0.3355,-0.3365,-0.3256,-0.2746,-0.1828,-0.2667,-0.3165,-0.2964,-0.3524,0.0,-0.4688,-0.5019,-0.5221,-0.5303,-0.5787,-0.6093,-0.6184,0.0,0.0,-0.5308,-0.5281,-0.3792,-0.1064,0.1157,0.2679,0.366,0.47,0.6626,0.897,0.9543,1.0407,1.1472,1.2542,1.3511,1.4283,1.4693,1.521,1.5668,1.5668,1.5741,1.5856,1.6191,1.6301,0.0,1.6712,1.6789,1.6866,1.7126,1.7248,1.7206,1.6853,1.6445,1.5954,1.5314,1.4787,1.4453,1.4488,1.4488,1.4488,1.4488,1.4488,1.4488,1.4488,1.4488,1.4556,1.4687,1.4869,1.5007,1.4993,1.5041,1.4952,1.4676,1.3946,1.3417,1.3244,1.2515,1.2045,1.1964,1.1964,1.2013,1.2112,1.232,1.2463,1.2501,1.2708,1.2838,1.2862,1.2494,1.2423,0.0,0.0,0.0,0.0,0.0,0.0,0.0,0.0,0.0,0.0,0.0,0.167,0.1108,0.0,-0.0287,-0.0628,-0.1277,-0.209,-0.3116,-0.402,-0.4369,-0.3826,-0.4115,-0.4346,-0.4312,-0.3868,-0.3602,-0.3544,-0.3924,-0.4248,-0.4456,-0.4801,-0.5149,-0.5458,-0.5663,-0.5867,-0.6161,-0.6471,-0.6605,-0.6605,-0.6307,-0.5873,-0.5308,-0.5286,-0.3891,-0.1378,0.0846,0.2502,0.3718,0.5406,0.7217,0.9086,1.0689,1.1768,1.2578,1.3457,1.4237,1.4814,1.5043,1.5418,1.577,1.5551,1.561,1.5856,1.6191,1.6436,1.6633,1.6952,1.7175,1.7337,1.7502,1.7647,1.7667,1.7335,1.68,1.6197,1.5669,1.4989,1.4488,1.4488,1.4556,1.4592,1.4592,1.4592,1.4589,1.4499,1.4488,1.4578,1.4776,1.4885,1.4999,1.5145,1.5119,1.5078,1.5014,1.4577,1.4107,1.3686,1.3334,1.2984,1.2615,1.2596,1.2636,1.2709,1.3128,1.3384,1.3448,1.3887,1.4121,1.4151,1.4121,1.3895,0.0,0.0,0.0,0.0,0.0,0.0,0.0,0.0,0.0557,-0.0078,-0.0478,-0.0989,-0.2026,-0.269,-0.31,-0.3207,-0.3288,-0.3697,-0.4684,-0.4777,-0.4767,-0.473,-0.507,-0.5303,-0.5303,-0.447,-0.4291,-0.5216,-0.5019,-0.498,-0.5265,-0.5394,-0.5696,-0.6179,-0.6184,-0.6392,-0.6852,-0.6719,-0.6719,-0.6852,-0.6173,-0.5653,-0.5308,-0.5057,-0.381,-0.165,0.098,0.2771,0.3891,0.5933,0.7443,0.8726,1.1068,1.2401,1.3094,1.4205,1.4814,1.5104,1.4984,1.521,1.5433,1.4864,1.5031,1.5477,1.5907,1.632,1.6783,1.7256,1.7595,1.7811,1.7861,1.8035,1.8058,1.7522,1.6967,1.6374,1.5819,1.5092,1.4533,1.4517,1.4603,1.4707,1.4707,1.4707,1.4666,1.4556,1.4511,1.4589,1.4822,1.4887,1.498,1.5243,1.5186,1.5132,1.5124,1.5043,1.4728,1.4112,1.4117,1.3863,1.3219,1.32,1.3205,1.3215,1.3918,1.4304,1.4355,1.507,1.5401,1.5391,1.5566,1.5274,-0.8008,-0.6317,-0.4791,-0.4223,-0.3574,-0.3052,0.0,0.0,-0.3018,-0.3124,-0.4077,-0.4895,-0.4814,-0.5999,-0.6848,-0.652,-0.5562,-0.4948,-0.5199,-0.5685,-0.6155,-0.6655,-0.5882,-0.5303,-0.5303,-0.5173,-0.5173,-0.5303,-0.5265,-0.5265,-0.5303,-0.5787,-0.6136,-0.6179,-0.6184,-0.6221,-0.6307,-0.5739,-0.5739,-0.6264,-0.513,-0.487,-0.526,-0.4248,-0.3049,-0.1606,0.1875,0.3755,0.4391,0.5652,0.7086,0.8615,0.9935,1.1281,1.2693,1.4383,1.5074,1.5029,1.462,1.4498,1.4391,1.352,1.3579,1.4137,1.4859,1.563,1.6444,1.7402,1.7738,1.7839,1.8082,1.8166,1.8058,1.7522,1.7028,1.6493,1.5845,1.5166,1.4645,1.4522,1.4603,1.4707,1.4707,1.4707,1.4678,1.4687,1.4589,1.4556,1.4707,1.4818,1.4967,1.5105,1.5215,1.5242,1.5188,1.5062,1.5004,1.5043,1.5055,1.5016,1.4926,1.4984,1.5003,1.5003,1.5163,1.5245,1.5251,1.536,1.541,1.543,1.6191,1.6504,-0.8402,-0.7146,-0.6073,0.0,-0.5349,-0.5604,-0.6562,-0.7202,-0.751,-0.7179,-0.8039,-0.856,-0.7588,-0.8092,-0.8387,0.0,-0.6793,-0.6228,-0.6301,-0.6758,-0.7169,-0.7432,-0.7575,-0.7466,-0.6881,-0.6495,-0.6283,-0.6295,-0.6283,-0.6452,-0.6803,-0.7063,-0.7278,-0.7405,-0.6705,-0.6352,-0.6446,-0.5773,-0.566,-0.6179,-0.4957,-0.4739,-0.526,-0.4116,-0.2553,-0.0625,0.1336,0.235,0.2636,0.4011,0.5371,0.6679,0.8411,1.0078,1.1678,1.3026,1.3684,1.3821,1.3406,1.3187,1.3011,1.2375,1.2491,1.299,1.3578,1.4669,1.5902,1.6775,1.7484,1.8082,1.8371,1.8547,1.8627,1.8478,1.7676,1.688,1.6676,1.5604,1.4687,1.4624,1.4727,1.4794,1.4717,1.4766,1.4747,1.4558,1.4508,1.4504,1.4526,1.4748,1.4973,1.5145,1.5249,1.5279,1.522,1.5146,1.514,1.5209,1.5189,1.5214,1.5253,1.5291,1.5311,1.5349,1.5388,1.5396,1.5409,1.5913,1.6152,1.6172,1.7051,1.7734,-0.8319,-0.7667,0.0,-0.6771,-0.7191,-0.796,-0.9025,-0.9982,-1.0509,-0.9919,-1.0634,-1.0919,-0.956,-0.9383,-0.9165,-0.8414,-0.7739,-0.7312,-0.7439,-0.7863,-0.8246,-0.8432,-0.927,-0.9533,-0.8804,-0.7949,-0.746,-0.7474,-0.746,-0.7668,-0.8111,-0.8118,-0.8189,-0.8305,-0.7263,-0.6588,-0.6373,-0.5687,-0.553,-0.5922,-0.4913,-0.4739,-0.526,-0.3792,-0.1967,-0.0,-0.0398,-0.0262,0.0302,0.1721,0.2797,0.3689,0.5711,0.7356,0.8673,0.9404,1.1071,1.2871,1.1997,1.1771,1.1703,1.0856,1.1067,1.1753,1.2373,1.3799,1.5422,1.6336,1.7372,1.827,1.8623,1.8843,1.898,1.8895,1.8157,1.7449,1.7356,1.6187,1.5123,1.5094,1.499,1.4894,1.4776,1.485,1.4776,1.4371,1.4368,1.4392,1.4349,1.4698,1.4999,1.5173,1.5267,1.5272,1.5209,1.5189,1.5189,1.5189,1.5214,1.5253,1.5291,1.5311,1.5349,1.5407,1.541,1.551,1.5762,1.6387,1.6816,1.707,1.7949,1.8691,-0.7623,0.0,-0.7946,-0.8263,-0.9027,-0.9747,-0.984,-1.0521,-1.0945,-1.0407,-1.1041,-1.1337,-1.0255,-0.9765,-0.9477,-0.9387,-0.8575,-0.8116,-0.8585,-0.9044,-0.9533,-1.005,-1.0568,-1.0822,0.0,-0.9512,-0.8635,-0.8635,-0.8635,-0.8635,-0.8675,-0.8675,-0.8558,-0.8305,-0.7702,-0.684,-0.5723,-0.5172,-0.5069,-0.5308,-0.4691,-0.4739,-0.5216,-0.2887,-0.1158,-0.0178,-0.348,-0.3933,-0.2222,-0.1097,-0.0624,-0.0364,0.1286,0.225,0.2762,0.28,0.7111,1.2716,1.0681,1.0439,1.0683,0.8577,0.8993,1.0416,1.1377,1.3141,1.5094,1.6499,1.7518,1.833,1.8843,1.8984,1.8835,1.8181,1.8242,1.8259,1.7557,1.6797,1.6214,1.6082,1.5478,1.4977,1.4921,1.4904,1.4729,1.4192,1.4178,1.4201,1.4201,1.4674,1.5044,1.5192,1.5267,1.5272,1.5209,1.5189,1.5189,1.5189,1.5253,1.5291,1.5291,1.5349,1.5407,1.5407,1.5399,1.582,1.666,1.6699,1.7129,1.7988,1.8848,1.9277,-0.988,0.0,-1.0616,-1.0581,-1.1223,-1.172,-1.1219,-1.1824,-1.2435,-1.2255,-1.237,-1.2229,-1.133,-1.0739,-1.0157,-0.9502,-0.8902,-0.882,-0.9584,-1.0376,-1.1068,-1.16,-1.2365,0.0,0.0,0.0,0.0,-0.9672,-0.9661,-0.9679,-0.9679,-0.9381,-0.9198,-0.9101,-0.7895,-0.6887,-0.6044,-0.5194,-0.4757,-0.4696,-0.4651,-0.4434,-0.4104,-0.2403,-0.3524,-0.6755,-0.5295,-0.5449,-0.6644,-0.4902,-0.3704,-0.2912,-0.1596,-0.1234,-0.1418,-0.0902,0.0466,0.2423,0.5605,0.7125,0.7734,0.8126,0.8913,1.0021,1.1584,1.3134,1.4658,1.6202,1.7535,1.8547,1.8914,1.9198,1.9364,1.9219,1.8941,1.8679,1.8546,1.7355,1.63,1.6302,1.5604,1.4962,1.4785,1.4832,1.469,1.4051,1.3979,1.4113,1.4423,1.4785,1.5068,1.5251,1.529,1.5291,1.5272,1.5234,1.5214,1.5253,1.5291,1.5311,1.5349,1.5388,1.5676,1.6243,1.6266,1.6699,1.7559,1.8144,1.8574,1.8887,1.9766,2.0156,-1.1333,-1.1945,-1.2315,-1.239,-1.2951,-1.3351,-1.2953,-1.3185,-1.3358,-1.3039,-1.2652,-1.2094,-1.1281,-1.0615,-1.0167,-1.0077,-0.9662,-0.9679,-1.0641,-1.1642,-1.2456,-1.2805,-1.3762,0.0,0.0,0.0,0.0,-1.0967,-1.0843,-1.0756,-1.0724,-1.023,-0.986,-0.9774,-0.855,-0.737,-0.6284,-0.561,-0.5198,-0.4952,-0.501,-0.4806,-0.4338,-0.2602,-0.4427,-0.8899,-0.732,-0.7769,-0.9515,-0.8132,-0.6957,-0.5891,-0.4387,-0.3952,-0.4069,-0.3312,-0.3456,-0.3274,0.1934,0.4497,0.576,0.7385,0.887,1.0253,1.1835,1.3291,1.4671,1.6103,1.7355,1.8375,1.877,1.9134,1.9438,1.962,1.9409,1.9231,1.9481,1.8344,1.719,1.6939,1.6124,1.5323,1.4851,1.465,1.4396,1.3965,1.3842,1.3957,1.4441,1.4776,1.5043,1.5273,1.5307,1.5309,1.5297,1.5234,1.5234,1.5291,1.5303,1.5327,1.5393,1.5405,1.5816,1.668,1.6678,1.7257,1.8432,1.8964,1.9409,1.9746,2.0293,2.0586,-1.1911,-1.2504,-1.3081,-1.3668,-1.4195,-1.4662,-1.496,-1.4458,-1.365,-1.2725,-1.1911,-1.111,0.0,0.0,-0.9601,-1.1003,-1.0743,-1.0709,-1.1737,-1.292,-1.3703,0.0,0.0,0.0,0.0,0.0,0.0,-1.2708,0.0,-1.187,-1.1842,-1.1155,-1.0625,-1.026,-0.955,-0.826,-0.6406,-0.6345,-0.6238,-0.6039,-0.5768,-0.5733,-0.5759,-0.3465,-0.3986,-0.682,-0.9511,-1.0745,-1.094,-1.0697,-1.0143,-0.9193,-0.6887,-0.5647,-0.499,-0.4374,-0.4299,-0.3953,-0.0088,0.2669,0.4796,0.6448,0.8754,1.1047,1.2072,1.3591,1.5125,1.6177,1.7075,1.7825,1.8413,1.8789,1.9064,1.9332,1.9607,1.9899,2.0225,1.9612,1.8773,1.7959,1.6934,1.5931,1.5036,1.4319,1.3899,1.3899,1.3721,1.3774,1.4228,1.4635,1.4986,1.5268,1.5292,1.531,1.5309,1.5234,1.5234,1.5291,1.5295,1.5357,1.5468,1.5451,1.5898,1.6796,1.6749,1.7558,1.9254,1.9201,1.9626,2.0487,2.0508,2.0527,-1.322,-1.4127,-1.5064,-1.5095,-1.5488,-1.5728,-1.5329,-1.4577,-1.377,-1.3086,-1.1879,-1.0758,0.0,0.0,0.0,-1.0492,-1.0618,0.0,-1.2582,-1.404,0.0,-1.5914,0.0,-1.7638,-1.7532,-1.6474,0.0,0.0,-1.3815,-1.3065,-1.3476,-1.2568,-1.1669,-1.0892,-0.9557,-0.807,-0.6406,-0.5736,-0.5713,-0.6268,-0.5709,-0.565,-0.6011,-0.3664,-0.4587,-0.8061,-1.0321,-1.1895,-1.2872,-1.246,-1.1767,-1.0518,-0.6369,-0.3719,-0.2101,-0.0945,-0.1079,-0.1535,0.0839,0.2565,0.419,0.7076,0.9591,1.1771,1.3452,1.4398,1.5096,1.608,1.7003,1.7737,1.789,1.8535,1.9172,1.9225,1.9607,1.9984,2.0126,1.9535,1.8732,1.7826,1.6269,1.4972,1.4587,1.4172,1.3856,1.3691,1.363,1.3731,1.41,1.4466,1.4799,1.5115,1.5249,1.531,1.5309,1.5272,1.5272,1.5291,1.535,1.565,1.6277,1.6284,1.6997,1.8465,1.8472,1.9006,2.0092,2.0087,2.0192,2.0435,2.0471,2.0508,-1.4225,-1.489,-1.5521,-1.5578,-1.5744,-1.5804,-1.5388,-1.4472,-1.3426,-1.2499,-1.1355,0.0,0.0,0.0,0.0,0.0,0.0,0.0,-1.3128,-1.4983,-1.6427,0.0,-1.826,0.0,-1.8647,-1.7898,-1.7324,0.0,-1.5153,-1.4126,-1.4392,-1.331,-1.2123,-1.095,-0.9897,-0.8327,-0.6202,-0.6108,-0.6355,-0.6895,-0.6432,-0.6289,-0.6302,-0.4193,-0.4609,-0.7193,0.0,-1.2154,-1.3258,-1.3603,-1.3081,-1.1477,-0.5701,-0.2573,-0.1008,0.1734,0.1795,0.0707,0.2078,0.382,0.5741,0.7536,0.9829,1.2213,1.373,1.4729,1.5461,1.6282,1.691,1.7365,1.7676,1.8243,1.8806,1.8972,1.9332,1.9715,1.9955,1.9658,1.8945,1.7555,1.5751,1.4378,1.421,1.3948,1.3721,1.3632,1.3556,1.3632,1.3971,1.4352,1.4733,1.5056,1.5196,1.5273,1.5295,1.5291,1.5453,1.5793,1.5899,1.6289,1.7092,1.7121,1.7745,1.9063,1.9101,1.951,2.0369,2.0369,2.0369,2.0358,2.0386,2.0443,-1.4962,-1.521,-1.5345,-1.5719,-1.5671,-1.5501,-1.5332,-1.4228,-1.2822,-1.1477,0.0,-0.9725,-0.8639,-0.9203,-0.9929,-1.0191,0.0,-1.2803,-1.3479,-1.568,-1.7289,-1.7546,-1.9055,-1.985,-1.9366,-1.9158,-1.8796,-1.8072,-1.6413,-1.5345,-1.5133,-1.3927,-1.251,-1.0806,-1.0037,-0.8378,-0.5736,-0.687,-0.7494,-0.7611,-0.7572,-0.7227,-0.6562,-0.4713,-0.4432,-0.5486,0.0,0.0,-1.322,-1.4389,-1.4101,-1.2221,-0.4899,-0.1552,-0.0253,0.4206,0.4656,0.3137,0.3643,0.5599,0.7827,0.7736,0.9639,1.2235,1.3347,1.4589,1.5769,1.6405,1.667,1.6942,1.7519,1.7932,1.8275,1.8646,1.8939,1.9269,1.9661,1.9616,1.8977,1.718,1.5418,1.4145,1.3899,1.3724,1.3584,1.357,1.3445,1.3462,1.3827,1.4259,1.4682,1.505,1.5168,1.5245,1.5294,1.5411,1.5773,1.6464,1.6688,1.7126,1.7935,1.7966,1.8378,1.9235,1.9254,1.9596,2.0312,2.0312,2.0312,2.0312,2.0312,2.0355,-1.5577,-1.5794,-1.6227,-1.6772,-1.6607,-1.6139,-1.5446,-1.4012,0.0,0.0,-0.9921,-0.9166,-0.8734,-0.9099,-0.9699,-1.0337,0.0,0.0,0.0,0.0,-1.7374,0.0,0.0,0.0,0.0,0.0,0.0,0.0,0.0,0.0,-1.6907,-1.577,-1.3911,-1.1293,-0.8256,-0.5996,-0.4652,-0.7067,-0.8103,-0.7711,-0.8144,-0.7737,-0.6539,-0.4781,-0.442,-0.5326,0.0,0.0,-1.4804,-1.5136,-1.463,-1.2781,-0.4167,0.0657,0.3321,0.7583,0.8244,0.6881,0.5949,0.6052,0.6647,0.7428,0.9205,1.133,1.2783,1.3893,1.4744,1.5241,1.6062,1.6815,1.6942,1.7585,1.8229,1.8275,1.8591,1.8886,1.8966,1.8455,1.7697,1.674,1.5648,1.4591,1.3781,1.3615,1.3555,1.3462,1.3226,1.321,1.3584,1.4049,1.4509,1.4893,1.5148,1.5288,1.5307,1.601,1.6483,1.658,1.7262,1.8036,1.8838,1.8878,1.9254,2.0073,2.0092,2.0169,2.0312,2.0312,2.0312,2.0312,2.0312,2.0304,-1.5958,-1.6146,-1.6527,-1.7019,-1.6682,-1.5974,-1.4902,0.0,0.0,0.0,-0.956,-0.9024,-0.84,0.0,0.0,0.0,0.0,0.0,0.0,0.0,0.0,0.0,0.0,0.0,0.0,0.0,0.0,0.0,0.0,0.0,-1.6951,-1.4395,-1.2013,-1.002,-0.6054,-0.4761,-0.6416,-1.0234,-1.1245,-0.9405,-0.9947,-0.9312,-0.7608,-0.4677,-0.4585,-0.7012,0.0,0.0,-1.466,-1.5659,-1.5379,-1.3512,-0.5626,-0.0229,0.3897,1.0773,1.2067,1.0144,0.8071,0.721,0.7098,0.7279,0.87,1.0559,1.1595,1.2734,1.3762,1.4165,1.5007,1.5921,1.6406,1.7249,1.8027,1.8333,1.8569,1.8645,1.8481,1.786,1.7135,1.6389,1.5748,1.5055,1.4213,1.4401,1.4502,1.404,1.374,1.3575,1.3606,1.3831,1.4183,1.4687,1.5425,1.5906,1.5976,1.6803,1.7486,1.7888,1.828,1.8901,1.9692,1.9711,1.9911,2.0292,2.0312,2.0312,2.0312,2.0312,2.0312,2.0312,2.0312,2.0312,-1.6475,-1.6683,-1.6888,-1.7082,-1.6605,-1.5715,-1.4262,-1.2986,0.0,0.0,-0.9394,-0.9061,-0.8297,0.0,-0.906,0.0,0.0,0.0,0.0,0.0,0.0,0.0,0.0,0.0,0.0,0.0,0.0,0.0,0.0,0.0,0.0,-1.2672,-1.0032,-0.9102,-0.4591,-0.4326,-0.8665,-1.3662,-1.4451,-1.1053,-1.1423,-1.0444,-0.8126,-0.4819,-0.5332,-0.9018,0.0,0.0,0.0,-1.6177,-1.6033,-1.4226,-0.7397,-0.1889,0.3319,1.2596,1.4541,1.2239,0.9715,0.852,0.7972,0.7377,0.8246,0.9656,1.0308,1.1355,1.242,1.2835,1.3799,1.4936,1.5732,1.6807,1.7825,1.8278,1.8356,1.8217,1.7894,1.7424,1.6826,1.6075,1.5818,1.5496,1.4773,1.5225,1.5418,1.4614,1.4314,1.41,1.3817,1.3835,1.4132,1.4907,1.5824,1.6522,1.6827,1.7665,1.842,1.9056,1.9256,1.9635,2.0265,2.0312,2.0312,2.0312,2.0312,2.0312,2.0312,2.0312,2.0312,2.0312,2.0312,2.0312,-1.7378,-1.7752,-1.7838,-1.7324,-1.6814,-1.5922,-1.3844,0.0,0.0,-0.986,-0.9394,-0.9229,-0.9022,-0.8875,-0.8923,-0.9381,-1.0061,-1.1243,0.0,0.0,0.0,0.0,0.0,0.0,0.0,0.0,0.0,0.0,0.0,0.0,0.0,-1.2529,-1.0334,-1.0319,-0.5027,-0.4742,-1.0054,-1.5579,-1.5931,-1.1282,-1.1311,-0.9713,-0.6683,-0.5687,-0.7131,-1.0477,0.0,0.0,0.0,-1.6857,-1.6378,-1.454,-0.8218,-0.289,0.234,1.1624,1.3818,1.1955,1.0535,0.9397,0.844,0.7972,0.7946,0.8252,0.9217,0.9877,1.0358,1.0903,1.2568,1.4258,1.466,1.6216,1.7715,1.7759,1.7597,1.7327,1.6986,1.6878,1.6595,1.5871,1.5968,1.5896,1.5171,1.5569,1.5624,1.4651,1.4481,1.4448,1.4412,1.438,1.483,1.6099,1.6338,1.675,1.7625,1.8489,1.9022,1.9102,1.9792,2.0227,2.0312,2.0312,2.0312,2.0312,2.0312,2.0312,2.0312,2.0312,2.0312,2.0312,2.0312,2.0312,-1.7292,-1.8065,-1.8466,-1.7681,-1.6772,-1.5606,-1.3785,0.0,-1.1097,-0.9913,-0.949,-0.9293,-0.9218,-0.8936,-0.8739,-0.886,-0.8982,-0.9624,-1.1252,0.0,0.0,0.0,0.0,0.0,0.0,0.0,0.0,0.0,0.0,0.0,0.0,-1.1992,-0.9621,-0.6854,-0.4701,-0.4591,-0.6656,-1.4454,-1.5587,-1.0134,-1.2441,-1.1162,-0.681,-0.7291,-0.9204,-1.2201,0.0,0.0,0.0,-1.7355,-1.6588,-1.49,-1.1833,-0.5975,0.1469,0.7121,1.0327,1.1727,1.0924,0.9759,0.8561,0.807,0.7447,0.7063,0.817,0.8531,0.8642,0.9123,1.0337,1.1757,1.283,1.5342,1.7569,1.7577,1.7552,1.7186,1.5889,1.6035,1.6109,1.5018,1.5548,1.6037,1.5549,1.5824,1.5825,1.4984,1.4508,1.4167,1.3869,1.4157,1.4951,1.6366,1.7133,1.778,1.8352,1.9259,1.9818,1.9815,2.0131,2.0312,2.0312,2.0312,2.0312,2.0312,2.0312,2.0312,2.0312,2.0312,2.0312,2.0312,2.0312,2.0312,-1.6482,-1.7517,-1.8179,-1.7312,-1.6272,-1.5021,0.0,-1.1964,-1.0744,-0.9895,-0.9481,-0.9293,-0.9237,-0.8946,-0.8657,-0.8517,-0.844,-0.8923,-1.0459,-1.1426,0.0,0.0,0.0,0.0,0.0,0.0,0.0,0.0,0.0,0.0,0.0,-1.1367,-0.8715,-0.5018,-0.6121,-0.6384,-0.5678,-1.4296,-1.6036,-1.0917,-1.2964,-1.175,-0.7691,-0.8446,-1.0426,0.0,0.0,0.0,0.0,-1.7696,-1.6775,-1.5289,-1.4071,-0.8123,0.0181,0.3771,0.773,1.1217,1.0833,0.9798,0.8513,0.7848,0.6979,0.6349,0.7154,0.7247,0.7085,0.7378,0.8631,1.0276,1.21,1.4565,1.6564,1.6656,1.6524,1.5991,1.4528,1.4639,1.4722,1.3664,1.4509,1.5303,1.5043,1.5422,1.555,1.4903,1.448,1.418,1.4073,1.4445,1.5365,1.701,1.7994,1.8687,1.9115,1.9854,2.0277,2.0225,2.0205,2.0188,2.0153,2.0188,2.0205,2.0205,2.0277,2.0312,2.0312,2.0312,2.0312,2.0312,2.0312,2.0312,-1.4929,-1.6002,-1.6725,-1.5931,-1.5169,-1.4169,0.0,-1.1532,-1.0724,-0.9714,-0.9394,-0.9247,-0.9119,-0.888,-0.8705,-0.8693,-0.8922,-0.9766,-1.1711,-1.2399,0.0,0.0,0.0,0.0,0.0,0.0,0.0,0.0,0.0,0.0,0.0,0.0,-0.7657,-0.6424,-1.0039,-1.1004,-0.8869,-1.6055,-1.7988,-1.4621,-1.2449,-1.0672,-0.9262,-0.8961,0.0,0.0,0.0,0.0,0.0,-1.7868,-1.6928,-1.5698,-1.3835,-0.8685,-0.1738,0.2739,0.6859,1.0215,1.0215,0.9449,0.8335,0.7342,0.6628,0.6184,0.6227,0.5996,0.5711,0.5711,0.7805,1.057,1.304,1.4008,1.4411,1.468,1.4022,1.3245,1.2894,1.2554,1.2205,1.1809,1.265,1.3421,1.3348,1.4101,1.4581,1.4169,1.4338,1.4773,1.5496,1.5578,1.6355,1.8353,1.8833,1.9258,1.9926,2.0169,2.0225,2.0022,1.9993,1.9934,1.9802,1.9943,1.9993,1.9993,2.0197,2.0312,2.0312,2.0312,2.0312,2.0312,2.0312,2.0312,-1.3612,-1.4557,-1.5056,-1.4272,-1.3518,-1.2669,-1.1585,-1.0737,-1.0094,-0.9776,-0.9481,-0.9293,-0.9237,-0.9022,-0.8973,-0.9379,-0.937,-0.97,0.0,0.0,0.0,0.0,0.0,0.0,0.0,0.0,0.0,0.0,0.0,0.0,0.0,0.0,-0.919,-0.6039,-1.3729,-1.5779,-1.1347,-1.6515,-1.7147,-1.321,-1.3929,-1.3645,-1.2582,-1.4244,0.0,0.0,0.0,0.0,0.0,-1.8151,-1.7115,-1.5962,-1.3856,-0.9518,-0.3948,-0.0077,0.4808,0.9466,0.9129,0.8359,0.7341,0.6497,0.5599,0.4849,0.5058,0.5314,0.5669,0.6113,0.7765,0.9788,1.1589,1.259,1.3167,1.3244,1.304,1.2576,1.1629,1.1474,1.1412,1.113,1.149,1.1994,1.254,1.2827,1.319,1.3737,1.405,1.4491,1.518,1.5896,1.6752,1.7736,1.8542,1.9249,1.9875,2.0155,2.0235,2.0078,2.0031,1.9953,1.9821,1.9933,1.9993,1.9993,2.0197,2.0312,2.0312,2.0312,2.0312,2.0312,2.0312,2.0312,-1.2061,-1.2945,-1.3471,-1.2968,-1.2281,-1.1601,-1.1076,-1.0358,-0.9777,-0.9706,-0.9524,-0.9349,-0.9237,-0.9036,-0.8947,-0.9222,-0.9069,-0.9259,0.0,0.0,0.0,0.0,0.0,0.0,0.0,0.0,0.0,0.0,0.0,0.0,0.0,0.0,-1.023,-0.6299,-1.3002,-1.6303,-1.5425,-1.7967,-1.7672,-1.4586,-1.5263,-1.5423,-1.513,0.0,0.0,0.0,0.0,0.0,0.0,-1.8431,-1.7488,-1.6475,-1.4101,-1.0393,-0.592,-0.2103,0.2964,0.7908,0.7691,0.7127,0.6397,0.5532,0.4828,0.4415,0.4872,0.5239,0.5657,0.6314,0.7508,0.8799,0.9821,1.0612,1.1152,1.1286,1.1096,1.0768,1.033,1.0246,1.0207,1.0064,1.027,1.0648,1.1251,1.1434,1.1893,1.3129,1.3562,1.4147,1.52,1.6011,1.6766,1.7489,1.8376,1.9162,1.97,2.0088,2.0233,2.0098,1.9992,1.9869,1.9726,1.9802,1.988,1.9914,2.0097,2.0214,2.0312,2.0312,2.0312,2.0312,2.0312,2.0465,0.0,-1.1269,-1.193,-1.193,-1.1413,-1.0888,-1.0827,-1.0286,0.0,-0.9559,-0.95,-0.9421,-0.9219,-0.899,-0.8761,-0.8618,-0.8409,0.0,0.0,0.0,0.0,0.0,0.0,0.0,0.0,0.0,0.0,0.0,0.0,0.0,0.0,0.0,0.0,-0.723,-0.9412,-1.3719,-2.0074,-1.9941,-1.9279,-1.8121,-1.6603,-1.6311,-1.7071,0.0,0.0,0.0,0.0,0.0,0.0,-1.866,-1.7944,-1.7143,-1.4557,-1.133,-0.7601,-0.3481,0.1235,0.5577,0.5927,0.5884,0.551,0.4504,0.4348,0.4729,0.5484,0.5665,0.5726,0.6362,0.7118,0.7753,0.7968,0.831,0.8644,0.8984,0.8524,0.8255,0.9088,0.9012,0.8789,0.8844,0.9128,0.9437,0.9715,1.007,1.0851,1.2509,1.3054,1.3882,1.5599,1.6101,1.6652,1.7625,1.8369,1.8968,1.9457,1.9972,2.0238,2.0115,1.9915,1.975,1.9614,1.9609,1.9669,1.9767,1.9933,2.0106,2.0312,2.0312,2.0312,2.0312,2.0312,2.0735,-0.9863,0.0,-1.0268,-1.0268,-1.0137,-1.0005,0.0,-0.9842,-0.9703,-0.9657,-0.9491,-0.9499,-0.9999,-0.9433,-0.9224,-1.0293,-1.0119,0.0,0.0,0.0,0.0,0.0,0.0,0.0,0.0,0.0,0.0,0.0,0.0,0.0,0.0,0.0,0.0,-0.9429,-1.251,-1.5317,-1.7694,-1.9405,-2.0009,-1.9523,-1.8984,-1.886,-1.9116,0.0,0.0,0.0,0.0,0.0,-1.9682,-1.871,-1.7944,-1.7183,-1.4979,-1.2115,-0.8856,-0.5752,-0.1791,0.2403,0.4693,0.5148,0.4616,0.3952,0.4136,0.4736,0.5547,0.6161,0.6615,0.6885,0.7325,0.7647,0.7385,0.7357,0.7444,0.755,0.7453,0.7637,0.8673,0.8651,0.8578,0.9155,0.9101,0.9062,0.9437,0.9945,1.0963,1.295,1.37,1.4735,1.6685,1.6985,1.7309,1.8027,1.8346,1.8715,1.9308,1.979,2.0079,2.0108,2.0021,1.9847,1.9609,1.9707,1.9713,1.9662,1.988,2.0106,2.0312,2.0312,2.0312,2.0312,2.0312,2.0765,-0.9609,-0.9609,-0.9625,-0.9691,-0.9698,-0.9698,-0.9698,-0.9698,-0.9698,-0.9698,0.0,-0.9492,-0.9832,-0.9672,-0.9718,-1.039,-1.0562,0.0,0.0,0.0,0.0,0.0,0.0,0.0,0.0,0.0,0.0,0.0,0.0,0.0,0.0,0.0,0.0,0.0,-1.379,-1.6438,-1.734,-1.9327,-2.0162,-1.9859,-1.969,-1.9575,-1.952,-1.968,0.0,0.0,0.0,0.0,-1.9877,-1.9113,-1.8572,-1.7971,-1.534,-1.2979,-1.0665,-0.6884,-0.3366,-0.0079,0.274,0.4078,0.4484,0.4077,0.4493,0.528,0.5907,0.6517,0.704,0.7292,0.7413,0.7286,0.6674,0.6485,0.6485,0.6485,0.6683,0.7189,0.8518,0.8778,0.8985,0.9713,0.9675,0.961,1.0034,1.032,1.1118,1.281,1.3779,1.4861,1.6354,1.6986,1.7439,1.7743,1.8101,1.8479,1.8856,1.9351,1.976,2.0076,2.005,1.9924,1.9797,1.9726,1.9669,1.9596,1.9869,2.0041,2.0161,2.0249,2.0312,2.0312,2.0704,2.1358,-0.9525,-0.9491,-0.9508,-0.9649,-0.9695,-0.9728,-0.9717,-0.9728,-0.9721,0.0,0.0,0.0,-0.9652,-0.9999,0.0,0.0,0.0,0.0,0.0,0.0,0.0,0.0,0.0,0.0,0.0,0.0,0.0,0.0,0.0,0.0,0.0,0.0,0.0,0.0,-1.4794,-1.7388,-1.7874,-1.9355,-1.995,-1.9648,-1.9446,-1.9251,-1.9113,-1.9497,0.0,0.0,0.0,0.0,-1.9838,-1.9269,-1.9017,-1.8663,-1.5489,-1.369,-1.2304,-0.7897,-0.4376,-0.1428,0.1184,0.3235,0.4739,0.4514,0.5143,0.6067,0.6537,0.6913,0.7257,0.7521,0.7248,0.6713,0.593,0.5705,0.572,0.5783,0.6182,0.6973,0.8462,0.9097,0.9586,1.0272,1.0407,1.0505,1.0907,1.0959,1.137,1.2644,1.3713,1.4735,1.5718,1.6693,1.732,1.7368,1.7827,1.8197,1.835,1.8803,1.9331,1.993,1.9991,1.9993,1.9993,1.9738,1.9609,1.9636,1.9836,1.9973,1.9993,2.0161,2.0277,2.0331,2.1201,2.2076,-0.9483,-0.9412,-0.9368,-0.9571,-0.9695,-0.9791,-0.9863,-0.9825,-0.9777,0.0,0.0,0.0,0.0,0.0,0.0,0.0,0.0,0.0,0.0,0.0,0.0,0.0,0.0,0.0,0.0,0.0,0.0,0.0,0.0,0.0,0.0,0.0,0.0,0.0,0.0,-1.8807,-1.7734,-1.8974,-1.9549,-1.9432,-1.8919,-1.8642,-1.8622,-1.8979,-1.918,0.0,0.0,-1.8939,-1.8827,-1.7805,-1.7585,-1.7673,-1.5128,-1.3482,-1.2321,-1.0418,-0.5729,0.0035,0.2424,0.4059,0.5061,0.4698,0.5593,0.691,0.7385,0.7559,0.755,0.7192,0.6572,0.5899,0.5418,0.5061,0.4966,0.5652,0.637,0.7269,0.8518,0.9283,0.9843,1.0309,1.0605,1.0893,1.1176,1.1417,1.1981,1.3273,1.4126,1.5101,1.6368,1.699,1.7415,1.7681,1.7811,1.7954,1.8194,1.8406,1.8768,1.9287,1.9745,1.9993,1.9993,1.9738,1.9643,1.9774,1.9707,1.9774,1.9993,2.0031,2.0124,2.0331,2.1259,2.2145,-0.9365,-0.9176,-0.8956,-0.9559,-0.975,-0.9949,-1.0531,-1.0593,-1.0688,0.0,0.0,0.0,0.0,0.0,0.0,0.0,0.0,0.0,0.0,0.0,0.0,0.0,0.0,0.0,0.0,0.0,0.0,0.0,0.0,0.0,0.0,0.0,0.0,0.0,0.0,-1.6904,-1.6937,-1.7241,-1.7808,-1.8589,-1.8229,-1.7708,-1.7072,-1.7699,-1.7871,-1.7709,0.0,-1.8178,-1.8222,-1.7593,-1.746,-1.739,-1.4862,-1.3339,-1.1948,-0.7047,-0.1795,0.297,0.3734,0.4928,0.6027,0.5432,0.6227,0.7326,0.7121,0.7061,0.6875,0.596,0.5607,0.538,0.4985,0.4897,0.5086,0.5652,0.6597,0.7694,0.8826,0.9586,1.022,1.077,1.1273,1.1645,1.1781,1.2004,1.2423,1.3167,1.4251,1.5249,1.6011,1.6975,1.7635,1.7789,1.7811,1.7856,1.7971,1.8177,1.8628,1.942,1.9801,1.9993,1.9993,1.9802,1.9707,1.9695,1.9636,1.9656,1.9767,1.9933,2.006,2.0171,2.165,2.257,-0.9292,-0.8951,-0.8566,-0.9305,-0.9663,-1.0081,-1.1115,-1.1275,-1.148,0.0,0.0,0.0,0.0,0.0,0.0,0.0,0.0,0.0,0.0,0.0,0.0,0.0,0.0,0.0,0.0,0.0,0.0,0.0,0.0,0.0,0.0,0.0,0.0,0.0,0.0,0.0,-1.612,-1.5731,-1.6087,-1.7253,-1.7014,-1.6377,-1.5471,-1.6271,-1.6488,-1.6262,-1.6893,-1.7262,-1.7435,-1.7129,-1.7027,-1.6856,-1.46,-1.2904,-1.081,-0.3363,0.2015,0.551,0.4919,0.5684,0.6819,0.6052,0.6734,0.7686,0.6859,0.6678,0.6488,0.5118,0.4966,0.5093,0.4579,0.4821,0.5349,0.6114,0.7322,0.8553,0.9545,1.0289,1.0883,1.1296,1.1824,1.2231,1.2372,1.2569,1.2778,1.3051,1.4366,1.5378,1.5576,1.6898,1.7811,1.7811,1.7811,1.7811,1.7811,1.8057,1.8572,1.9436,1.9771,1.9954,2.0012,1.9912,1.9767,1.9662,1.9609,1.9614,1.9596,1.9836,1.9983,2.005,2.1989,2.2906,-0.9273,-0.8913,-0.8353,-0.8555,-0.9249,-1.0176,-1.1249,-1.1394,-1.1539,-1.24,0.0,0.0,0.0,0.0,0.0,0.0,0.0,0.0,0.0,0.0,0.0,0.0,0.0,0.0,0.0,0.0,0.0,0.0,0.0,0.0,0.0,0.0,0.0,0.0,0.0,0.0,-1.5654,-1.5367,-1.5278,-1.5399,-1.4828,-1.4499,-1.4429,-1.4994,-1.5427,-1.5747,-1.5813,-1.596,-1.6088,-1.5446,-1.5332,-1.5449,-1.4257,-1.186,-0.8347,-0.2282,0.2677,0.6346,0.5881,0.6312,0.694,0.6082,0.6904,0.8072,0.7142,0.7168,0.7203,0.5621,0.517,0.5036,0.4253,0.4587,0.556,0.7319,0.8904,1.0236,1.0991,1.1682,1.2057,1.1733,1.1957,1.2352,1.285,1.2961,1.3067,1.3329,1.4629,1.5576,1.5595,1.6898,1.7811,1.7811,1.7811,1.7811,1.7811,1.8057,1.838,1.8836,1.941,1.9812,1.9984,1.9984,1.9914,1.9797,1.9656,1.9614,1.9614,1.9738,1.988,2.005,2.1989,2.2934,-0.9268,-0.9028,-0.8588,-0.9218,-1.0427,-1.1472,-1.1555,-1.2237,-1.3272,-1.4783,-1.5371,0.0,0.0,0.0,0.0,0.0,0.0,0.0,0.0,0.0,0.0,0.0,0.0,0.0,0.0,0.0,0.0,0.0,0.0,0.0,0.0,0.0,0.0,0.0,0.0,-1.3876,-1.3484,-1.3384,-1.3261,-1.3094,-1.3905,-1.3969,-1.3397,-1.4052,-1.4237,-1.4099,-1.4563,-1.486,-1.4967,-1.4548,-1.4437,-1.4395,-1.3032,-1.0006,-0.5846,-0.0931,0.4135,0.846,0.7772,0.7931,0.8299,0.7598,0.8007,0.8613,0.7682,0.675,0.5774,0.4503,0.4959,0.5702,0.5228,0.5861,0.6895,0.8109,0.9846,1.1317,1.183,1.2789,1.3567,1.3628,1.3606,1.3625,1.3844,1.3701,1.3727,1.4211,1.5139,1.5904,1.6224,1.7168,1.7811,1.7811,1.7811,1.7811,1.7811,1.7883,1.817,1.8626,1.9115,1.9582,1.9974,1.9922,1.989,1.9914,1.9778,1.9682,1.9596,1.9813,2.0188,2.0717,2.2163,2.3148,-0.9052,-0.897,-0.8795,-0.9683,-1.0955,-1.1961,-1.1869,-1.2827,-1.4266,-1.6116,-1.689,-1.7185,0.0,0.0,0.0,0.0,0.0,0.0,0.0,0.0,0.0,0.0,0.0,0.0,0.0,0.0,0.0,0.0,0.0,0.0,0.0,0.0,0.0,0.0,0.0,0.0,-1.1909,-1.1839,-1.1703,-1.1541,-1.2765,-1.3054,-1.2509,-1.3182,-1.3334,-1.3085,-1.3665,-1.3987,-1.4098,-1.3863,-1.376,-1.3512,-1.0568,-0.6954,-0.274,0.2932,0.7465,1.0672,0.9824,0.9738,0.9865,0.9333,0.9494,0.9541,0.7636,0.6369,0.556,0.5604,0.6638,0.7697,0.7644,0.795,0.8628,0.9967,1.1534,1.2862,1.3323,1.4124,1.4833,1.5016,1.4897,1.4824,1.5003,1.4837,1.4806,1.5123,1.5817,1.6379,1.6652,1.7337,1.7811,1.7811,1.7811,1.7811,1.7811,1.7811,1.8035,1.8566,1.8859,1.9284,1.9903,1.989,1.9912,2.0012,1.9912,1.9809,1.9656,1.989,2.0401,2.118,2.2288,2.3283,-0.8617,-0.8712,-0.8995,-0.9725,0.0,0.0,-1.2205,-1.3023,-1.4128,-1.5959,-1.6428,-1.6716,-1.7399,0.0,0.0,0.0,0.0,0.0,0.0,0.0,0.0,0.0,0.0,0.0,0.0,0.0,0.0,0.0,0.0,0.0,0.0,0.0,0.0,0.0,0.0,0.0,-1.1298,-1.1034,-1.0897,-1.0897,-1.115,-1.1468,-1.1826,-1.2356,-1.2692,-1.2881,-1.3159,-1.3343,-1.3448,-1.3259,-1.3248,-1.2759,-0.6838,-0.2661,0.1073,0.9687,1.2874,1.2746,1.1899,1.1582,1.1515,1.1098,1.1285,1.091,0.6989,0.6157,0.7064,0.9516,1.0611,1.1098,1.1524,1.0832,1.068,1.3123,1.4283,1.499,1.5663,1.5823,1.5782,1.5649,1.5611,1.5796,1.6319,1.6419,1.6319,1.6063,1.6636,1.7006,1.6757,1.7354,1.7811,1.7811,1.7811,1.7811,1.7811,1.7811,1.8035,1.8566,1.8585,1.896,1.9767,1.9933,2.0012,1.9993,1.9993,1.9943,1.979,1.9943,2.047,2.1348,2.2335,2.3321,-0.8697,-0.9137,0.0,-1.0443,0.0,0.0,0.0,-1.3541,0.0,0.0,-1.796,-1.8152,0.0,0.0,0.0,0.0,0.0,0.0,0.0,0.0,0.0,0.0,0.0,0.0,0.0,0.0,0.0,0.0,0.0,0.0,0.0,0.0,0.0,0.0,0.0,0.0,-1.0586,-1.0281,-1.0245,-1.0481,-1.033,-1.0562,-1.1187,-1.149,-1.1525,-1.1351,-1.1334,-1.1344,-1.1362,-1.1176,-1.0533,-0.9484,-0.7615,-0.3121,0.286,0.7257,0.9906,1.1266,1.1155,1.0337,0.9392,0.9601,1.136,1.3325,1.2703,1.1576,1.0708,1.1618,1.177,1.193,1.3177,1.365,1.3839,1.4074,1.5152,1.6199,1.6385,1.7126,1.7757,1.7726,1.7382,1.7131,1.7299,1.7007,1.6841,1.7144,1.7379,1.7577,1.7731,1.7791,1.7811,1.7811,1.7811,1.7811,1.7811,1.7811,1.8035,1.8566,1.8585,1.896,1.9767,1.9836,1.9972,2.0205,2.0205,2.0115,1.9953,2.0689,2.1455,2.2236,2.3247,2.4159,-0.8661,-0.9118,0.0,-1.1092,-1.2021,-1.2724,-1.3081,0.0,0.0,0.0,0.0,0.0,0.0,0.0,0.0,0.0,0.0,0.0,0.0,0.0,0.0,0.0,0.0,0.0,0.0,0.0,0.0,0.0,0.0,0.0,0.0,0.0,0.0,0.0,0.0,0.0,-0.9702,-0.9496,-0.9496,-0.9702,-0.9639,-0.969,-0.9843,-1.0491,-1.0578,-1.023,-1.0346,-1.0224,-0.9947,-0.9541,-0.8713,-0.7526,-0.5355,-0.1703,0.2754,0.6158,0.8587,1.0218,1.0348,1.0068,0.9713,0.9998,1.1592,1.3462,1.3933,1.3403,1.2652,1.29,1.3076,1.353,1.4899,1.5836,1.6289,1.5904,1.6559,1.7288,1.7423,1.806,1.8623,1.8734,1.8483,1.8241,1.832,1.8063,1.795,1.8187,1.8125,1.8092,1.818,1.8057,1.7927,1.7811,1.7811,1.7811,1.7811,1.7811,1.8035,1.8566,1.8585,1.896,1.9767,1.979,1.9971,2.0285,2.0619,2.0721,2.0603,2.1547,2.2411,2.3217,2.3832,2.4524,-0.8495,-0.8773,0.0,-1.1617,-1.1819,0.0,-1.3069,-1.4453,-1.5772,0.0,0.0,0.0,0.0,0.0,0.0,0.0,0.0,0.0,0.0,0.0,0.0,0.0,0.0,0.0,0.0,0.0,0.0,0.0,0.0,0.0,0.0,0.0,0.0,0.0,0.0,0.0,-0.8761,-0.864,-0.864,0.0,-0.8951,-0.8684,-0.8037,-0.9386,-0.9754,-0.9303,-0.9642,-0.944,-0.8828,-0.8167,-0.743,-0.627,-0.1581,0.0592,0.1559,0.58,0.8191,0.9297,0.9403,1.0131,1.1023,1.104,1.1345,1.171,1.1799,1.2477,1.3272,1.3542,1.4419,1.5481,1.6404,1.7306,1.799,1.8107,1.8178,1.8307,1.8587,1.868,1.8771,1.9034,1.9067,1.9134,1.9289,1.932,1.9261,1.9052,1.8807,1.8547,1.831,1.8229,1.8121,1.7878,1.7811,1.7811,1.7811,1.7811,1.8035,1.8566,1.8675,1.9069,1.988,1.9922,2.0085,2.04,2.1216,2.162,2.1639,2.2504,2.334,2.411,2.4187,2.4601,-0.7808,-0.8621,0.0,0.0,-1.237,-1.3029,-1.3619,-1.3798,0.0,0.0,0.0,0.0,0.0,0.0,0.0,0.0,0.0,0.0,0.0,0.0,0.0,0.0,0.0,0.0,0.0,0.0,0.0,0.0,0.0,0.0,0.0,0.0,0.0,0.0,0.0,-0.7414,-0.8329,-0.7443,-0.7443,0.0,-0.7492,-0.6845,-0.6441,-0.7899,-0.8206,-0.7588,-0.6991,-0.6669,-0.6508,-0.6353,-0.5031,-0.3054,-0.2584,-0.0508,0.2361,0.4034,0.5628,0.71,0.7799,0.7346,0.6545,0.6859,0.7731,0.8785,0.951,1.1483,1.3578,1.4247,1.5067,1.5817,1.6157,1.7369,1.8502,1.8422,1.8777,1.9103,1.9089,1.9317,1.9556,1.9619,1.9632,1.9606,1.9555,1.9541,1.9471,1.9277,1.9051,1.8896,1.8843,1.845,1.8166,1.8103,1.7927,1.7811,1.7811,1.7811,1.8035,1.8566,1.919,1.9919,2.0771,2.0826,2.098,2.1317,2.2109,2.2553,2.2593,2.3428,2.3918,2.4129,2.4755,2.5139,-0.7918,0.0,0.0,-1.0853,0.0,-1.3295,-1.3278,-1.3312,0.0,0.0,0.0,0.0,0.0,0.0,0.0,0.0,0.0,0.0,0.0,0.0,0.0,0.0,0.0,0.0,0.0,0.0,0.0,0.0,0.0,0.0,0.0,0.0,0.0,0.0,-0.6609,-0.6773,-0.7376,-0.6575,-0.6575,-0.7376,-0.6356,-0.5667,-0.53,-0.6263,-0.6533,-0.6166,-0.5707,-0.5397,-0.5217,-0.4972,-0.3753,-0.2019,-0.2205,-0.0816,0.1371,0.1823,0.3054,0.4587,0.5042,0.5199,0.5256,0.5891,0.6801,0.7913,0.9329,1.1273,1.3259,1.4714,1.5903,1.6841,1.7389,1.8503,1.9439,1.9295,1.9428,1.957,1.9497,1.9651,1.979,1.979,1.979,1.9786,1.972,1.9649,1.9555,1.9471,1.9277,1.9101,1.9001,1.8752,1.8528,1.841,1.8146,1.7992,1.7992,1.7861,1.8194,1.9116,1.9564,2.0318,2.148,2.199,2.2236,2.2222,2.3022,2.3466,2.3515,2.4293,2.4678,2.4678,2.5101,2.5303,-0.789,0.0,-0.887,-1.0297,-1.1794,0.0,-1.2567,-1.2862,0.0,0.0,0.0,0.0,0.0,0.0,0.0,0.0,0.0,0.0,0.0,0.0,0.0,0.0,0.0,0.0,0.0,0.0,0.0,0.0,0.0,0.0,0.0,0.0,-0.7089,-0.6427,-0.6336,-0.6336,-0.638,-0.5845,-0.5814,-0.6251,-0.5404,-0.4783,-0.4381,-0.4662,-0.4878,-0.5085,-0.4859,-0.4613,-0.4338,-0.3795,-0.2856,-0.176,-0.1429,-0.0734,0.0134,0.0302,0.1295,0.2632,0.2859,0.395,0.5359,0.6287,0.7125,0.8146,1.0041,1.148,1.2908,1.4971,1.6548,1.7801,1.8638,1.9588,2.0247,1.9979,1.9915,1.9877,1.9836,1.9847,1.9888,1.9888,1.9866,1.9836,1.9836,1.9688,1.9614,1.9614,1.9442,1.9227,1.9086,1.9018,1.8914,1.8697,1.8391,1.8239,1.8378,1.8137,1.8555,1.9916,2.0114,2.0823,2.216,2.3182,2.3574,2.3283,2.3975,2.436,2.4418,2.5024,2.5303,2.5303,2.5303,2.5303,-0.6362,0.0,-0.9304,0.0,-1.1172,-1.1576,0.0,0.0,0.0,0.0,0.0,0.0,0.0,0.0,0.0,0.0,0.0,0.0,0.0,0.0,0.0,0.0,0.0,0.0,0.0,0.0,0.0,0.0,0.0,0.0,0.0,-0.6518,-0.6091,-0.5975,-0.5648,-0.5588,-0.5899,-0.5136,-0.4947,-0.5263,-0.4535,-0.3914,-0.3453,-0.3151,-0.363,-0.463,-0.3501,-0.3204,-0.3414,-0.2603,-0.1694,-0.0905,-0.12,-0.0534,0.0705,0.1464,0.2123,0.2856,0.3936,0.4706,0.538,0.655,0.7664,0.8863,1.0514,1.1866,1.3206,1.4934,1.6472,1.7626,1.7766,1.9093,2.0192,1.9422,1.9796,2.0265,2.0022,2.0106,2.0225,2.0225,2.0088,1.9964,1.9964,1.9774,1.9614,1.9614,1.9442,1.9289,1.9259,1.9119,1.9002,1.8949,1.8489,1.8447,1.9104,1.8904,1.9327,2.0654,2.1426,2.2195,2.31,2.4099,2.4683,2.4803,2.5082,2.5236,2.5236,2.5351,2.537,2.5303,2.5303,2.5303,-0.7135,-0.8213,-0.9209,0.0,-1.054,-1.0971,-1.1576,0.0,0.0,0.0,0.0,0.0,0.0,0.0,0.0,0.0,0.0,0.0,0.0,0.0,0.0,0.0,0.0,0.0,0.0,0.0,0.0,0.0,0.0,0.0,-0.679,-0.6213,-0.5797,-0.5585,-0.5144,0.0,-0.513,-0.429,-0.3834,-0.375,-0.3914,-0.3495,-0.2573,-0.2666,-0.2991,-0.3486,-0.2395,-0.2164,-0.2491,-0.1634,-0.1037,-0.0672,-0.0301,0.0167,0.0772,0.137,0.2062,0.2794,0.3351,0.4124,0.5067,0.6263,0.7415,0.8673,1.0537,1.1805,1.3108,1.5434,1.6669,1.7575,1.8708,1.9674,2.0258,1.9855,2.0075,2.0314,2.0196,2.0269,2.0369,2.0369,2.0252,2.0161,2.0161,1.9972,1.9809,1.9713,1.9577,1.9442,1.9305,1.9212,1.9166,1.9166,1.9255,1.9442,1.9779,1.996,2.0582,2.178,2.2177,2.2799,2.3767,2.4342,2.4723,2.4924,2.5192,2.537,2.5409,2.537,2.5322,2.5303,2.5303,2.5303,-0.7385,-0.8053,-0.8531,-0.9144,-0.9787,-1.0414,0.0,0.0,0.0,0.0,0.0,0.0,0.0,0.0,0.0,0.0,0.0,0.0,0.0,0.0,0.0,0.0,0.0,0.0,0.0,0.0,0.0,0.0,0.0,0.0,-0.6518,-0.5906,-0.5484,-0.5316,-0.4762,-0.4441,-0.4441,-0.3588,-0.3003,-0.2712,-0.3237,-0.297,-0.2014,-0.2137,-0.2236,-0.2311,-0.1507,-0.1341,-0.1611,-0.0705,-0.0336,-0.0269,0.0537,0.1007,0.1239,0.1538,0.2233,0.3061,0.3277,0.4012,0.5123,0.6427,0.752,0.8688,1.063,1.1774,1.2973,1.5778,1.6835,1.7541,1.9516,2.0167,2.0299,2.0303,2.0309,2.0314,2.0298,2.0347,2.041,2.0396,2.0354,2.0311,2.0292,2.0124,1.9973,1.9869,1.972,1.9541,1.9413,1.9335,1.9381,1.9583,1.997,2.0354,2.0752,2.1077,2.1739,2.2793,2.2885,2.3279,2.4171,2.4393,2.4559,2.4716,2.5012,2.5241,2.537,2.5282,2.5262,2.5303,2.5253,2.5224,-0.5742,-0.6469,-0.7152,-0.7741,-0.8776,0.0,0.0,0.0,0.0,0.0,0.0,0.0,0.0,0.0,0.0,0.0,0.0,0.0,0.0,0.0,0.0,0.0,0.0,0.0,0.0,0.0,0.0,0.0,0.0,0.0,-0.6518,-0.5345,-0.4858,-0.5277,-0.4473,-0.4026,-0.4026,-0.3171,-0.2712,-0.2679,-0.2281,-0.2081,-0.1981,-0.1176,-0.1007,-0.1338,-0.0906,-0.0739,-0.0706,0.0235,0.0639,0.0672,0.1106,0.1802,0.2596,0.2629,0.3196,0.4048,0.4801,0.5349,0.6014,0.7588,0.8601,0.9537,1.1093,1.1964,1.2969,1.5658,1.6735,1.7517,1.9337,2.0069,2.0292,2.0308,2.0346,2.0377,2.0305,2.0351,2.0405,2.0407,2.0347,2.0307,2.0289,2.0124,2.0012,1.9984,1.9774,1.9601,1.9601,1.9427,1.9583,2.0356,2.0316,2.0806,2.2265,2.2161,2.2495,2.3584,2.3638,2.3801,2.419,2.4393,2.4512,2.4512,2.4731,2.4975,2.5303,2.5168,2.518,2.5303,2.5099,2.5022,-0.5659,-0.6313,0.0,-0.7863,-0.8187,0.0,0.0,0.0,0.0,0.0,0.0,0.0,0.0,0.0,0.0,0.0,0.0,0.0,0.0,0.0,0.0,0.0,0.0,0.0,0.0,0.0,0.0,0.0,0.0,0.0,-0.6488,-0.5282,-0.4666,-0.4858,-0.4011,-0.3429,-0.3171,-0.2845,-0.2547,-0.2247,-0.2081,-0.1711,-0.1142,-0.084,-0.0605,-0.0469,-0.0302,-0.0437,-0.0639,0.0303,0.0706,0.0773,0.1477,0.1942,0.2308,0.2863,0.3458,0.4118,0.4928,0.5807,0.6794,0.8238,0.9391,1.0399,1.1559,1.2306,1.3167,1.5287,1.632,1.7191,1.8962,1.97,2.0011,2.0088,2.0225,2.0325,2.0318,2.0345,2.0416,2.0453,2.0418,2.0351,2.0361,2.028,2.0152,2.0022,1.9922,2.0032,2.0496,2.0007,2.0103,2.1328,2.1401,2.1748,2.2738,2.3208,2.3608,2.3998,2.4135,2.4266,2.4393,2.4461,2.4559,2.4685,2.4512,2.4607,2.4994,2.4934,2.4934,2.4981,2.491,2.4864,-0.5311,-0.6041,0.0,0.0,0.0,0.0,0.0,0.0,0.0,0.0,0.0,0.0,0.0,0.0,0.0,0.0,0.0,0.0,0.0,0.0,0.0,0.0,0.0,0.0,0.0,0.0,0.0,0.0,0.0,0.0,-0.6305,-0.5093,-0.428,-0.3983,-0.3523,-0.3097,-0.2712,-0.2547,-0.2314,-0.1981,-0.1711,-0.1276,-0.0706,-0.0538,-0.0303,0.0,0.0,-0.0101,-0.0168,0.0604,0.1008,0.1209,0.1945,0.2414,0.2739,0.3331,0.4011,0.475,0.5394,0.646,0.7692,0.8824,0.9921,1.0966,1.1843,1.2399,1.3195,1.517,1.616,1.7012,1.8871,1.9561,1.9813,1.9922,2.0079,2.0197,2.0197,2.0322,2.0426,2.0487,2.0458,2.0416,2.0425,2.0379,2.0288,2.0153,2.0087,2.0212,2.0705,2.0199,2.0395,2.1943,2.2032,2.2407,2.3417,2.3989,2.4303,2.4303,2.4428,2.4495,2.4495,2.4445,2.4461,2.461,2.4339,2.4321,2.4591,2.467,2.4731,2.4804,2.4731,2.4654,0.0,0.0,0.0,0.0,0.0,0.0,0.0,0.0,0.0,0.0,0.0,0.0,0.0,0.0,0.0,0.0,0.0,0.0,0.0,0.0,0.0,0.0,0.0,0.0,0.0,0.0,0.0,0.0,0.0,-0.5882,-0.5882,-0.4654,-0.3569,-0.2712,-0.3068,-0.3064,-0.2646,-0.2214,-0.1981,-0.1947,-0.1108,-0.0706,-0.0672,-0.0202,0.0,0.0,0.0,0.0269,0.0739,0.1139,0.1575,0.2047,0.2547,0.3237,0.3993,0.3993,0.4814,0.5944,0.6366,0.7375,0.8603,0.9365,1.024,1.1155,1.1879,1.2299,1.3023,1.5323,1.6274,1.7049,1.9054,1.9676,1.9778,1.9778,1.9901,1.9984,1.9984,2.019,2.0418,2.048,2.0449,2.043,2.0488,2.0456,2.0404,2.0435,2.0281,2.0177,2.0208,2.003,2.0519,2.2205,2.2177,2.2728,2.4346,2.4495,2.4495,2.4495,2.4495,2.4512,2.4512,2.4321,2.4209,2.4209,2.4209,2.4209,2.419,2.4393,2.4591,2.4775,2.4575,2.4393,-0.5386,0.0,0.0,0.0,0.0,0.0,0.0,0.0,0.0,0.0,0.0,0.0,0.0,0.0,0.0,0.0,0.0,0.0,0.0,0.0,0.0,0.0,0.0,0.0,0.0,0.0,0.0,0.0,-0.6366,-0.5751,-0.5401,-0.4194,-0.3097,-0.2214,-0.2311,-0.2139,-0.1707,-0.1573,-0.134,-0.1041,-0.0807,-0.0538,-0.0202,-0.0067,0.0,0.0,0.0,0.0269,0.0739,0.1139,0.1575,0.2081,0.2838,0.3294,0.3556,0.421,0.4845,0.5487,0.6236,0.7122,0.8188,0.9735,1.0603,1.1168,1.21,1.2925,1.3745,1.4826,1.5832,1.7006,1.8728,1.9268,1.9407,1.9617,1.9762,1.9858,1.9858,1.9992,2.0178,2.0392,2.0453,2.0488,2.0508,2.0481,2.0662,2.1255,2.1284,2.1693,2.2909,2.2459,2.2612,2.4093,2.367,2.362,2.4435,2.4495,2.4445,2.4284,2.4428,2.4578,2.4716,2.467,2.4623,2.4623,2.4623,2.4495,2.419,2.4266,2.4321,2.4357,2.4303,2.4247,-0.561,0.0,0.0,0.0,0.0,0.0,0.0,0.0,0.0,0.0,0.0,0.0,0.0,0.0,0.0,0.0,0.0,0.0,0.0,0.0,0.0,0.0,0.0,0.0,0.0,0.0,0.0,0.0,-0.6006,-0.5383,-0.4744,-0.3806,-0.29,-0.2014,-0.2014,-0.1778,-0.1305,-0.1139,-0.094,-0.0706,-0.0504,-0.0269,0.0,0.0,0.0,0.0,0.0,0.0369,0.0973,0.1206,0.1707,0.2374,0.3032,0.3519,0.3914,0.4403,0.5093,0.5851,0.6528,0.7525,0.8767,1.0254,1.1153,1.1794,1.2641,1.3373,1.4094,1.5105,1.637,1.7641,1.8591,1.8895,1.9012,1.9289,1.9444,1.9587,1.9688,1.9869,2.0041,2.023,2.0366,2.0578,2.0976,2.1074,2.1366,2.2207,2.2298,2.2636,2.3611,2.3267,2.3371,2.4539,2.4183,2.4071,2.4662,2.4708,2.4663,2.4538,2.4648,2.4766,2.4877,2.4828,2.4804,2.4804,2.4804,2.4639,2.4339,2.4339,2.4284,2.419,2.419,2.419,-0.5579,-0.6098,0.0,0.0,0.0,0.0,-0.8415,-0.8011,0.0,0.0,0.0,0.0,0.0,0.0,0.0,0.0,0.0,0.0,0.0,0.0,0.0,0.0,0.0,0.0,0.0,0.0,-0.6275,-0.5913,-0.5428,-0.4832,-0.4026,-0.3528,-0.2834,-0.1945,-0.1914,-0.1676,-0.1171,-0.0805,-0.0639,-0.0605,-0.0202,0.0,0.0,0.0,0.0,0.0,0.0067,0.0503,0.1238,0.1338,0.1904,0.2732,0.3192,0.3849,0.4538,0.4692,0.5501,0.6568,0.7021,0.8229,0.9721,1.0743,1.1641,1.2492,1.3205,1.3692,1.4282,1.5846,1.7318,1.8471,1.8547,1.8547,1.8623,1.8896,1.9081,1.925,1.9481,1.9755,1.9993,2.0152,2.036,2.0795,2.1635,2.1913,2.2323,2.3184,2.3262,2.3262,2.3379,2.3324,2.3562,2.427,2.4177,2.4322,2.4969,2.4991,2.4979,2.4986,2.4986,2.4986,2.501,2.4877,2.4814,2.4814,2.4818,2.4731,2.4559,2.4528,2.4393,2.419,2.4228,2.4228,-0.6091,-0.6494,-0.6598,0.0,0.0,0.0,0.0,-0.7301,0.0,0.0,0.0,0.0,0.0,0.0,0.0,0.0,0.0,0.0,0.0,0.0,0.0,0.0,0.0,0.0,0.0,0.0,-0.5975,-0.5913,-0.4884,-0.4183,-0.3993,-0.3237,-0.2408,-0.1473,-0.144,-0.1072,-0.0269,-0.0168,-0.0134,-0.0134,-0.0034,0.0,0.0,0.0,0.0,0.0034,0.0403,0.0672,0.0874,0.1577,0.2178,0.2775,0.3565,0.3956,0.4248,0.5257,0.5998,0.6598,0.7408,0.8088,0.8937,1.0575,1.1228,1.1594,1.2679,1.3659,1.471,1.626,1.7092,1.7676,1.8149,1.827,1.8351,1.8604,1.886,1.9051,1.9119,1.9409,1.9869,2.0532,2.1032,2.1436,2.1686,2.2314,2.3085,2.3945,2.4062,2.4316,2.5019,2.5094,2.5125,2.5229,2.5158,2.5111,2.507,2.5031,2.4949,2.4842,2.4842,2.4891,2.4998,2.4974,2.4962,2.4962,2.4855,2.4842,2.4911,2.4636,2.4393,2.419,2.4357,2.4426,-0.6006,-0.6324,-0.6423,-0.6472,0.0,0.0,0.0,0.0,0.0,0.0,0.0,0.0,0.0,0.0,0.0,0.0,0.0,0.0,0.0,0.0,0.0,0.0,0.0,0.0,0.0,0.0,-0.5703,-0.5275,-0.4468,-0.3891,-0.3658,-0.2841,-0.2045,-0.1338,-0.1106,-0.0671,0.0,0.0,0.0,0.0,0.0,0.0,0.0,0.0235,0.0336,0.037,0.0805,0.1141,0.141,0.2073,0.2606,0.3068,0.3728,0.4356,0.4922,0.5583,0.6332,0.7124,0.7775,0.8445,0.9273,1.0913,1.144,1.171,1.2999,1.4163,1.5271,1.6254,1.6926,1.7375,1.7676,1.7888,1.8078,1.833,1.8508,1.8641,1.877,1.9439,2.0122,2.0529,2.1644,2.2592,2.2774,2.319,2.3825,2.4754,2.4922,2.5117,2.5547,2.5625,2.5623,2.5566,2.5524,2.5447,2.5313,2.5271,2.5225,2.5144,2.5151,2.5168,2.5248,2.5248,2.5228,2.519,2.5141,2.5056,2.501,2.4831,2.4663,2.4512,2.4591,2.4654,0.0,0.0,0.0,0.0,0.0,-0.7104,0.0,0.0,0.0,-0.7804,0.0,0.0,0.0,0.0,0.0,0.0,0.0,0.0,0.0,0.0,0.0,0.0,0.0,0.0,0.0,0.0,-0.5252,-0.4618,-0.4113,-0.3656,-0.3236,-0.2458,-0.1744,-0.1206,-0.0873,-0.0471,0.0,0.0,0.0,0.0,0.0,0.0034,0.0134,0.0538,0.0739,0.084,0.1239,0.1642,0.2047,0.2666,0.3141,0.3544,0.4016,0.4772,0.5615,0.5841,0.6645,0.7652,0.8156,0.8949,0.9989,1.1351,1.192,1.2306,1.3522,1.4603,1.5505,1.6034,1.6628,1.7109,1.7199,1.7392,1.7681,1.7958,1.8168,1.8395,1.866,1.965,2.0531,2.0678,2.2117,2.3413,2.376,2.4023,2.4465,2.5303,2.5512,2.5574,2.5582,2.5621,2.5642,2.5605,2.5586,2.5566,2.5515,2.5509,2.5502,2.5502,2.5502,2.5502,2.5502,2.5502,2.5483,2.5416,2.5409,2.532,2.5084,2.5084,2.4968,2.4804,2.4832,2.4842,0.0,0.0,0.0,0.0,-0.6936,0.0,0.0,0.0,-0.7694,-0.7588,0.0,0.0,0.0,0.0,0.0,0.0,0.0,0.0,0.0,0.0,0.0,0.0,0.0,0.0,0.0,0.0,0.0,-0.4422,-0.3662,-0.3128,-0.2966,-0.234,-0.1611,-0.0807,-0.0739,-0.0471,0.0,0.0,0.0,0.0,0.0,0.0202,0.0639,0.0672,0.0906,0.1273,0.1709,0.1947,0.2089,0.3228,0.3923,0.4316,0.4802,0.5061,0.5289,0.6314,0.7054,0.7723,0.8453,0.9427,1.0456,1.1472,1.2354,1.3151,1.3735,1.4232,1.4786,1.5476,1.6031,1.6474,1.6789,1.6892,1.7018,1.7304,1.8094,1.8824,1.9152,2.003,2.0962,2.1675,2.2255,2.2813,2.3432,2.4296,2.4954,2.511,2.5293,2.5441,2.5498,2.5511,2.5545,2.5585,2.5547,2.5527,2.5581,2.5527,2.5507,2.5507,2.5507,2.5507,2.5507,2.5507,2.5507,2.5488,2.5498,2.5437,2.534,2.534,2.5153,2.4804,2.493,2.4974,0.0,0.0,0.0,0.0,0.0,0.0,0.0,0.0,-0.6776,0.0,0.0,0.0,0.0,0.0,0.0,0.0,0.0,0.0,0.0,0.0,0.0,0.0,0.0,0.0,0.0,0.0,0.0,0.0,0.0,-0.2766,-0.2278,-0.1757,-0.1231,-0.0705,-0.0437,-0.0202,0.0,0.0,0.0,0.0,0.0,0.0235,0.0706,0.094,0.1274,0.1742,0.2211,0.246,0.2571,0.3369,0.403,0.4588,0.5222,0.5657,0.6045,0.6505,0.7357,0.8285,0.8629,0.9457,1.0518,1.1487,1.2437,1.3301,1.3769,1.4019,1.4296,1.5077,1.5607,1.5976,1.6405,1.6659,1.6937,1.7468,1.7906,1.8346,1.8904,2.001,2.1014,2.1349,2.2212,2.3002,2.328,2.4107,2.4762,2.4898,2.5102,2.5245,2.5271,2.5403,2.551,2.5543,2.5524,2.5515,2.5534,2.5517,2.5506,2.5506,2.5543,2.5588,2.5607,2.5627,2.5607,2.5568,2.5558,2.5522,2.5466,2.5455,2.5367,2.5218,2.5217,2.525,-0.5127,0.0,0.0,0.0,0.0,0.0,0.0,0.0,0.0,0.0,0.0,0.0,0.0,0.0,0.0,0.0,0.0,0.0,0.0,0.0,0.0,0.0,0.0,0.0,0.0,0.0,0.0,0.0,0.0,0.0,-0.1822,-0.1352,-0.0939,-0.0623,-0.02,0.0,0.0,0.0,0.0,0.0,0.0134,0.0436,0.0873,0.1306,0.1742,0.2214,0.2589,0.2808,0.2953,0.3541,0.414,0.4824,0.555,0.6182,0.6707,0.6707,0.7566,0.8716,0.8716,0.9469,1.0649,1.1653,1.2461,1.3082,1.3581,1.3802,1.4019,1.4752,1.5197,1.5608,1.6251,1.6592,1.6956,1.7716,1.8061,1.8419,1.8985,2.0193,2.1149,2.1149,2.2203,2.3069,2.3069,2.3787,2.4405,2.4551,2.4841,2.5015,2.5015,2.5212,2.5369,2.538,2.5441,2.5486,2.5505,2.5505,2.5505,2.5505,2.5545,2.5598,2.5637,2.5663,2.5644,2.5605,2.5625,2.5581,2.5535,2.5538,2.5513,2.549,2.5456,2.5451,0.0,0.0,0.0,-0.5493,0.0,0.0,0.0,0.0,-0.6138,0.0,0.0,0.0,0.0,0.0,0.0,0.0,0.0,0.0,0.0,0.0,0.0,0.0,0.0,0.0,0.0,0.0,0.0,0.0,0.0,0.0,-0.1821,-0.1343,-0.0889,-0.0432,-0.0131,0.0,0.0,0.0,0.0,0.0,0.0471,0.0873,0.1305,0.1778,0.2247,0.269,0.2835,0.2903,0.2967,0.381,0.4554,0.5141,0.5893,0.6507,0.7007,0.7007,0.7716,0.8716,0.8716,0.9697,1.1132,1.2162,1.2508,1.2615,1.3082,1.3547,1.4,1.4406,1.4814,1.537,1.6411,1.6712,1.6954,1.7961,1.878,1.9452,1.9781,2.0787,2.1579,2.1579,2.2197,2.2721,2.2721,2.3458,2.4007,2.4026,2.4465,2.4818,2.4818,2.493,2.505,2.511,2.5293,2.5438,2.5495,2.5495,2.5495,2.5495,2.5493,2.5498,2.5517,2.5574,2.5605,2.5605,2.5664,2.5664,2.5605,2.5602,2.5564,2.5507,2.5496,2.5503,0.0,0.0,-0.5455,-0.5309,0.0,0.0,0.0,0.0,0.0,0.0,0.0,0.0,0.0,0.0,0.0,0.0,0.0,0.0,0.0,0.0,0.0,0.0,0.0,0.0,0.0,0.0,0.0,0.0,0.0,0.0,0.0,-0.0851,-0.0471,-0.0154,-0.0033,0.0,0.0,0.0,0.0,0.0,0.0471,0.0906,0.1306,0.1876,0.2402,0.2842,0.2985,0.3068,0.3208,0.3915,0.461,0.5286,0.593,0.652,0.6979,0.6979,0.7724,0.8797,0.9518,1.0524,1.1579,1.192,1.2473,1.2978,1.3163,1.3288,1.3514,1.4,1.4465,1.507,1.6059,1.6307,1.6664,1.8179,1.8459,1.8673,1.9573,2.026,2.083,2.115,2.1625,2.2062,2.2381,2.2822,2.3298,2.3723,2.4265,2.4591,2.4591,2.4756,2.4877,2.4892,2.4962,2.505,2.5157,2.5301,2.539,2.5428,2.5425,2.5448,2.5495,2.5517,2.5521,2.5525,2.5564,2.5564,2.5525,2.5523,2.5523,2.5506,2.5507,2.5492,-0.472,-0.4826,0.0,0.0,-0.4657,0.0,-0.4553,0.0,0.0,0.0,0.0,0.0,0.0,0.0,0.0,0.0,0.0,0.0,0.0,0.0,0.0,0.0,0.0,0.0,0.0,0.0,-0.4239,-0.3495,0.0,0.0,0.0,0.0,-0.0314,-0.0148,-0.0065,0.0,0.0,0.0168,0.0235,0.0269,0.0924,0.1379,0.1656,0.2255,0.2683,0.2991,0.3098,0.3216,0.3351,0.3985,0.4669,0.5351,0.5959,0.652,0.7021,0.7238,0.8013,0.9119,1.0,1.0736,1.1292,1.1479,1.2054,1.272,1.2908,1.3218,1.3626,1.407,1.4559,1.5225,1.6201,1.6466,1.6817,1.8166,1.8361,1.8476,1.9229,1.9879,2.0382,2.0682,2.1197,2.1688,2.2003,2.2412,2.2848,2.3277,2.3744,2.4042,2.4042,2.4316,2.4535,2.4535,2.4697,2.4828,2.493,2.5049,2.5168,2.5261,2.5261,2.5301,2.5428,2.5447,2.5464,2.5467,2.5486,2.5506,2.5506,2.5506,2.5486,2.546,2.5464,2.5453]},{"header":{"parameterUnit":"m.s-1","parameterCategory":1,"la1":30.6,"la2":29.2853,"lo1":-89.7004,"lo2":-87.6739,"dy":0.0162,"dx":0.0183,"nx":112,"ny":82,"refTime":"2026-05-03T12:00:00:Z","depth":0,"parameterNumber":3,"parameterNumberName":"V-component_of_WINDS"},"data":[0.0,0.0,0.0,0.0,0.0,0.0,0.0,0.0,0.0,0.0,0.0,0.0,0.0,0.0,0.0,0.0,0.0,0.0,0.0,0.0,0.0,0.0,0.0,0.0,0.0,0.0,0.0,0.0,0.0,0.0,0.0,0.0,0.0,0.0,0.0,0.0,0.0,0.0,0.0,0.0,0.0,0.0,0.0,0.0,0.0,0.0,0.0,0.0,0.0,0.0,0.0,0.0,0.0,0.0,0.0,0.0,0.0,0.0,0.0,0.0,0.0,0.0,0.0,0.0,0.0,0.0,0.0,0.0,0.0,0.0,0.0,0.0,0.0,0.0,0.0,0.0,0.0,0.0,0.0,0.0,0.0,0.0,0.0,0.0,0.0,0.0,0.0,0.0,0.0,0.0,0.0,-0.5916,-0.4757,-0.2986,-0.0554,0.1029,0.2789,0.497,0.0,0.0,0.0,0.0,0.0,0.0,0.0,0.0,0.0,0.0,0.0,0.0,0.0,0.0,0.0,0.0,0.0,0.0,0.0,0.0,0.0,0.0,0.0,0.0,0.0,0.0,0.0,0.0,0.0,0.0,0.0,0.0,0.0,0.0,0.0,0.0,0.0,0.0,0.0,0.0,0.0,0.0,0.0,0.0,0.0,0.0,0.0,0.0,0.0,0.0,0.0,0.0,0.0,0.0,0.0,0.0,0.0,0.0,0.0,0.0,0.0,0.0,0.0,0.0,0.0,0.0,0.0,0.0,0.0,0.0,0.0,0.0,0.0,0.0,0.0,0.0,0.0,0.0,0.0,0.0,0.0,0.0,0.0,0.0,0.0,0.0,0.0,0.0,0.0,0.0,0.0,0.0,0.0,0.0,0.0,0.0,0.0,0.0,0.0,0.0,0.0,0.0,0.0,0.0,-0.5809,-0.5522,-0.5077,-0.3522,-0.0338,0.1586,0.3477,0.5473,0.0,0.0,0.0,0.0,0.0,0.0,0.0,0.0,0.0,0.0,0.0,0.0,0.0,0.0,0.0,0.0,0.0,0.0,0.0,0.0,0.0,0.0,0.0,0.0,0.0,0.0,0.0,0.0,0.0,0.0,0.0,0.0,0.0,0.0,0.0,0.0,0.0,0.0,0.0,0.0,0.0,0.0,0.0,0.0,0.0,0.0,0.0,0.0,0.0,0.0,0.0,0.0,0.0,0.0,0.0,0.0,0.0,0.0,0.0,0.0,0.0,0.0,0.0,0.0,0.0,0.0,0.0,0.0,0.0,0.0,0.0,0.0,0.0,0.0,0.0,0.0,0.0,0.0,0.0,0.0,0.0,0.0,0.0,0.0,0.0,0.0,0.0,0.0,0.0,0.0,0.0,0.0,0.0,0.0,0.0,0.0,0.0,0.0,0.0,0.0,0.0,0.0,0.0,-0.6778,-0.642,-0.5651,-0.5059,-0.338,-0.0063,0.1809,0.3656,0.5628,0.5157,0.0,0.0,0.0,0.0,0.0,0.0,0.0,0.0,0.0,0.0,0.0,0.0,0.0,0.0,0.0,0.0,0.0,0.0,0.0,0.0,0.0,0.0,0.0,0.0,0.0,0.0,0.0,0.0,0.0,0.0,0.0,0.0,0.0,0.0,0.0,0.0,0.0,0.0,0.0,0.0,0.0,0.0,0.0,0.0,0.0,0.0,0.0,0.0,0.0,0.0,0.0,0.0,0.0,0.0,0.0,0.0,0.0,0.0,0.0,0.0,0.0,0.0,0.0,0.0,0.0,0.0,0.0,0.0,0.0,0.0,0.0,0.0,0.0,0.0,0.0,0.0,0.0,0.0,0.0,0.0,0.0,0.0,0.0,0.0,0.0,0.0,0.0,0.0,0.0,0.0,0.0,0.0,0.0,0.0,0.0,0.0,0.0,0.0,0.0,0.0,0.0,0.0,-0.7413,-0.7026,-0.5838,-0.4743,-0.289,0.0145,0.225,0.4124,0.5763,0.534,0.0,0.0,0.0,0.0,0.0,0.0,0.0,0.0,0.0,0.0,0.0,0.0,0.0,0.0,0.0,0.0,0.0,0.0,0.0,0.0,0.0,0.0,0.0,0.0,0.0,0.0,0.0,0.0,0.0,0.0,0.0,0.0,0.0,0.0,0.0,0.0,0.0,0.0,0.0,0.0,0.0,0.0,0.0,0.0,0.0,0.0,0.0,0.0,0.0,0.0,0.0,0.0,0.0,0.0,0.0,0.0,0.0,0.0,0.0,0.0,0.0,0.0,0.0,0.0,0.0,0.0,0.0,0.0,0.0,0.0,0.0,0.0,0.0,0.0,0.0,0.0,0.0,0.0,0.0,0.0,0.0,0.0,0.0,0.0,0.0,0.0,0.0,0.0,0.0,0.0,0.0,0.0,0.0,0.0,0.0,0.0,0.0,0.0,0.0,0.0,0.0,0.0,-0.7577,-0.7238,-0.5855,-0.4036,-0.2009,0.0207,0.3352,0.5465,0.6036,0.5629,0.0,0.0,0.0,0.0,0.0,0.0,0.0,0.0,0.0,0.0,0.0,0.0,0.0,0.0,0.0,0.0,0.0,0.0,0.0,0.0,0.0,0.0,0.0,0.0,0.0,0.0,0.0,0.0,0.0,0.0,0.0,0.0,0.0,0.0,0.0,0.0,0.0,0.0,0.0,0.0,0.0,0.0,0.0,0.0,0.0,0.0,0.0,0.0,0.0,0.0,0.0,0.0,0.0,0.0,0.0,0.0,0.0,0.0,0.0,0.0,0.0,0.0,0.0,0.0,0.0,0.0,0.0,0.0,0.0,0.0,0.0,0.0,0.0,0.0,0.0,0.0,0.0,0.0,0.0,0.0,0.0,0.0,0.0,0.0,0.0,0.0,0.0,0.0,0.0,0.0,0.0,0.0,0.0,0.0,0.0,0.0,0.0,0.0,0.0,0.0,0.0,0.0,-0.759,-0.7253,0.0,-0.3963,-0.1873,0.0449,0.3233,0.527,0.6281,0.0,0.0,0.0,0.0,0.0,0.0,0.0,0.0,0.0,0.0,0.0,0.0,0.0,0.0,0.0,0.0,0.0,0.0,0.0,0.0,0.0,0.0,0.0,0.0,0.0,0.0,0.0,0.0,0.0,0.0,0.0,0.0,0.0,0.0,0.0,0.0,0.0,0.0,0.0,0.0,0.0,0.0,0.0,0.0,0.0,0.0,0.0,0.0,0.0,0.0,0.0,0.0,0.0,0.0,0.0,0.0,0.0,0.0,0.0,0.0,0.0,0.0,0.0,0.0,0.0,0.0,0.0,0.0,0.0,0.0,0.0,0.0,0.0,0.0,0.0,0.0,0.0,0.0,0.0,0.0,0.0,0.0,0.0,0.0,0.0,0.0,0.0,0.0,0.0,0.0,0.0,0.0,0.0,0.0,0.0,0.0,0.0,0.0,0.0,0.0,0.0,0.0,-0.7556,-0.7604,-0.7071,0.0,-0.3686,-0.1505,0.0732,0.3012,0.4903,0.631,0.0,0.0,0.0,0.0,0.0,0.0,0.0,0.0,0.0,0.0,0.0,0.0,0.0,0.0,0.0,0.0,0.0,0.0,0.0,0.0,0.0,0.0,0.0,0.0,0.0,0.0,0.0,0.0,0.0,0.0,0.0,0.0,0.0,0.0,0.0,0.0,0.0,0.0,0.0,0.0,0.0,0.0,0.0,0.0,0.0,0.0,0.0,0.0,0.0,0.0,0.0,0.0,0.0,0.0,0.0,0.0,0.0,0.0,0.0,0.0,0.0,0.0,0.0,0.0,0.0,0.0,0.0,0.0,0.0,0.0,0.0,0.0,0.0,0.0,0.0,0.0,0.0,0.0,0.0,0.0,0.0,0.0,0.0,0.0,0.0,0.0,0.0,0.0,0.0,0.0,0.0,0.0,0.0,0.0,0.0,0.0,0.0,0.0,0.0,0.0,0.0,0.0,-0.8211,-0.7635,-0.6636,-0.5433,-0.3084,-0.0844,0.1047,0.2856,0.4556,0.0,0.0,0.0,0.0,0.0,0.0,0.0,0.0,0.0,0.0,0.0,0.0,0.0,0.0,0.0,0.0,0.0,0.0,0.0,0.0,0.0,0.0,0.0,0.0,0.0,0.0,0.0,0.0,0.0,0.0,0.0,0.0,0.0,0.0,0.0,0.0,0.0,0.0,0.0,0.0,0.0,0.0,0.0,0.0,0.0,0.0,0.0,0.0,0.0,0.0,0.0,0.0,0.0,0.0,0.0,0.0,0.0,0.0,0.0,0.0,0.0,0.0,0.0,0.0,0.0,0.0,0.0,0.0,0.0,0.0,0.0,0.0,0.0,0.0,0.0,0.0,0.0,0.0,0.0,0.0,0.0,0.0,0.0,0.0,0.0,0.0,0.0,0.0,0.0,0.0,0.0,0.0,0.0,0.0,0.0,0.0,0.0,0.0,0.0,0.0,0.0,0.0,0.0,0.0,-0.746,-0.6584,-0.5229,-0.2988,-0.0844,0.1047,0.2595,0.4087,0.5541,0.0,0.0,0.0,0.0,0.0,0.0,0.0,0.0,0.0,0.0,0.0,0.0,0.0,0.0,0.0,0.0,0.0,0.0,0.0,0.0,0.0,0.0,0.0,0.0,0.0,0.0,0.0,0.0,0.0,0.0,0.0,0.0,0.0,0.0,0.0,0.0,0.0,0.0,0.0,0.0,0.0,0.0,0.0,0.0,0.0,0.0,0.0,0.0,0.0,0.0,0.0,0.0,0.0,0.0,0.0,0.0,0.0,0.0,0.0,0.0,0.0,0.0,0.0,0.0,0.0,0.0,0.0,0.0,0.0,0.0,0.0,0.0,0.0,0.0,0.0,0.0,0.0,0.0,0.0,0.0,0.0,0.0,0.0,0.0,0.0,0.0,0.0,0.0,0.0,0.0,0.0,0.0,0.0,0.0,0.0,0.0,0.0,0.0,0.0,0.0,0.0,0.0,-0.7532,-0.7032,-0.622,-0.5274,-0.2733,-0.0367,0.148,0.2755,0.3945,0.5046,0.0,0.0,0.0,0.0,0.0,0.0,0.0,0.0,0.0,0.0,0.0,0.0,0.0,0.0,0.0,0.0,0.0,0.0,0.0,0.0,0.0,0.0,0.0,0.0,0.0,0.0,0.0,0.0,0.0,0.0,0.0,0.0,0.0,0.0,0.0,0.0,0.0,0.0,0.0,0.0,0.0,0.0,0.0,0.0,0.0,0.0,0.0,0.0,0.0,0.0,0.0,0.0,0.0,0.0,0.0,0.0,0.0,0.0,0.0,0.0,0.0,0.0,0.0,0.0,0.0,0.0,0.0,0.0,0.0,0.0,0.0,0.0,0.0,0.0,0.0,0.0,0.0,0.0,0.0,0.0,0.0,0.0,0.0,0.0,0.0,0.0,0.0,0.0,0.0,0.0,0.0,0.0,0.0,0.0,0.0,0.0,0.0,0.0,0.0,0.0,0.0,0.0,-0.724,-0.6474,-0.565,-0.5212,-0.2316,0.0333,0.2168,0.318,0.3982,0.4624,0.0,0.0,0.0,0.0,0.0,0.0,0.0,0.0,0.0,0.0,0.0,0.0,0.0,0.0,0.0,0.0,0.0,0.0,0.0,0.0,0.0,0.0,0.0,0.0,0.0,0.0,0.0,0.0,0.0,0.0,0.0,0.0,0.0,0.0,0.0,0.0,0.0,0.0,0.0,0.0,0.0,0.0,0.0,0.0,0.0,0.0,0.0,0.0,0.0,0.0,0.0,0.0,0.0,0.0,0.0,0.0,0.0,0.0,0.0,0.0,-0.3267,0.0,0.0,0.0,0.0,0.0,0.0,0.0,0.0,0.0,0.0,0.0,0.0,0.0,0.0,0.0,0.0,0.0,0.0,0.0,0.0,0.0,0.0,0.0,0.0,0.0,0.0,0.0,0.0,0.0,0.0,0.0,0.0,0.0,0.0,0.0,0.0,0.0,0.0,0.0,0.0,0.0,-0.6662,-0.6206,-0.5196,-0.3613,-0.1611,0.0394,0.2372,0.3256,0.3902,0.4369,0.0,0.0,0.0,0.0,0.0,0.0,0.0,0.0,0.0,0.0,0.0,0.0,0.0,0.0,0.0,0.0,0.0,0.0,0.0,0.0,0.0,0.0,0.0,0.0,0.0,0.0,0.0,0.0,0.0,0.0,0.0,0.0,0.0,0.0,0.0,0.0,0.0,0.0,0.0,0.0,0.0,0.0,0.0,0.0,0.0,0.0,0.0,0.0,0.0,0.0,0.0,0.0,0.0,0.0,0.0,0.0,0.0,0.0,0.0,0.0,0.0,-0.5404,0.0,0.0,0.0,0.0,0.0,0.0,0.0,0.0,0.0,0.0,0.0,0.0,0.0,0.0,0.0,0.0,0.0,0.0,0.0,0.0,0.0,0.0,0.0,0.0,0.0,0.0,0.0,0.0,0.0,0.0,0.0,0.0,0.0,0.0,0.0,0.0,0.0,0.0,0.0,0.0,-0.6175,-0.5679,-0.4657,-0.3026,-0.127,0.0733,0.3081,0.3586,0.3889,0.4097,0.3508,0.0,0.0,0.0,0.0,0.0,0.0,0.0,0.0,0.0,0.0,0.0,0.0,0.0,0.0,0.0,0.0,0.0,0.0,0.0,0.0,0.0,0.0,0.0,0.0,0.0,0.0,0.0,0.0,0.0,0.0,0.0,0.0,0.0,0.0,0.0,0.0,0.0,0.0,0.0,0.0,0.0,0.0,0.0,0.0,0.0,0.0,0.0,0.0,0.0,0.0,0.0,0.0,0.0,0.0,-0.987,-1.0371,-0.9499,-0.9583,-1.0347,-0.8841,-0.7812,-0.7191,0.0,0.0,0.0,0.0,0.0,0.0,0.0,0.0,0.0,0.0,0.0,0.0,0.0,0.0,0.0,0.0,0.0,0.0,0.0,0.0,0.0,0.0,0.0,0.0,0.0,-0.6274,-0.5758,0.0,0.0,0.0,0.0,0.0,0.0,0.0,0.0,0.0,0.0,0.0,0.0,-0.5759,-0.5156,-0.4134,-0.2761,-0.1029,0.108,0.3626,0.3877,0.3892,0.3894,0.3588,0.319,0.0,0.0,0.0,0.0,0.0,0.0,0.0,0.0,0.0,0.0,0.0,0.0,0.0,0.0,0.0,0.0,0.0,0.0,0.0,0.0,0.0,0.0,0.0,0.0,0.0,0.0,0.0,0.0,0.0,0.0,0.0,0.0,-0.4563,-0.659,0.0,0.0,0.0,0.0,0.0,0.0,0.0,0.0,0.0,0.0,0.0,0.0,0.0,0.0,-0.97,-1.0528,-1.0907,-1.0826,-1.1016,-1.1158,-1.1235,-1.1162,-1.1201,-1.1313,-1.1084,0.0,-0.9974,-0.9019,0.0,0.0,0.0,0.0,0.0,0.0,0.0,0.0,0.0,0.0,0.0,0.0,0.0,0.0,0.0,0.0,0.0,0.0,0.0,0.0,0.0,0.0,-0.7012,-0.6388,-0.5953,-0.5577,0.0,-0.4794,-0.4454,-0.4139,0.0,0.0,0.0,0.0,0.0,0.0,0.0,0.0,-0.5503,-0.4945,-0.3842,-0.2049,-0.0638,0.0995,0.305,0.3626,0.3888,0.3905,0.3859,0.3786,0.3703,0.3107,0.0,0.0,0.0,0.0,0.0,0.0,0.0,0.0,0.0,0.0,0.0,0.0,0.0,0.0,0.0,0.0,0.0,0.0,0.0,0.0,0.0,0.0,0.0,0.0,0.0,0.0,0.0,0.0,0.0,-0.5501,-0.6081,-0.7665,-0.7165,-0.6891,0.0,0.0,0.0,0.0,0.0,0.0,0.0,0.0,0.0,-1.0044,-1.0494,-1.0867,-1.1151,-1.1982,-1.243,-1.2495,-1.2861,-1.3177,-1.3446,-1.3829,-1.3816,-1.3486,-1.3951,-1.371,-1.2876,-1.1129,-1.0267,-0.9978,0.0,0.0,0.0,0.0,0.0,-0.8409,-0.8308,0.0,0.0,0.0,0.0,0.0,0.0,0.0,0.0,0.0,0.0,0.0,0.0,0.0,0.0,-0.6705,-0.631,-0.5961,-0.5443,-0.5207,-0.5006,0.0,-0.4366,-0.4017,-0.386,0.0,0.0,0.0,0.0,0.0,-0.5643,-0.532,-0.4171,-0.1836,-0.037,0.1171,0.305,0.3492,0.3751,0.389,0.3757,0.368,0.3682,0.3505,0.3369,0.0,0.0,0.0,0.0,0.0,0.0,0.0,0.0,0.0,0.0,0.0,0.0,0.0,0.0,0.0,0.0,0.0,0.0,0.0,0.0,0.0,0.0,0.0,0.0,0.0,0.0,0.0,0.0,-0.6637,-0.7303,-0.8591,-0.8377,-0.8396,0.0,0.0,0.0,0.0,0.0,0.0,-0.9784,-1.0376,-1.1048,-1.178,-1.21,-1.2404,-1.2696,-1.355,-1.4158,-1.4528,-1.4954,-1.5328,-1.5683,-1.6222,-1.6184,-1.5746,-1.6342,-1.6244,-1.5445,-1.3038,-1.1988,-1.1851,-1.1446,-1.118,-1.0985,-1.0656,-1.0319,-1.0027,-0.9763,-0.9644,-0.9603,-0.9556,0.0,-1.0058,-0.971,0.0,0.0,0.0,0.0,-0.9165,-0.8482,0.0,-0.7566,-0.7002,-0.6619,-0.6197,-0.5653,-0.5458,-0.5311,0.0,-0.4783,-0.4446,-0.4304,0.0,0.0,0.0,0.0,-0.5806,-0.5829,-0.5588,-0.4369,-0.1642,0.0,0.1572,0.3219,0.3528,0.3672,0.3793,0.3668,0.3624,0.3712,0.38,0.3606,0.0,0.0,0.0,0.0,0.0,0.0,0.0,0.0,0.0,0.0,0.0,0.0,0.0,0.0,0.0,0.0,0.0,0.0,0.0,0.0,0.0,0.0,0.0,0.0,0.0,0.0,0.0,0.0,0.0,0.0,-0.9973,-1.0001,0.0,0.0,0.0,0.0,-1.1841,-1.1853,-1.1838,-1.1759,-1.1804,-1.1908,-1.2068,-1.2822,-1.3758,-1.4825,-1.5721,-1.6527,-1.7306,-1.7387,-1.7447,-1.7475,-1.7643,-1.7696,-1.7657,-1.7703,-1.7697,-1.7452,-1.4646,-1.3381,-1.3137,-1.2354,-1.1772,-1.1356,-1.1216,-1.0845,-1.0415,-1.0018,-0.9886,-0.9943,-1.0307,-1.0578,-1.0653,-1.0052,-0.9753,0.0,0.0,-0.9029,-0.8993,-0.8453,-0.8015,-0.7588,-0.72,-0.6485,-0.5921,-0.5891,-0.5557,-0.5205,0.0,-0.4792,-0.4778,-0.4763,0.0,-0.5206,-0.5349,-0.5615,-0.5821,-0.5885,-0.5502,-0.4124,-0.1224,0.0677,0.2213,0.3385,0.3782,0.3851,0.3547,0.3751,0.3999,0.4248,0.3901,0.3752,0.3852,0.278,0.0,0.0,0.0,0.0,0.0,0.0,0.0,0.0,0.0,0.0,0.0,0.0,0.0,0.0,0.0,0.0,0.0,0.0,0.0,0.0,0.0,0.0,0.0,0.0,0.0,0.0,0.0,0.0,-1.0933,-1.1492,0.0,0.0,-1.2354,-1.2432,-1.2305,-1.2207,-1.2383,-1.2909,-1.2928,-1.3477,-1.471,-1.5053,-1.5705,-1.6666,-1.7015,-1.738,-1.7692,-1.7711,-1.7727,-1.7748,-1.8392,-1.8379,-1.7835,-1.8434,-1.8362,-1.7713,-1.6578,-1.6088,-1.6034,-1.5759,-1.5431,-1.5081,-1.4742,-1.4346,-1.382,-1.2719,-1.2238,-1.1958,-1.1241,-1.0957,-1.0816,-1.0611,-1.049,-1.0437,-1.0406,-1.0412,-1.0327,-0.9747,-0.927,-0.8689,-0.7766,-0.7103,-0.654,-0.6006,-0.5797,-0.5576,-0.5183,-0.4954,-0.4788,-0.4788,-0.4893,-0.5161,-0.5755,-0.5869,-0.5968,-0.6248,-0.615,-0.4791,-0.1509,0.1968,0.3835,0.3304,0.3694,0.3933,0.3766,0.3689,0.3911,0.4527,0.4091,0.3763,0.3644,0.2953,0.24,0.0,0.0,0.0,0.0,0.0,0.0,0.0,0.0,0.0,0.0,0.0,0.0,0.0,0.0,0.0,0.0,0.0,0.0,0.0,0.0,0.0,0.0,0.0,0.0,0.0,0.0,-1.1269,-1.1908,-1.2709,-1.321,-1.3164,-1.3377,-1.3468,-1.338,-1.3308,-1.3607,-1.4428,-1.4476,-1.5147,-1.6624,-1.6735,-1.7199,-1.8105,-1.8154,-1.8309,-1.8586,-1.8586,-1.8564,-1.8567,-1.9219,-1.9208,-1.869,-1.9323,-1.9214,-1.8565,-1.841,-1.8336,-1.8289,-1.7672,-1.7221,-1.6867,-1.6558,-1.6113,-1.5488,-1.4319,-1.361,-1.3096,-1.2096,-1.1626,-1.139,-1.1199,-1.1199,-1.1292,-1.1303,-1.124,-1.1032,-1.0646,-1.008,-0.9389,-0.8474,-0.7744,-0.7068,-0.6276,-0.6006,-0.5797,-0.5372,-0.5124,-0.4953,-0.4953,-0.4967,-0.5202,-0.5928,-0.596,-0.599,-0.6273,-0.6419,-0.5106,-0.1459,0.2484,0.4424,0.3401,0.3904,0.4177,0.392,0.3731,0.3952,0.4666,0.4191,0.3805,0.3636,0.2904,0.2352,0.1999,0.0,0.0,0.0,0.0,0.0,0.0,0.0,0.0,0.0,0.0,0.0,0.0,0.0,0.0,0.0,0.0,0.0,0.0,0.0,0.0,0.0,0.0,0.0,-1.0276,-1.17,-1.2798,-1.293,-1.3606,-1.4108,-1.4179,-1.4902,-1.5373,-1.5383,-1.5374,-1.5683,-1.6418,-1.6445,-1.6804,-1.7615,-1.7704,-1.8184,-1.9137,-1.913,-1.9456,-2.0105,-2.0076,-2.0068,-1.9993,-2.0148,-2.0245,-2.0292,-2.0369,-2.0295,-2.0096,-2.0031,-1.9922,-1.9628,-1.7856,-1.684,-1.639,-1.6356,-1.5863,-1.5103,-1.4514,-1.3825,-1.3115,-1.2775,-1.2595,-1.2357,-1.1772,-1.1789,-1.1952,-1.1678,-1.1345,-1.1025,-1.1037,-1.0393,-0.9648,-0.9192,-0.8371,-0.7489,-0.6685,-0.6183,-0.5797,-0.5372,-0.5309,-0.5309,-0.5309,-0.5309,-0.5435,-0.5828,-0.589,0.0,-0.5882,-0.623,-0.4959,-0.1029,0.2158,0.3925,0.37,0.4362,0.4536,0.3942,0.3897,0.413,0.4666,0.4171,0.3874,0.3841,0.2639,0.2008,0.2003,0.0,0.0,0.0,0.0,0.0,0.0,0.0,0.0,0.0,0.0,0.0,0.0,0.0,0.0,0.0,0.0,0.0,0.0,0.0,0.0,0.0,0.0,-1.201,-1.2084,-1.2985,-1.3673,-1.3764,-1.5011,-1.5896,-1.5917,-1.6679,-1.7185,-1.7193,-1.719,-1.7259,-1.7472,-1.7433,-1.7824,-1.873,-1.8677,-1.9076,-1.9967,-1.9833,-1.9859,-2.0031,-1.9928,-1.992,-1.9993,-2.0148,-2.0245,-2.0292,-2.0369,-2.0345,-2.0218,-1.9952,-1.9836,-1.9741,-1.9045,-1.8619,-1.8322,-1.7681,-1.6358,-1.4821,-1.4643,-1.3604,-1.23,-1.2228,-1.2039,-1.1831,-1.1635,-1.1635,-1.1771,-1.2096,-1.2114,-1.1932,-1.1664,-1.1171,-1.043,-0.9284,-0.8389,-0.7539,-0.6693,-0.6183,-0.5797,-0.5372,-0.5309,-0.5309,-0.5309,-0.5309,-0.5435,-0.5828,0.0,0.0,-0.5859,-0.5755,-0.4481,-0.143,0.1966,0.3887,0.3574,0.4156,0.4438,0.0,0.3858,0.3848,0.4386,0.3709,0.3103,0.2677,0.2333,0.2048,0.0,0.0,0.0,0.0,0.0,0.0,0.0,0.0,0.0,0.0,0.0,0.0,0.0,0.0,0.0,0.0,0.0,0.0,0.0,0.0,0.0,0.0,-1.2796,-1.3872,-1.4328,-1.4785,-1.509,-1.5151,-1.6295,-1.7108,-1.7096,-1.7584,-1.7883,-1.7851,-1.7882,-1.8059,-1.8384,-1.8376,-1.8728,-1.9551,-1.9503,-1.9669,-2.0088,-1.9963,-1.989,-1.9824,-1.975,-1.9797,-1.9922,-2.006,-2.018,0.0,-2.0366,-2.0331,-2.02,-1.9973,-1.976,0.0,0.0,0.0,0.0,0.0,-1.6294,-1.5039,-1.4872,-1.3938,-1.2808,-1.2808,-1.2556,-1.2234,-1.2041,-1.1976,-1.2005,-1.2109,-1.2159,-1.2081,-1.1852,-1.1442,-1.0737,-0.9361,-0.8531,-0.7703,-0.6511,-0.6068,-0.5797,-0.5372,0.0,0.0,-0.5309,-0.5309,-0.5372,-0.5609,-0.5467,-0.5309,0.0,-0.5332,-0.4193,-0.1342,0.1973,0.3849,0.3536,0.4263,0.0,0.0,0.0,0.3699,0.3785,0.3347,0.0,0.0,0.0,0.0,0.0,0.0,0.0,0.0,0.1444,0.1236,0.0,0.0,0.0,0.0,0.0,0.0,0.0,0.0,0.0,0.0,0.0,0.0,0.0,0.0,0.0,0.0,-1.4652,-1.5492,-1.6577,-1.68,-1.6814,-1.6734,-1.7457,-1.7949,-1.7957,-1.8072,-1.8157,-1.8098,-1.815,-1.8484,-1.9205,0.0,0.0,0.0,0.0,-1.9985,-1.979,-1.9797,-1.9732,-1.9614,-1.9614,-1.9669,-1.9809,-1.9953,-2.0109,-2.0306,-2.0366,-2.0289,-2.0123,-2.0021,-1.9632,-1.9073,-1.8912,-1.8494,-1.7795,-1.6578,-1.5831,0.0,0.0,0.0,0.0,-1.3835,-1.3547,-1.3129,-1.265,-1.2508,-1.2389,-1.192,-1.1811,-1.1774,-1.1737,-1.1356,-1.0677,-0.9382,-0.8696,-0.7885,-0.63,-0.5881,-0.5734,-0.5372,-0.5309,-0.5309,-0.5309,-0.5309,-0.5309,-0.5309,-0.5309,0.0,-0.4666,-0.4905,-0.4019,-0.1016,0.0,0.0,0.3575,0.4445,0.4787,0.4235,0.3942,0.3576,0.3072,0.3061,0.3039,0.2995,0.2583,0.2332,0.2229,0.1408,0.129,0.1797,0.1285,0.1371,0.0,0.0,0.0,0.0,0.0,0.0,0.0,0.0,0.0,0.0,0.0,0.0,0.0,0.0,0.0,-1.4545,-1.5092,-1.5772,-1.7287,-1.7992,-1.8182,-1.7622,-1.827,-1.8785,-1.8842,-1.9456,-1.985,-1.9897,-1.992,-1.9985,-2.0134,-1.9985,0.0,-2.0105,-1.9945,-1.9832,-1.979,-1.9695,-1.9623,-1.9614,0.0,0.0,-1.9809,-2.0059,-2.0214,-2.0304,-2.0377,-2.0352,-2.0238,-1.9962,-1.9243,-1.829,-1.8042,-1.758,-1.6928,-1.6053,-1.5272,-1.4662,-1.4251,-1.3756,-1.3323,-1.3323,-1.3267,-1.3129,-1.265,-1.2508,0.0,-1.192,-1.1811,-1.17,-1.1282,-1.1094,-1.0648,-0.9198,-0.8379,-0.761,-0.6461,-0.5787,-0.5404,-0.5309,-0.5309,-0.5309,-0.5309,-0.5309,-0.5309,-0.5309,-0.5309,-0.5119,-0.4666,-0.4404,-0.3327,-0.0884,0.1515,0.3212,0.3864,0.3868,0.3943,0.4176,0.3618,0.3115,0.279,0.279,0.2663,0.2382,0.2228,0.1835,0.1204,0.1476,0.169,0.1808,0.1895,0.1388,0.0,0.0,0.0,0.0,0.0,0.0,0.0,0.0,0.0,0.0,0.0,-1.1698,-1.2666,0.0,-1.4607,-1.5984,-1.6689,-1.7335,-1.8133,-1.8913,-1.9116,-1.8395,-1.8953,-1.9402,-1.945,-1.9901,-2.0169,-2.01,-2.0188,-2.0203,-2.0098,-1.9998,-1.9911,-1.9849,-1.9751,-1.965,-1.954,-1.9481,-1.9456,-1.9456,-1.9555,-1.9669,-1.9809,-2.0077,-2.0255,-2.0344,-2.0393,-2.0374,-2.0307,-1.9661,-1.8924,-1.8124,-1.7273,-1.6652,-1.6099,-1.5345,-1.4679,-1.4181,-1.3967,-1.3581,-1.3232,-1.3459,-1.3391,-1.3129,-1.265,-1.233,-1.2029,-1.1542,-1.1207,-1.0992,-1.0725,-1.0447,-0.9945,-0.8785,-0.7923,-0.7127,-0.6212,-0.5641,-0.5309,-0.5309,-0.5119,-0.4953,-0.4953,-0.4953,-0.5023,-0.5277,-0.5309,-0.5055,-0.4377,-0.3988,-0.2984,-0.096,0.1057,0.2557,0.3294,0.3365,0.3485,0.3635,0.3109,0.2701,0.2452,0.2448,0.2342,0.2155,0.2138,0.1881,0.1354,0.1644,0.1484,0.0897,0.1049,0.1185,0.0,0.0,0.0,0.0,0.0,0.0,0.0,0.0,-1.063,-1.1972,-1.2882,-1.3714,-1.4646,-1.5451,-1.6329,-1.7303,-1.8182,-1.88,-1.8961,-1.9522,-1.9665,-1.897,-1.9428,-1.979,-1.979,-1.9955,-1.9974,-1.9813,-1.9945,-1.9974,-1.9821,-1.9786,-1.9701,-1.9596,-1.9614,-1.9527,-1.935,-1.9376,-1.9376,-1.935,-1.9577,-1.9713,-1.9809,-2.0096,-2.031,-2.0402,-2.0406,-2.0359,-2.0255,-1.9406,-1.8774,-1.8191,-1.6962,-1.6161,-1.5605,-1.471,-1.4181,-1.3901,-1.3973,-1.3756,-1.3535,-1.4044,-1.3894,-1.3454,-1.2881,-1.2354,-1.1752,-1.1046,-1.0572,-1.0283,-1.0157,-0.9843,-0.9301,-0.8405,-0.751,-0.6657,-0.5875,-0.5419,-0.5182,-0.5284,-0.4922,-0.4602,-0.4602,-0.4602,-0.473,-0.5119,-0.5246,-0.5023,-0.4215,-0.3746,-0.2878,-0.1233,0.053,0.1925,0.2633,0.3061,0.3231,0.3032,0.2712,0.2476,0.2301,0.2298,0.2269,0.2211,0.2267,0.2202,0.1986,0.1617,0.0942,0.0,0.0,0.0767,-0.6341,-0.7396,-0.8555,-0.9108,-0.9819,-1.0645,0.0,0.0,-1.2572,-1.2768,-1.3764,-1.4736,-1.5152,-1.5835,-1.6739,-1.7913,-1.8335,-1.8793,-1.9575,-1.9663,-1.9521,-1.9191,-1.9544,-1.979,-1.979,-1.9824,-1.9824,-1.979,-1.9821,-1.9821,-1.979,-1.9695,-1.9609,-1.9596,-1.9614,-1.9582,-1.9555,-1.9688,-1.9688,-1.9569,-1.9836,-1.9901,-1.9802,-2.0203,-2.0398,-2.0406,-2.0402,-2.026,-2.0012,-1.9551,-1.8953,-1.8266,-1.774,-1.6963,-1.5958,-1.4509,-1.3934,-1.3954,-1.4242,-1.431,-1.4391,-1.5081,-1.5081,-1.464,-1.3735,-1.2942,-1.2057,-1.0664,-1.0293,-1.0196,-0.9716,-0.9558,-0.9301,-0.8405,-0.7272,-0.6249,-0.5806,-0.5148,-0.4794,-0.5214,-0.4922,-0.4602,-0.4602,-0.4602,-0.4628,-0.4666,-0.5023,-0.5119,-0.4602,-0.3936,-0.3045,-0.1821,-0.0066,0.1468,0.261,0.3064,0.3155,0.2754,0.2688,0.2682,0.2632,0.2642,0.2645,0.2645,0.2639,0.262,0.2586,0.0973,0.0134,0.0,0.0,0.0108,-0.8113,-0.9065,-0.9862,0.0,-1.1406,-1.2513,-1.3162,-1.369,-1.4124,-1.4557,-1.528,-1.5932,-1.618,-1.6871,-1.7682,0.0,-1.879,-1.9026,-1.9393,-1.9217,-1.9047,-1.8988,-1.8868,-1.8954,-1.9298,-1.9411,-1.9481,-1.9518,-1.9481,-1.9425,-1.9346,-1.9274,-1.9465,-1.9939,-2.0185,-2.0299,-2.029,-2.0471,-2.0239,-1.9596,-1.988,-1.9933,-1.9802,-2.023,-2.0427,-2.0459,-2.0386,-2.0235,-2.0022,-1.9713,-1.9204,-1.8603,-1.8038,-1.7456,-1.6834,-1.5662,-1.5065,-1.4886,-1.5286,-1.5372,-1.5369,-1.591,-1.5844,-1.5412,-1.4818,-1.3739,-1.248,-1.1315,-1.0454,-0.9716,-0.9159,-0.8797,-0.8391,-0.7654,-0.6653,-0.5689,-0.5178,-0.4808,-0.4666,-0.4858,-0.4538,-0.4312,-0.457,-0.4409,-0.4403,-0.4871,-0.5137,-0.5207,-0.4966,-0.4264,-0.3012,-0.096,0.0866,0.2147,0.265,0.2841,0.2874,0.2716,0.2712,0.2683,0.269,0.2696,0.27,0.2706,0.2713,0.2164,0.1111,0.0382,0.0,0.0,0.0,0.0,-0.9119,-0.9947,0.0,-1.138,-1.2582,-1.3717,-1.4235,-1.4729,-1.5149,-1.5495,-1.5915,-1.6265,-1.6311,-1.684,-1.7512,-1.8252,-1.8569,-1.8804,-1.9006,-1.875,-1.8521,-1.8501,-1.8096,-1.8025,-1.8457,-1.8841,-1.9061,-1.9097,-1.9061,-1.8978,-1.8878,-1.8896,-1.9291,-2.0174,-2.051,-2.0736,-2.0844,-2.1042,-2.0639,-1.9675,-1.989,-1.9933,-1.9802,-2.0214,-2.0433,-2.0469,-2.025,-2.0037,-1.9802,-1.9671,-1.929,-1.8762,-1.8392,-1.8093,-1.7783,-1.7141,-1.6492,-1.5966,-1.6512,-1.6578,-1.6483,-1.6959,-1.68,-1.6327,-1.5837,-1.4477,-1.2826,-1.1706,-1.049,-0.9359,-0.8635,-0.8193,-0.7716,-0.7018,-0.6119,-0.5252,-0.4651,-0.4413,-0.4372,-0.4471,-0.4122,-0.3956,-0.4377,-0.4188,-0.4307,-0.523,-0.5408,-0.5453,-0.5401,-0.4564,-0.2984,-0.0298,0.1605,0.2693,0.2716,0.2712,0.2712,0.2712,0.2683,0.269,0.2696,0.27,0.2706,0.2717,0.22,0.1323,0.0,0.0,0.0,0.0,0.0,0.0,-0.8616,0.0,-1.0544,-1.2308,-1.3134,-1.3728,-1.4589,-1.5236,-1.5487,-1.4863,-1.5058,-1.5252,-1.4921,-1.5037,-1.5541,-1.6591,-1.7199,-1.7808,-1.8517,-1.834,-1.8025,-1.7764,-1.7415,-1.7235,0.0,-1.808,-1.8623,-1.8623,-1.8623,-1.8623,-1.8604,-1.8604,-1.9109,-2.0174,-2.0328,-2.0593,-2.0992,-2.1134,-2.0717,-1.9809,-1.9924,-1.9933,-1.9813,-2.0225,-2.0397,-2.037,-1.9992,-1.955,-1.9129,-1.9324,-1.9052,-1.8551,-1.898,-1.9008,-1.8763,-1.8737,-1.7939,-1.6952,-1.7689,-1.7811,-1.7779,-1.8499,-1.8235,-1.7507,-1.6709,-1.5051,-1.3121,-1.1339,-1.0165,-0.9239,-0.8193,-0.7912,-0.7658,-0.6752,-0.5795,-0.4978,-0.45,-0.3994,-0.3743,-0.4122,-0.3716,-0.3458,-0.3928,-0.3993,-0.4398,-0.5591,-0.5836,-0.5882,-0.5882,-0.4768,-0.2958,-0.0298,0.1605,0.2693,0.2716,0.2712,0.2712,0.2712,0.269,0.2696,0.2696,0.2706,0.2717,0.2717,0.0976,0.0069,0.0,0.0,0.0,0.0,0.0,0.0,-1.0549,0.0,-1.1385,-1.2894,-1.3554,-1.403,-1.4754,-1.4602,-1.4242,-1.4036,-1.3619,-1.3404,-1.3745,-1.4187,-1.4988,-1.6458,-1.701,-1.7404,-1.7931,-1.744,-1.6962,-1.6722,-1.6115,0.0,0.0,0.0,0.0,-1.7906,-1.7979,-1.8013,-1.8013,-1.8214,-1.9069,-2.0684,-2.0568,-2.0886,-2.1795,-2.143,-2.0811,-1.9943,-2.0555,-2.0862,-2.087,-2.1094,-2.0778,-2.0045,-1.959,-1.9162,-1.8761,-1.8785,-1.8838,-1.8918,-1.9211,-1.9473,-1.9656,-1.9667,-1.9428,-1.9046,-1.8771,-1.8562,-1.8444,-1.8467,-1.8274,-1.7803,-1.6543,-1.5109,-1.3549,-1.1825,-1.0175,-0.8797,-0.8077,-0.7321,-0.6573,-0.5876,-0.5075,-0.4355,-0.3773,-0.3649,-0.3539,-0.3243,-0.3246,-0.3523,-0.4274,-0.4183,-0.4526,-0.6037,-0.6297,-0.5991,-0.5143,-0.4415,-0.3134,-0.0833,0.1371,0.2696,0.2693,0.2686,0.2683,0.269,0.2696,0.27,0.2706,0.2713,0.2133,0.0922,0.0319,0.0,0.0,0.0,0.0,0.0,0.0,0.0,-1.1482,-1.1893,-1.2102,-1.3229,-1.3827,-1.4255,-1.4513,-1.3955,-1.3241,-1.2702,-1.2006,-1.1628,-1.1939,-1.2484,-1.3493,-1.537,-1.6001,-1.6513,-1.7279,-1.655,-1.5872,-1.5743,-1.4887,0.0,0.0,0.0,0.0,-1.7051,-1.7269,-1.7552,-1.7937,-1.8268,-1.9352,-2.1324,-2.1297,-2.1713,-2.266,-2.2293,-2.165,-2.0826,-2.1073,-2.124,-2.1321,-2.1188,-2.0604,-1.964,-1.8822,-1.8302,-1.799,-1.7844,-1.8125,-1.8683,-1.9192,-1.9645,-2.0,-2.006,-2.0115,-2.0106,-1.9632,-1.9287,-1.8989,-1.8629,-1.8186,-1.758,-1.6364,-1.5023,-1.3621,-1.2025,-1.0479,-0.9062,-0.8357,-0.7489,-0.6598,-0.5765,-0.5065,-0.4396,-0.3567,-0.3483,-0.338,-0.2911,-0.3134,-0.3608,-0.4258,-0.4654,-0.5275,-0.6328,-0.6639,-0.6251,-0.4973,-0.4237,-0.3061,-0.1101,0.0869,0.222,0.2663,0.2686,0.2686,0.2696,0.239,0.2359,0.268,0.2097,0.1175,0.0036,-0.0838,-0.1282,-0.1289,-0.0869,-0.0424,0.0,0.0,0.0,-1.1452,-1.2075,-1.2687,-1.3315,-1.395,-1.4283,-1.3769,-1.3248,-1.2453,-1.0964,-1.0263,-0.9873,0.0,0.0,-1.1192,-1.3407,-1.4257,-1.5152,-1.6531,-1.5674,-1.4888,0.0,0.0,0.0,0.0,0.0,0.0,-1.612,0.0,-1.7271,-1.8323,-1.8749,-1.9878,-2.2003,-2.2363,-2.285,-2.3498,-2.3474,-2.3078,-2.2343,-2.1526,-2.1211,-2.1306,-2.0708,-2.0037,-1.9258,-1.7793,-1.703,-1.6766,-1.6551,-1.6965,-1.785,-1.8922,-1.9532,-1.9831,-1.9936,-2.0012,-2.0103,-2.0254,-1.9939,-1.9416,-1.8994,-1.8048,-1.6929,-1.6166,-1.4832,-1.3323,-1.2025,-1.093,-0.9982,-0.903,-0.8316,-0.7558,-0.6422,-0.5669,-0.4961,-0.384,-0.3502,-0.331,-0.3086,-0.3368,-0.3751,-0.4029,-0.5425,-0.6518,-0.6518,-0.6841,-0.6644,-0.539,-0.4231,-0.2845,-0.1168,0.0133,0.1373,0.2596,0.2686,0.2686,0.2696,0.1878,0.1682,0.2346,0.0742,-0.0139,-0.011,-0.2354,-0.3532,-0.3612,-0.2443,-0.1286,-0.0179,-0.0045,0.0,-1.2711,-1.3002,-1.3037,-1.318,-1.3112,-1.2793,-1.1977,-1.0935,-0.9822,-0.8785,-0.8164,-0.7888,0.0,0.0,0.0,-1.2841,-1.3837,0.0,-1.5747,-1.5322,0.0,-1.4141,0.0,-1.378,-1.3946,-1.5095,0.0,0.0,-1.6834,-1.7496,-1.8212,-1.8898,-2.001,-2.1609,-2.1593,-2.2171,-2.3498,-2.3007,-2.2912,-2.3191,-2.3114,-2.3088,-2.3037,-2.2497,-2.1349,-1.9704,-1.7698,-1.6297,-1.5409,-1.5594,-1.6196,-1.708,-1.8112,-1.9134,-1.9988,-1.9665,-1.9756,-2.0059,-2.0236,-1.9815,-1.9096,-1.8435,-1.7573,-1.6578,-1.5272,-1.4273,-1.3415,-1.2507,-1.1254,-1.0138,-0.9865,-0.8545,-0.7168,-0.6855,-0.5669,-0.443,-0.373,-0.3488,-0.3429,-0.3586,-0.4019,-0.447,-0.4845,-0.5798,-0.6609,-0.6901,-0.702,-0.6734,-0.5768,-0.4388,-0.3179,-0.2326,-0.0366,0.1373,0.2596,0.2693,0.2693,0.2696,0.2466,0.1026,-0.1891,-0.2434,-0.2275,-0.1372,-0.1942,-0.2713,-0.3588,-0.3271,-0.2973,-0.2645,-0.0849,0.0,-1.344,-1.3585,-1.3433,-1.3187,-1.2523,-1.1641,-1.0576,-0.9309,-0.8107,-0.718,-0.6622,0.0,0.0,0.0,0.0,0.0,0.0,0.0,-1.4645,-1.4343,-1.3907,0.0,-1.3146,0.0,-1.361,-1.4364,-1.5259,0.0,-1.7052,-1.7838,-1.8671,-1.9457,-2.0581,-2.2083,-2.2361,-2.3033,-2.4198,-2.3617,-2.3512,-2.3848,-2.3592,-2.3267,-2.2919,-2.2901,-2.1683,-1.9497,0.0,-1.6055,-1.5052,-1.4715,-1.5181,-1.6164,-1.6917,-1.7744,-1.8469,-1.8434,-1.8644,-1.9049,-1.9774,-1.9652,-1.9077,-1.842,-1.7373,-1.6133,-1.5049,-1.41,-1.3264,-1.2437,-1.1568,-1.0799,-1.036,-0.9195,-0.7982,-0.7473,-0.6422,-0.5283,-0.4287,-0.4179,-0.433,-0.4663,-0.4928,-0.5269,-0.5705,-0.632,-0.6841,-0.7059,-0.7246,-0.7059,-0.622,-0.4872,-0.3639,-0.279,-0.0763,0.1101,0.256,0.2696,0.231,0.1451,0.1356,0.0107,-0.2707,-0.3328,-0.3289,-0.2594,-0.26,-0.2916,-0.3592,-0.3592,-0.3592,-0.3544,-0.2233,-0.1027,-1.371,-1.3756,-1.3576,-1.2958,-1.1917,-1.0653,-0.9258,-0.805,-0.6962,-0.6038,0.0,-0.5419,-0.5773,-0.6935,-0.8221,-0.9462,0.0,-1.2636,-1.3479,-1.3157,-1.2852,-1.2866,-1.2256,-1.2164,-1.3062,-1.3228,-1.4164,-1.6415,-1.722,-1.8127,-1.9282,-2.0076,-2.1238,-2.2912,-2.379,-2.4506,-2.5095,-2.4565,-2.4321,-2.4325,-2.3477,-2.2747,-2.2154,-2.2659,-2.1541,-1.9131,0.0,0.0,-1.4877,-1.3835,-1.4101,-1.516,-1.5658,-1.6117,-1.6561,-1.7027,-1.7375,-1.7792,-1.9188,-1.9526,-1.9251,-1.8676,-1.739,-1.5945,-1.5286,-1.4274,-1.3173,-1.2306,-1.1945,-1.159,-1.0736,-0.9991,-0.9262,-0.8253,-0.7556,-0.6729,-0.5406,-0.5348,-0.5666,-0.5957,-0.5996,-0.6114,-0.6518,-0.688,-0.7109,-0.7178,-0.753,-0.75,-0.6669,-0.5473,-0.421,-0.2925,-0.1194,0.0532,0.2183,0.2579,0.1832,-0.018,-0.0619,-0.1198,-0.2004,-0.3047,-0.3614,-0.3608,-0.3612,-0.3588,-0.3581,-0.3581,-0.3581,-0.3581,-0.3581,-0.2499,-1.3128,-1.302,-1.2508,-1.1527,-1.0682,-0.9506,-0.745,-0.6646,0.0,0.0,-0.492,-0.4977,-0.5484,-0.6312,-0.7476,-0.9185,0.0,0.0,0.0,0.0,-1.1997,0.0,0.0,0.0,0.0,0.0,0.0,0.0,0.0,0.0,-1.8943,-1.9825,-2.1217,-2.3154,-2.4321,-2.4974,-2.51,-2.4245,-2.4042,-2.4458,-2.3822,-2.3464,-2.338,-2.2985,-2.1723,-1.9703,0.0,0.0,-1.3155,-1.3042,-1.3465,-1.4195,-1.4775,-1.5846,-1.7083,-1.7234,-1.7382,-1.7694,-1.9013,-1.9492,-1.9442,-1.8738,-1.7778,-1.6718,-1.5786,-1.4898,-1.4114,-1.3663,-1.2719,-1.1774,-1.159,-1.0514,-0.9439,-0.9262,-0.8423,-0.7583,-0.7328,-0.7131,-0.6926,-0.6636,-0.6723,-0.6882,-0.6984,-0.705,-0.7207,-0.7539,-0.7947,-0.7898,-0.7109,-0.5891,-0.4644,-0.3473,-0.1793,-0.04,0.0401,0.1824,0.1805,-0.0253,-0.2043,-0.3099,-0.3279,-0.3499,-0.3612,-0.3585,-0.3588,-0.3602,-0.3581,-0.3581,-0.3581,-0.3581,-0.3581,-0.3398,-1.2693,-1.2389,-1.1843,-1.1052,-0.9777,-0.8271,-0.6674,0.0,0.0,0.0,-0.4407,-0.4573,-0.4825,0.0,0.0,0.0,0.0,0.0,0.0,0.0,0.0,0.0,0.0,0.0,0.0,0.0,0.0,0.0,0.0,0.0,-1.9244,-2.0654,-2.2125,-2.3606,-2.4739,-2.5079,-2.4587,-2.3258,-2.2678,-2.2847,-2.2082,-2.1806,-2.1941,-2.2487,-2.1569,-1.9396,0.0,0.0,-1.3258,-1.2567,-1.2847,-1.375,-1.4283,-1.4979,-1.5776,-1.6432,-1.6533,-1.6553,-1.8235,-1.9031,-1.924,-1.8963,-1.8138,-1.7146,-1.6559,-1.5725,-1.4887,-1.4477,-1.3572,-1.2551,-1.181,-1.0726,-0.9737,-0.9191,-0.8659,-0.835,-0.8569,-0.8376,-0.799,-0.7555,-0.7809,-0.8005,-0.7797,-0.7941,-0.808,-0.8065,-0.8379,-0.8238,-0.7235,-0.634,-0.5232,-0.3662,-0.2236,-0.1008,-0.007,0.066,0.0687,-0.0273,-0.2407,-0.3588,-0.3605,-0.3609,-0.3601,-0.3578,-0.3581,-0.3581,-0.3581,-0.3581,-0.3581,-0.3581,-0.3581,-0.3581,-1.1915,-1.1519,-1.0967,-1.0365,-0.8875,-0.7245,-0.609,-0.5083,0.0,0.0,-0.4109,-0.4322,-0.4365,0.0,-0.6403,0.0,0.0,0.0,0.0,0.0,0.0,0.0,0.0,0.0,0.0,0.0,0.0,0.0,0.0,0.0,0.0,-2.13,-2.2664,-2.3557,-2.4475,-2.4226,-2.272,-2.1239,-2.0448,-2.0357,-1.9588,-1.9642,-2.0499,-2.1738,-2.0994,-1.8592,0.0,0.0,0.0,-1.2025,-1.2247,-1.3382,-1.3985,-1.4349,-1.4668,-1.5836,-1.5869,-1.5595,-1.7527,-1.8482,-1.8895,-1.9093,-1.8521,-1.7693,-1.7412,-1.6677,-1.5825,-1.5364,-1.4477,-1.3389,-1.2126,-1.1019,-0.9982,-0.9213,-0.9102,-0.9332,-0.9817,-0.9658,-0.9327,-0.891,-0.9087,-0.9173,-0.8746,-0.8746,-0.8723,-0.8437,-0.8601,-0.8388,-0.7502,-0.7049,-0.6145,-0.4416,-0.2933,-0.1627,-0.0551,-0.0617,-0.0804,-0.0999,-0.2621,-0.3595,-0.3619,-0.3581,-0.3581,-0.3581,-0.3581,-0.3581,-0.3581,-0.3581,-0.3581,-0.3581,-0.3581,-0.3581,-1.0288,-0.9992,-0.9385,-0.8543,-0.7707,-0.6677,-0.5245,0.0,0.0,-0.3959,-0.4109,-0.4377,-0.4622,-0.5175,-0.5767,-0.6209,-0.6947,-0.7983,0.0,0.0,0.0,0.0,0.0,0.0,0.0,0.0,0.0,0.0,0.0,0.0,0.0,-2.0749,-2.1666,-2.2255,-2.2912,-2.1615,-1.8232,-1.7379,-1.7084,-1.7289,-1.6848,-1.8172,-2.1034,-2.1042,-1.9727,-1.7265,0.0,0.0,0.0,-1.1157,-1.1682,-1.2864,-1.3883,-1.4699,-1.5429,-1.6371,-1.6323,-1.5936,-1.7276,-1.8052,-1.8519,-1.8895,-1.8948,-1.8753,-1.8188,-1.7637,-1.7154,-1.679,-1.5382,-1.3829,-1.3258,-1.1674,-1.0176,-1.0099,-1.0417,-1.0933,-1.1457,-1.1546,-1.1406,-1.0908,-1.0519,-1.0127,-0.9665,-0.8853,-0.8307,-0.8374,-0.8277,-0.8216,-0.8279,-0.8178,-0.772,-0.671,-0.4378,-0.2616,-0.1969,-0.178,-0.2125,-0.3239,-0.349,-0.3612,-0.3581,-0.3581,-0.3581,-0.3581,-0.3581,-0.3581,-0.3581,-0.3581,-0.3581,-0.3581,-0.3581,-0.3581,-0.8954,-0.8762,-0.8367,-0.7826,-0.6819,-0.5719,-0.478,0.0,-0.3767,-0.3486,-0.3883,-0.4333,-0.4446,-0.503,-0.5621,-0.6004,-0.6377,-0.7089,-0.8402,0.0,0.0,0.0,0.0,0.0,0.0,0.0,0.0,0.0,0.0,0.0,0.0,-2.0771,-2.1736,-2.1738,-2.2602,-2.0087,-1.3877,-1.3597,-1.2964,-1.197,-1.2279,-1.5017,-1.9778,-1.9502,-1.8261,-1.6191,0.0,0.0,0.0,-1.0479,-1.1347,-1.2838,-1.4418,-1.5364,-1.5987,-1.6879,-1.6853,-1.6441,-1.7148,-1.7881,-1.8571,-1.8896,-1.915,-1.9274,-1.8789,-1.8089,-1.7428,-1.7248,-1.6225,-1.4781,-1.2886,-1.0643,-0.9097,-0.9945,-1.0339,-1.0791,-1.1757,-1.2083,-1.192,-1.1062,-1.1296,-1.1386,-1.0686,-0.9984,-0.9461,-0.9227,-0.8847,-0.8428,-0.8048,-0.8174,-0.7866,-0.6779,-0.4872,-0.3416,-0.2866,-0.2878,-0.3095,-0.3583,-0.3595,-0.3581,-0.3581,-0.3581,-0.3581,-0.3581,-0.3581,-0.3581,-0.3581,-0.3581,-0.3581,-0.3581,-0.3581,-0.3581,-0.7773,-0.7617,-0.7299,-0.6995,-0.6003,-0.5026,0.0,-0.3945,-0.3465,-0.3359,-0.3855,-0.4333,-0.4406,-0.501,-0.5568,-0.5745,-0.616,-0.6755,-0.7634,-0.7926,0.0,0.0,0.0,0.0,0.0,0.0,0.0,0.0,0.0,0.0,0.0,-1.9688,-2.104,-2.1312,-2.1001,-1.7422,-1.0296,-0.9328,-0.8572,-0.7968,-0.8827,-1.249,-1.8568,-1.8215,-1.693,0.0,0.0,0.0,0.0,-1.0012,-1.1103,-1.2772,-1.4892,-1.6028,-1.6581,-1.7369,-1.7361,-1.7028,-1.7252,-1.786,-1.8572,-1.8947,-1.9305,-1.9541,-1.9261,-1.8515,-1.776,-1.7704,-1.6579,-1.4812,-1.2206,-1.0151,-0.8993,-0.986,-1.0376,-1.0939,-1.1976,-1.2392,-1.2354,-1.167,-1.1907,-1.201,-1.1387,-1.0699,-1.005,-0.954,-0.9004,-0.852,-0.8125,-0.834,-0.817,-0.7264,-0.5803,-0.4573,-0.3716,-0.359,-0.3667,-0.384,-0.3836,-0.3924,-0.41,-0.3924,-0.3836,-0.3836,-0.3667,-0.3581,-0.3581,-0.3581,-0.3581,-0.3581,-0.3581,-0.3581,-0.6804,-0.6587,-0.6129,-0.5798,-0.526,-0.4741,0.0,-0.3943,-0.3588,-0.3851,-0.4109,-0.4386,-0.4646,-0.5127,-0.5492,-0.5511,-0.6394,-0.716,-0.7389,-0.809,0.0,0.0,0.0,0.0,0.0,0.0,0.0,0.0,0.0,0.0,0.0,0.0,-1.9193,-2.0849,-1.7388,-1.2999,-0.7778,-0.4377,-0.3864,-0.6244,-0.7187,-1.1197,-1.7792,-1.7398,0.0,0.0,0.0,0.0,0.0,-0.9702,-1.0941,-1.2487,-1.5165,-1.6595,-1.7256,-1.7798,-1.7869,-1.7693,-1.7693,-1.7959,-1.8395,-1.9002,-1.9387,-1.9614,-1.9601,-1.9018,-1.8392,-1.8392,-1.6272,-1.3529,-1.1436,-1.0748,-1.047,-1.0089,-1.0857,-1.1822,-1.2289,-1.2664,-1.2974,-1.3231,-1.2485,-1.177,-1.1706,-1.0626,-0.9606,-0.8984,-0.8446,-0.8316,-0.8902,-0.8994,-0.8926,-0.8705,-0.7609,-0.6211,-0.4509,-0.3921,-0.384,-0.4347,-0.4387,-0.4648,-0.526,-0.4696,-0.4387,-0.4387,-0.388,-0.3581,-0.3581,-0.3581,-0.3581,-0.3581,-0.3581,-0.3581,-0.5465,-0.5515,-0.5517,-0.5159,-0.4655,-0.4178,-0.3848,-0.3489,-0.3255,-0.3342,-0.3855,-0.4333,-0.4406,-0.4873,-0.5392,-0.5889,-0.647,-0.6951,0.0,0.0,0.0,0.0,0.0,0.0,0.0,0.0,0.0,0.0,0.0,0.0,0.0,0.0,-1.7654,-1.9599,-1.6879,-1.2162,-0.5382,-0.2727,-0.1651,-0.2122,-0.3928,-0.8159,-1.4347,-1.3816,0.0,0.0,0.0,0.0,0.0,-0.8853,-1.0386,-1.192,-1.4665,-1.6403,-1.7449,-1.7695,-1.8103,-1.8478,-1.8211,-1.8449,-1.8877,-1.8605,-1.8752,-1.892,-1.8237,-1.7798,-1.7318,-1.646,-1.4452,-1.2528,-1.232,-1.1237,-1.0334,-1.1015,-1.1436,-1.183,-1.2416,-1.3084,-1.3421,-1.2917,-1.3044,-1.309,-1.2595,-1.1499,-1.0681,-1.0684,-0.9522,-0.8837,-0.9394,-0.9457,-0.9096,-0.8318,-0.7444,-0.6487,-0.5512,-0.4284,-0.3888,-0.4543,-0.4487,-0.4652,-0.5265,-0.4739,-0.4387,-0.4387,-0.388,-0.3581,-0.3581,-0.3581,-0.3581,-0.3581,-0.3581,-0.3581,-0.466,-0.4808,-0.4903,-0.4688,-0.4229,-0.3797,-0.3706,-0.339,-0.3153,-0.3366,-0.38,-0.4211,-0.4406,-0.4805,-0.5323,-0.5989,-0.6321,-0.6727,0.0,0.0,0.0,0.0,0.0,0.0,0.0,0.0,0.0,0.0,0.0,0.0,0.0,0.0,-1.6775,-1.8962,-1.5427,-1.0791,-0.5236,-0.1217,0.0386,-0.0318,-0.1976,-0.5652,-1.0942,0.0,0.0,0.0,0.0,0.0,0.0,-0.8206,-0.9744,-1.1165,-1.4101,-1.6004,-1.7193,-1.7767,-1.8455,-1.9091,-1.88,-1.8812,-1.8846,-1.8528,-1.834,-1.8042,-1.6991,-1.6615,-1.6313,-1.5058,-1.3614,-1.2508,-1.2799,-1.189,-1.1055,-1.1637,-1.1952,-1.2171,-1.2366,-1.2938,-1.3242,-1.2709,-1.2969,-1.3091,-1.2551,-1.1738,-1.1188,-1.1213,-1.0173,-0.9587,-1.0156,-1.0054,-0.9631,-0.8911,-0.7895,-0.6739,-0.5556,-0.4316,-0.3796,-0.4272,-0.457,-0.5,-0.561,-0.526,-0.4957,-0.4735,-0.418,-0.3792,-0.3581,-0.3581,-0.3581,-0.3581,-0.3581,-0.3609,0.0,-0.4326,-0.4342,-0.4342,-0.393,-0.359,-0.3887,-0.3542,0.0,-0.3765,-0.3911,-0.4097,-0.4622,-0.4932,-0.529,-0.584,-0.6137,0.0,0.0,0.0,0.0,0.0,0.0,0.0,0.0,0.0,0.0,0.0,0.0,0.0,0.0,0.0,0.0,-1.8836,-1.3318,-0.921,-0.6912,-0.0044,0.2111,-0.0395,-0.1125,-0.3579,-0.7467,0.0,0.0,0.0,0.0,0.0,0.0,-0.7825,-0.9094,-1.0301,-1.3515,-1.5452,-1.6583,-1.7907,-1.8846,-1.945,-1.9388,-1.8951,-1.8453,-1.8583,-1.7938,-1.691,-1.5814,-1.5564,-1.5416,-1.4207,-1.3601,-1.3227,-1.2939,-1.2675,-1.2402,-1.2085,-1.2461,-1.2711,-1.2226,-1.2404,-1.261,-1.2572,-1.2392,-1.2133,-1.1785,-1.1483,-1.1188,-1.0826,-1.0477,-1.0461,-1.1024,-1.0707,-1.0355,-1.0176,-0.8762,-0.7045,-0.5032,-0.4109,-0.366,-0.3683,-0.4644,-0.5524,-0.6184,-0.6136,-0.5873,-0.5389,-0.4739,-0.4136,-0.3581,-0.3581,-0.3581,-0.3581,-0.3581,-0.3656,-0.3737,0.0,-0.3712,-0.3712,-0.3614,-0.3518,0.0,-0.3509,-0.3436,-0.3563,-0.3931,-0.4354,-0.485,-0.5016,-0.5352,-0.6154,-0.6793,0.0,0.0,0.0,0.0,0.0,0.0,0.0,0.0,0.0,0.0,0.0,0.0,0.0,0.0,0.0,0.0,-1.8912,-1.3357,-0.9432,-0.7602,-0.1059,0.1663,0.0554,0.0,-0.1319,-0.3156,0.0,0.0,0.0,0.0,0.0,-0.569,-0.7654,-0.9094,-1.0273,-1.3252,-1.4894,-1.5814,-1.7702,-1.8605,-1.8891,-1.8999,-1.8881,-1.8515,-1.7288,-1.6139,-1.5136,-1.4545,-1.4783,-1.5035,-1.3961,-1.3491,-1.3312,-1.3392,-1.334,-1.3225,-1.3209,-1.3309,-1.3227,-1.2619,-1.2706,-1.2778,-1.2372,-1.2412,-1.2416,-1.2133,-1.1644,-1.1352,-1.1508,-1.1045,-1.0755,-1.0992,-1.0925,-1.0555,-0.9737,-0.8899,-0.7896,-0.6554,-0.5072,-0.4268,-0.4412,-0.453,-0.5087,-0.6136,-0.5744,-0.5653,-0.5964,-0.4957,-0.4136,-0.3581,-0.3581,-0.3581,-0.3581,-0.3581,-0.3708,-0.3689,-0.3689,-0.3647,-0.3527,-0.3506,-0.3506,-0.3506,-0.3506,-0.3506,-0.3506,0.0,-0.4226,-0.4611,-0.4981,-0.547,-0.6181,-0.6794,0.0,0.0,0.0,0.0,0.0,0.0,0.0,0.0,0.0,0.0,0.0,0.0,0.0,0.0,0.0,0.0,0.0,-1.1882,-0.8648,-0.7584,-0.1055,0.2297,0.2526,0.2461,0.2101,0.1408,0.0558,0.0,0.0,0.0,0.0,-0.4635,-0.6581,-0.7883,-0.8911,-1.1931,-1.3558,-1.4413,-1.6619,-1.773,-1.8125,-1.8332,-1.8021,-1.734,-1.6053,-1.5047,-1.4311,-1.4,-1.4136,-1.4276,-1.3642,-1.3443,-1.349,-1.376,-1.3828,-1.3828,-1.3828,-1.3777,-1.352,-1.2748,-1.2594,-1.2423,-1.1888,-1.1894,-1.1921,-1.1645,-1.1312,-1.1118,-1.1283,-1.1009,-1.0847,-1.1031,-1.1031,-1.0791,-1.0244,-0.9473,-0.8666,-0.7811,-0.6428,-0.5341,-0.4727,-0.4491,-0.4691,-0.5351,-0.561,-0.5873,-0.6179,-0.5,-0.426,-0.3965,-0.3707,-0.3581,-0.3581,-0.3604,-0.3718,-0.3848,-0.3931,-0.389,-0.3584,-0.3457,-0.3421,-0.3393,-0.3421,-0.3442,0.0,0.0,0.0,-0.4348,-0.485,0.0,0.0,0.0,0.0,0.0,0.0,0.0,0.0,0.0,0.0,0.0,0.0,0.0,0.0,0.0,0.0,0.0,0.0,0.0,0.0,-0.8977,-0.6588,-0.598,0.0042,0.3608,0.4672,0.5302,0.5566,0.548,0.4367,0.0,0.0,0.0,0.0,-0.3677,-0.5208,-0.6317,-0.7351,-1.0252,-1.1848,-1.2853,-1.5332,-1.6621,-1.7187,-1.7479,-1.684,-1.5748,-1.4999,-1.4423,-1.3953,-1.3782,-1.3641,-1.3506,-1.3361,-1.3489,-1.3763,-1.4054,-1.421,-1.4246,-1.4136,-1.3966,-1.3611,-1.2785,-1.2293,-1.1891,-1.1408,-1.1259,-1.1167,-1.0859,-1.0722,-1.0603,-1.0516,-1.0618,-1.0755,-1.0854,-1.0944,-1.0981,-1.0905,-1.0137,-0.9372,-0.8802,-0.7837,-0.6609,-0.5154,-0.4661,-0.4387,-0.4387,-0.5567,-0.6136,-0.605,-0.513,-0.4565,-0.4387,-0.3965,-0.3667,-0.3585,-0.3595,-0.3694,-0.3952,-0.4068,-0.4122,-0.3626,-0.3338,-0.3111,-0.2875,-0.3004,-0.3153,0.0,0.0,0.0,0.0,0.0,0.0,0.0,0.0,0.0,0.0,0.0,0.0,0.0,0.0,0.0,0.0,0.0,0.0,0.0,0.0,0.0,0.0,0.0,0.0,0.0,0.0,-0.1728,-0.0039,0.3175,0.5147,0.5848,0.6839,0.7297,0.7242,0.6121,0.4693,0.0,0.0,-0.1574,-0.3959,-0.4398,-0.5671,-0.7502,-0.918,-1.0534,-1.1899,-1.4879,-1.5956,-1.6016,-1.6463,-1.5836,-1.4803,-1.4677,-1.4108,-1.3489,-1.3392,-1.3361,-1.3344,-1.3385,-1.3701,-1.4067,-1.4301,-1.4493,-1.4526,-1.4168,-1.3817,-1.3388,-1.2748,-1.2153,-1.1679,-1.1349,-1.1127,-1.0845,-1.0467,-1.0145,-0.9877,-0.9643,-1.0029,-1.0234,-0.9884,-1.0514,-1.0829,-1.0467,-1.0283,-0.9952,-0.9421,-0.873,-0.787,-0.6735,-0.5245,-0.4387,-0.4387,-0.5567,-0.5959,-0.5437,-0.5744,-0.5437,-0.4387,-0.4303,-0.4049,-0.3585,-0.3605,-0.3755,-0.3879,-0.3824,-0.3641,-0.3129,-0.2911,-0.2713,-0.2311,-0.2107,-0.2029,0.0,0.0,0.0,0.0,0.0,0.0,0.0,0.0,0.0,0.0,0.0,0.0,0.0,0.0,0.0,0.0,0.0,0.0,0.0,0.0,0.0,0.0,0.0,0.0,0.0,0.0,0.0997,0.391,0.6021,0.7331,0.7843,0.8646,0.9169,0.9366,0.7834,0.611,0.4129,0.0,-0.0436,-0.2399,-0.3142,-0.3991,-0.511,-0.7572,-0.904,-1.016,-1.3682,-1.5168,-1.5459,-1.5554,-1.5054,-1.4373,-1.4337,-1.3904,-1.3424,-1.3534,-1.3565,-1.3639,-1.3956,-1.4144,-1.4294,-1.4478,-1.4529,-1.4464,-1.4168,-1.3754,-1.3194,-1.2489,-1.1891,-1.135,-1.0912,-1.0421,-1.0034,-0.9842,-0.9506,-0.9151,-0.884,-0.9432,-0.9761,-0.9338,-1.0049,-1.0544,-1.0322,-1.0283,-1.0205,-0.9961,-0.9412,-0.8245,-0.6216,-0.5029,-0.4387,-0.4387,-0.526,-0.5744,-0.5787,-0.605,-0.5916,-0.5389,-0.4739,-0.4264,-0.4012,-0.3866,-0.3575,-0.3801,-0.3549,-0.3076,-0.2624,-0.2499,-0.2351,-0.1736,-0.1285,-0.1004,0.0,0.0,0.0,0.0,0.0,0.0,0.0,0.0,0.0,0.0,0.0,0.0,0.0,0.0,0.0,0.0,0.0,0.0,0.0,0.0,0.0,0.0,0.0,0.0,0.0,0.0,0.0,0.676,0.8145,0.9009,0.9319,1.0022,1.0534,1.0833,0.9159,0.7384,0.5441,0.3169,0.1207,-0.0457,-0.116,-0.1677,-0.2294,-0.517,-0.7375,-0.9356,-1.2889,-1.4568,-1.5038,-1.481,-1.4429,-1.4059,-1.4087,-1.3731,-1.3379,-1.3756,-1.3845,-1.3913,-1.4453,-1.4526,-1.4482,-1.4632,-1.4513,-1.4306,-1.4145,-1.3626,-1.2983,-1.2272,-1.1681,-1.1075,-1.0396,-0.9791,-0.9343,-0.9155,-0.8883,-0.8578,-0.8195,-0.889,-0.9332,-0.9038,-0.9756,-1.0283,-1.0283,-1.0283,-1.0283,-1.0283,-0.9804,-0.8464,-0.6035,-0.5067,-0.4561,-0.4391,-0.4826,-0.5389,-0.5964,-0.6136,-0.6184,-0.6179,-0.513,-0.4522,-0.4399,-0.4075,-0.3577,-0.3794,-0.3377,-0.2734,-0.2332,-0.222,-0.2001,-0.1158,-0.0847,-0.0731,-0.0731,0.0,0.0,0.0,0.0,0.0,0.0,0.0,0.0,0.0,0.0,0.0,0.0,0.0,0.0,0.0,0.0,0.0,0.0,0.0,0.0,0.0,0.0,0.0,0.0,0.0,0.0,0.8499,0.9007,0.9271,0.9298,1.0287,1.0778,1.0774,0.9831,0.8507,0.6888,0.5368,0.3356,0.1196,0.1931,0.1341,-0.0135,-0.1499,-0.553,-1.0828,-1.3282,-1.4442,-1.4683,-1.4286,-1.393,-1.3693,-1.3989,-1.3624,-1.3173,-1.3941,-1.3993,-1.391,-1.4453,-1.46,-1.4626,-1.4832,-1.4548,-1.4205,-1.4135,-1.3453,-1.2696,-1.2207,-1.1631,-1.0952,-1.0021,-0.9597,-0.9182,-0.8505,-0.8336,-0.8205,-0.7812,-0.8489,-0.9038,-0.9004,-0.9756,-1.0283,-1.0283,-1.0283,-1.0283,-1.0283,-0.9804,-0.8964,-0.7706,-0.612,-0.4986,-0.443,-0.443,-0.4735,-0.5351,-0.5916,-0.6184,-0.6184,-0.5567,-0.4957,-0.4399,-0.4075,-0.3889,-0.3488,-0.3175,-0.2503,-0.1813,-0.1303,-0.0853,-0.0429,0.0481,0.1132,0.0807,0.0772,0.0,0.0,0.0,0.0,0.0,0.0,0.0,0.0,0.0,0.0,0.0,0.0,0.0,0.0,0.0,0.0,0.0,0.0,0.0,0.0,0.0,0.0,0.0,0.0,0.842,0.9138,0.9285,0.9459,0.9689,1.0431,1.0767,1.0704,0.9658,0.8386,0.6915,0.5663,0.4296,0.2943,0.3493,0.3366,0.2377,-0.1861,-0.6467,-1.0938,-1.2916,-1.3849,-1.4011,-1.3194,-1.2755,-1.2659,-1.3362,-1.3326,-1.32,-1.4297,-1.4394,-1.4203,-1.4615,-1.4301,-1.3937,-1.4268,-1.3892,-1.3387,-1.3104,-1.2433,-1.177,-1.1424,-1.1069,-1.0647,-1.0084,-0.9307,-0.8638,-0.8359,-0.7673,-0.7299,-0.7636,-0.822,-0.8816,-0.932,-0.9912,-1.0283,-1.0283,-1.0283,-1.0283,-1.0283,-1.0118,-0.9509,-0.844,-0.7099,-0.5754,-0.4474,-0.4783,-0.4913,-0.4735,-0.5346,-0.583,-0.6179,-0.5216,-0.4847,-0.5069,-0.4308,-0.403,-0.2985,-0.2657,-0.193,-0.1103,-0.0215,0.0522,0.0778,0.1774,0.2548,0.2086,0.2186,0.2034,0.0,0.0,0.0,0.0,0.0,0.0,0.0,0.0,0.0,0.0,0.0,0.0,0.0,0.0,0.0,0.0,0.0,0.0,0.0,0.0,0.0,0.0,0.0,0.0,0.9687,0.9803,0.9995,1.0211,1.0523,1.0571,1.0403,0.9402,0.8332,0.7253,0.6372,0.558,0.4889,0.5252,0.5248,0.4488,-0.0623,-0.4779,-0.8371,-1.2452,-1.3749,-1.3298,-1.2351,-1.1918,-1.1915,-1.2556,-1.3067,-1.3562,-1.4211,-1.4139,-1.3847,-1.3872,-1.3386,-1.2874,-1.3042,-1.2973,-1.2792,-1.2586,-1.2049,-1.143,-1.0982,-1.0789,-1.0483,-0.9798,-0.8995,-0.8345,-0.8061,-0.7317,-0.7022,-0.7747,-0.8234,-0.8801,-0.9517,-1.001,-1.0283,-1.0283,-1.0283,-1.0283,-1.0283,-1.0283,-0.9843,-0.8756,-0.7957,-0.6687,-0.4778,-0.4913,-0.4826,-0.4391,-0.4826,-0.5308,-0.5916,-0.4913,-0.471,-0.5232,-0.4383,-0.4053,-0.2329,-0.1753,-0.0926,-0.017,0.0,0.0,0.2511,0.2977,0.3229,0.2958,0.2528,0.2312,0.2639,0.0,0.0,0.0,0.0,0.0,0.0,0.0,0.0,0.0,0.0,0.0,0.0,0.0,0.0,0.0,0.0,0.0,0.0,0.0,0.0,0.0,0.0,0.0,1.0307,1.0702,1.0897,1.0897,1.0581,1.0235,0.988,0.9143,0.8601,0.8206,0.7868,0.7472,0.7075,0.7463,0.7118,0.6051,0.308,0.0427,-0.2852,-1.1909,-1.4111,-1.2471,-1.1744,-1.1481,-1.1465,-1.1493,-1.2756,-1.4154,-1.3426,-1.3055,-1.2743,-1.2071,-1.1734,-1.1493,-1.1178,-1.177,-1.2505,-1.2728,-1.2416,-1.187,-1.1069,-1.0875,-1.0446,-0.8989,-0.8698,-0.8399,-0.7567,-0.7396,-0.7567,-0.8096,-0.8522,-0.8995,-0.9529,-1.002,-1.0283,-1.0283,-1.0283,-1.0283,-1.0283,-1.0283,-0.9843,-0.8756,-0.8716,-0.766,-0.5389,-0.4739,-0.4391,-0.4387,-0.4387,-0.4696,-0.5303,-0.4696,-0.4491,-0.4684,-0.424,-0.406,-0.2008,-0.1488,0.0,0.073,0.0,0.0,0.0,0.44,0.0,0.0,0.39,0.3652,0.0,0.0,0.0,0.0,0.0,0.0,0.0,0.0,0.0,0.0,0.0,0.0,0.0,0.0,0.0,0.0,0.0,0.0,0.0,0.0,0.0,0.0,0.0,0.0,1.101,1.1269,1.1328,1.119,1.1224,1.1033,1.057,1.0033,0.9843,0.9955,0.9766,0.9604,0.9491,0.9888,0.9609,0.8615,0.5764,0.3392,0.1105,-0.2786,-0.4154,-0.3934,-0.3041,-0.2458,-0.2211,-0.2867,-0.4677,-0.6716,-0.7334,-0.9416,-1.1433,-1.0881,-1.0277,-0.9878,-1.0066,-1.0054,-1.0193,-1.1045,-1.0709,-1.0122,-0.9894,-0.9591,-0.9244,-0.8789,-0.8198,-0.7717,-0.7432,-0.6915,-0.6804,-0.7544,-0.7738,-0.8243,-0.9378,-0.9963,-1.0283,-1.0283,-1.0283,-1.0283,-1.0283,-1.0283,-0.9843,-0.8756,-0.8716,-0.766,-0.5389,-0.513,-0.4657,-0.3836,-0.3836,-0.4092,-0.4652,-0.4209,-0.4268,-0.4828,-0.4361,-0.426,-0.1102,-0.0638,0.0,0.1757,0.2969,0.4196,0.5722,0.0,0.0,0.0,0.0,0.0,0.0,0.0,0.0,0.0,0.0,0.0,0.0,0.0,0.0,0.0,0.0,0.0,0.0,0.0,0.0,0.0,0.0,0.0,0.0,0.0,0.0,0.0,0.0,0.0,1.1822,1.1938,1.1938,1.1822,1.1797,1.1755,1.1679,1.0911,1.0717,1.097,1.0807,1.0869,1.1096,1.1574,1.1458,1.0848,0.976,0.8463,0.7081,0.6078,0.5314,0.4846,0.5416,0.5842,0.6128,0.6037,0.4831,0.28,-0.0578,-0.378,-0.6446,-0.7224,-0.7702,-0.8009,-0.8006,-0.7939,-0.8255,-0.9746,-0.9754,-0.9338,-0.9167,-0.8906,-0.8635,-0.8439,-0.7941,-0.7509,-0.7263,-0.6844,-0.6756,-0.7487,-0.7787,-0.8293,-0.9363,-0.9804,-1.004,-1.0283,-1.0283,-1.0283,-1.0283,-1.0283,-0.9843,-0.8756,-0.8716,-0.766,-0.5389,-0.5303,-0.4748,-0.3622,-0.3636,-0.384,-0.4145,-0.3994,-0.4154,-0.4618,-0.431,-0.4324,0.0111,0.0537,0.0,0.2816,0.436,0.0,0.7282,0.6625,0.5663,0.0,0.0,0.0,0.0,0.0,0.0,0.0,0.0,0.0,0.0,0.0,0.0,0.0,0.0,0.0,0.0,0.0,0.0,0.0,0.0,0.0,0.0,0.0,0.0,0.0,0.0,0.0,1.263,1.2689,1.2689,0.0,1.2376,1.2517,1.2988,1.18,1.137,1.1592,1.144,1.1657,1.2151,1.2698,1.2805,1.2784,1.415,1.4285,1.3681,1.3664,1.3237,1.2679,1.265,1.268,1.2906,1.4004,1.401,1.2448,0.6307,0.2823,0.0492,-0.2145,-0.4408,-0.5942,-0.5449,-0.5707,-0.6592,-0.854,-0.9063,-0.8979,-0.8618,-0.8464,-0.8259,-0.7739,-0.7655,-0.7489,-0.7021,-0.6937,-0.7154,-0.7746,-0.8275,-0.8797,-0.9279,-0.9439,-0.9686,-1.0166,-1.0283,-1.0283,-1.0283,-1.0283,-0.9843,-0.8756,-0.8708,-0.7704,-0.542,-0.5338,-0.4776,-0.3643,-0.3741,-0.3812,-0.3816,-0.3968,-0.4063,-0.4197,-0.421,-0.4338,0.0273,0.125,0.0,0.0,0.5637,0.7111,0.6827,0.6993,0.0,0.0,0.0,0.0,0.0,0.0,0.0,0.0,0.0,0.0,0.0,0.0,0.0,0.0,0.0,0.0,0.0,0.0,0.0,0.0,0.0,0.0,0.0,0.0,0.0,0.0,0.0,1.3376,1.2826,1.3359,1.3359,0.0,1.331,1.3654,1.3892,1.2889,1.2696,1.3143,1.3359,1.3523,1.3645,1.3782,1.411,1.4526,1.4657,1.4542,1.4299,1.4184,1.3757,1.3213,1.3109,1.3391,1.38,1.3909,1.3735,1.3086,1.0702,0.6235,0.1757,0.056,-0.1817,-0.4054,-0.4141,-0.4371,-0.4828,-0.5809,-0.642,-0.6906,-0.728,-0.6651,-0.5979,-0.5905,-0.5862,-0.5947,-0.6307,-0.6349,-0.6562,-0.7112,-0.7697,-0.8118,-0.8242,-0.8999,-0.9558,-0.9677,-1.004,-1.0283,-1.0283,-1.0283,-0.9843,-0.8756,-0.8898,-0.7947,-0.5566,-0.5434,-0.4892,-0.3615,-0.3849,-0.4028,-0.4136,-0.4131,-0.4164,-0.42,-0.4365,-0.4433,0.106,0.0,0.0,0.5148,0.0,0.7676,0.7627,0.7647,0.0,0.0,0.0,0.0,0.0,0.0,0.0,0.0,0.0,0.0,0.0,0.0,0.0,0.0,0.0,0.0,0.0,0.0,0.0,0.0,0.0,0.0,0.0,0.0,0.0,0.0,1.3856,1.3733,1.3375,1.3786,1.3786,1.3375,1.3867,1.4204,1.4366,1.3823,1.3697,1.3931,1.4125,1.4246,1.4334,1.4338,1.4644,1.508,1.4975,1.4939,1.4918,1.4849,1.4526,1.4117,1.4044,1.4091,1.4153,1.3879,1.3566,1.3041,1.1571,0.8341,0.4859,0.3296,0.1042,-0.1067,-0.1789,-0.2354,-0.2992,-0.4101,-0.507,-0.5797,-0.6101,-0.5728,-0.5303,-0.5303,-0.5303,-0.5394,-0.5701,-0.6007,-0.6307,-0.6562,-0.7112,-0.7572,-0.787,-0.8398,-0.8837,-0.9079,-0.9597,-0.9922,-0.9922,-1.0157,-0.9879,-0.8965,-0.9019,-0.8261,-0.6363,-0.5995,-0.5185,-0.3768,-0.3956,-0.4138,-0.4199,-0.4284,-0.4351,-0.4351,-0.4426,-0.4519,0.1767,0.0,0.3697,0.6372,0.7441,0.0,0.8437,0.8273,0.0,0.0,0.0,0.0,0.0,0.0,0.0,0.0,0.0,0.0,0.0,0.0,0.0,0.0,0.0,0.0,0.0,0.0,0.0,0.0,0.0,0.0,0.0,0.0,1.3617,1.3941,1.3983,1.3983,1.392,1.4111,1.4124,1.3957,1.4264,1.4505,1.4672,1.4565,1.4474,1.4361,1.4418,1.4519,1.4644,1.4673,1.4865,1.5152,1.5187,1.5275,1.541,1.5368,1.5179,1.4926,1.4884,1.4612,1.424,1.3876,1.3399,1.2665,1.0958,0.9379,0.7718,0.5635,0.3593,0.1792,0.0732,-0.0256,-0.1371,-0.2808,-0.4097,-0.5048,-0.513,-0.5087,-0.5005,-0.5005,-0.5091,-0.513,-0.513,-0.5739,-0.6184,-0.6184,-0.6647,-0.7189,-0.7663,-0.7829,-0.8077,-0.8521,-0.9119,-0.9545,-0.9618,-1.0105,-1.0074,-0.9234,-0.9273,-0.8625,-0.72,-0.6593,-0.5551,-0.4053,-0.4174,-0.4241,-0.4251,-0.4412,-0.4519,-0.4519,-0.4519,-0.4519,0.1352,0.0,0.4538,0.0,0.7607,0.8257,0.0,0.0,0.0,0.0,0.0,0.0,0.0,0.0,0.0,0.0,0.0,0.0,0.0,0.0,0.0,0.0,0.0,0.0,0.0,0.0,0.0,0.0,0.0,0.0,0.0,1.3899,1.4092,1.4162,1.4338,1.4277,1.3982,1.4405,1.4471,1.4171,1.4605,1.4865,1.4958,1.4985,1.4836,1.4575,1.4867,1.4914,1.4787,1.4951,1.516,1.5344,1.5246,1.5284,1.5374,1.5203,1.5105,1.5044,1.4818,1.4592,1.4294,1.3733,1.3076,1.2198,1.0699,0.8983,0.7358,0.6649,0.484,0.295,0.2418,0.1042,-0.0352,-0.1103,-0.2562,-0.3939,-0.4439,-0.4136,-0.384,-0.384,-0.4224,-0.4517,-0.4517,-0.5437,-0.6184,-0.6184,-0.6647,-0.7021,-0.7105,-0.7579,-0.7919,-0.7995,-0.8918,-0.9654,-0.9998,-1.0533,-1.0494,-0.9686,-0.9878,-0.9193,-0.7339,-0.6797,-0.5869,-0.4429,-0.4423,-0.445,-0.445,-0.447,-0.4473,-0.4519,-0.4519,-0.4519,0.2181,0.3444,0.4896,0.0,0.7076,0.7826,0.7845,0.0,0.0,0.0,0.0,0.0,0.0,0.0,0.0,0.0,0.0,0.0,0.0,0.0,0.0,0.0,0.0,0.0,0.0,0.0,0.0,0.0,0.0,0.0,1.3768,1.4038,1.4257,1.4362,1.4526,0.0,1.4386,1.4719,1.4825,1.4766,1.4865,1.4989,1.5174,1.5118,1.5037,1.495,1.5124,1.5159,1.5089,1.5225,1.5316,1.5395,1.5349,1.5351,1.5371,1.5271,1.5153,1.5075,1.4961,1.4747,1.4408,1.3823,1.3106,1.2215,1.0676,0.9223,0.7915,0.6872,0.5456,0.4098,0.3341,0.259,0.1728,0.0563,-0.035,-0.1242,-0.2346,-0.312,-0.3592,-0.3592,-0.3799,-0.3965,-0.3965,-0.4657,-0.5308,-0.5653,-0.6173,-0.6647,-0.6979,-0.7231,-0.7405,-0.7405,-0.8273,-0.8911,-0.9066,-0.9735,-0.9928,-0.947,-0.9585,-0.9211,-0.8184,-0.7558,-0.674,-0.5697,-0.4897,-0.4473,-0.448,-0.4473,-0.4522,-0.4519,-0.4519,-0.4519,0.2779,0.3712,0.4632,0.5333,0.6265,0.7157,0.0,0.0,0.0,0.0,0.0,0.0,0.0,0.0,0.0,0.0,0.0,0.0,0.0,0.0,0.0,0.0,0.0,0.0,0.0,0.0,0.0,0.0,0.0,0.0,1.3899,1.417,1.438,1.4506,1.4656,1.4756,1.4756,1.4946,1.5095,1.5189,1.5066,1.5101,1.5298,1.5202,1.5188,1.5236,1.5297,1.5332,1.5326,1.5374,1.5406,1.5408,1.5381,1.5358,1.5321,1.5274,1.5168,1.5043,1.4938,1.4717,1.4368,1.3705,1.3024,1.218,1.0583,0.945,0.8425,0.7107,0.5879,0.4865,0.4193,0.3829,0.3306,0.2089,0.1821,0.1242,-0.0753,-0.2228,-0.3233,-0.3551,-0.3452,-0.3353,-0.3578,-0.4049,-0.4565,-0.5,-0.5701,-0.6349,-0.6732,-0.6894,-0.7054,-0.7128,-0.7816,-0.8379,-0.8543,-0.9274,-0.9565,-0.9383,-0.9363,-0.917,-0.8798,-0.8103,-0.745,-0.6912,-0.566,-0.4849,-0.4473,-0.4743,-0.4739,-0.4519,-0.468,-0.4732,0.2467,0.2948,0.3469,0.4203,0.5378,0.0,0.0,0.0,0.0,0.0,0.0,0.0,0.0,0.0,0.0,0.0,0.0,0.0,0.0,0.0,0.0,0.0,0.0,0.0,0.0,0.0,0.0,0.0,0.0,0.0,1.3899,1.4391,1.4624,1.4499,1.4747,1.4895,1.4895,1.508,1.5189,1.5195,1.526,1.5289,1.5302,1.5365,1.5358,1.5293,1.5364,1.5392,1.5394,1.5408,1.5397,1.5395,1.5331,1.5226,1.5111,1.5105,1.5035,1.4849,1.4561,1.4306,1.3997,1.321,1.2574,1.183,1.0299,0.9305,0.8503,0.7595,0.6215,0.5023,0.5181,0.4403,0.3578,0.349,0.3496,0.2637,-0.0532,-0.1557,-0.2235,-0.3369,-0.2996,-0.2719,-0.3486,-0.4049,-0.4391,-0.443,-0.5437,-0.6227,-0.6227,-0.6689,-0.7128,-0.7459,-0.7951,-0.8565,-0.9279,-0.9867,-1.0075,-0.9769,-0.9791,-0.9496,-0.8804,-0.8103,-0.767,-0.767,-0.6858,-0.5823,-0.4519,-0.5407,-0.5352,-0.4519,-0.5164,-0.5433,0.2699,0.2961,0.0,0.3793,0.4608,0.0,0.0,0.0,0.0,0.0,0.0,0.0,0.0,0.0,0.0,0.0,0.0,0.0,0.0,0.0,0.0,0.0,0.0,0.0,0.0,0.0,0.0,0.0,0.0,0.0,1.3913,1.4414,1.4687,1.4624,1.4839,1.5004,1.508,1.5165,1.5218,1.5265,1.5289,1.5315,1.5368,1.5387,1.5398,1.5364,1.5388,1.5404,1.5397,1.5407,1.5394,1.5391,1.5339,1.5268,1.5217,1.5082,1.4977,1.485,1.4518,1.4105,1.3701,1.3575,1.3045,1.2283,1.1114,1.028,0.9523,0.8518,0.7138,0.6045,0.6299,0.5556,0.4574,0.4224,0.384,0.3265,0.2135,0.0533,-0.0758,-0.1206,-0.1697,-0.2364,-0.3407,-0.3759,-0.4008,-0.4347,-0.4783,-0.5227,-0.5684,-0.5832,-0.6194,-0.6981,-0.7317,-0.7862,-0.8672,-0.9083,-0.924,-0.9152,-0.8725,-0.8355,-0.8103,-0.783,-0.745,-0.702,-0.767,-0.7289,-0.5828,-0.6159,-0.6159,-0.5882,-0.6095,-0.6199,0.2824,0.3029,0.0,0.0,0.0,0.0,0.0,0.0,0.0,0.0,0.0,0.0,0.0,0.0,0.0,0.0,0.0,0.0,0.0,0.0,0.0,0.0,0.0,0.0,0.0,0.0,0.0,0.0,0.0,0.0,1.3997,1.4482,1.4804,1.4866,1.4962,1.5056,1.5189,1.5218,1.5255,1.5302,1.5315,1.5357,1.5394,1.5401,1.5407,1.5391,1.5391,1.539,1.5409,1.5379,1.5377,1.5363,1.5287,1.524,1.5145,1.5026,1.4839,1.4619,1.4331,1.4012,1.3735,1.3785,1.353,1.2954,1.1689,1.0922,1.0171,0.8803,0.7493,0.653,0.6683,0.6027,0.5216,0.4783,0.4268,0.388,0.388,0.245,0.0981,0.0179,-0.067,-0.1472,-0.2237,-0.3046,-0.3714,-0.41,-0.4132,-0.4296,-0.478,-0.513,-0.5608,-0.6448,-0.6894,-0.7389,-0.812,-0.8319,-0.8427,-0.8427,-0.7996,-0.7723,-0.7723,-0.7943,-0.783,-0.7348,-0.8321,-0.8315,-0.7343,-0.7074,-0.6858,-0.6588,-0.6858,-0.7128,0.0,0.0,0.0,0.0,0.0,0.0,0.0,0.0,0.0,0.0,0.0,0.0,0.0,0.0,0.0,0.0,0.0,0.0,0.0,0.0,0.0,0.0,0.0,0.0,0.0,0.0,0.0,0.0,0.0,1.4201,1.4201,1.465,1.5011,1.5189,1.5082,1.5062,1.5201,1.527,1.5302,1.5306,1.537,1.5394,1.5395,1.5409,1.5391,1.5391,1.5391,1.5408,1.5392,1.5329,1.531,1.5293,1.5218,1.5066,1.4904,1.4904,1.4598,1.4175,1.3969,1.4018,1.4107,1.3755,1.3901,1.3837,1.1931,1.1122,1.0452,0.8494,0.7288,0.6544,0.6329,0.5782,0.5346,0.5346,0.487,0.443,0.443,0.4016,0.2915,0.0581,0.0045,0.0,0.0,-0.1925,-0.3506,-0.3557,-0.353,-0.3558,-0.3609,-0.4578,-0.545,-0.595,-0.6622,-0.7221,-0.7676,-0.7723,-0.7723,-0.7723,-0.7723,-0.767,-0.767,-0.8374,-0.8752,-0.8752,-0.8752,-0.8752,-0.8804,-0.8103,-0.7343,-0.6696,-0.7396,-0.8103,0.4459,0.0,0.0,0.0,0.0,0.0,0.0,0.0,0.0,0.0,0.0,0.0,0.0,0.0,0.0,0.0,0.0,0.0,0.0,0.0,0.0,0.0,0.0,0.0,0.0,0.0,0.0,0.0,1.3969,1.4234,1.4349,1.4747,1.5056,1.527,1.5236,1.5221,1.5276,1.529,1.5313,1.5375,1.5389,1.5401,1.5409,1.539,1.5391,1.5391,1.5391,1.5408,1.5392,1.5329,1.531,1.5289,1.5127,1.5014,1.4954,1.4804,1.4587,1.4295,1.4006,1.3754,1.3628,1.4165,1.4264,1.3977,1.2751,1.2427,1.2054,1.0048,0.9141,0.8525,0.7662,0.6965,0.6446,0.6044,0.548,0.5043,0.5043,0.457,0.3877,0.2821,0.1206,0.0,0.0,-0.0536,-0.1309,-0.2187,-0.2284,-0.2664,-0.368,-0.4112,-0.4652,-0.5562,-0.5737,-0.6329,-0.7587,-0.7723,-0.7943,-0.848,-0.7996,-0.7456,-0.6912,-0.7074,-0.7235,-0.7235,-0.7235,-0.7723,-0.8804,-0.8593,-0.8374,-0.8209,-0.8427,-0.8586,0.5324,0.0,0.0,0.0,0.0,0.0,0.0,0.0,0.0,0.0,0.0,0.0,0.0,0.0,0.0,0.0,0.0,0.0,0.0,0.0,0.0,0.0,0.0,0.0,0.0,0.0,0.0,0.0,1.4149,1.4398,1.46,1.4852,1.5095,1.5298,1.5298,1.5307,1.5296,1.5329,1.5362,1.5394,1.5402,1.5408,1.5391,1.5391,1.5391,1.5391,1.5391,1.5386,1.536,1.5324,1.5276,1.5206,1.5069,1.4943,1.4865,1.4747,1.4482,1.4214,1.4325,1.4226,1.4167,1.4851,1.5072,1.4827,1.3556,1.3142,1.269,1.0675,0.9691,0.9086,0.8423,0.7972,0.7585,0.7021,0.6459,0.5942,0.5739,0.5,0.426,0.3704,0.2051,0.0584,0.0092,0.0,-0.0233,-0.0921,-0.1071,-0.1335,-0.217,-0.327,-0.4226,-0.4881,-0.4865,-0.5392,-0.6666,-0.6794,-0.6956,-0.7385,-0.7009,-0.6578,-0.6145,-0.6421,-0.6588,-0.6588,-0.6588,-0.7182,-0.8321,-0.8321,-0.848,-0.8804,-0.8804,-0.8804,0.5879,0.5888,0.0,0.0,0.0,0.0,0.5182,0.5055,0.0,0.0,0.0,0.0,0.0,0.0,0.0,0.0,0.0,0.0,0.0,0.0,0.0,0.0,0.0,0.0,0.0,0.0,1.4011,1.4188,1.4422,1.4654,1.4895,1.4981,1.5108,1.5287,1.5311,1.5299,1.5307,1.5369,1.5397,1.5398,1.5409,1.5391,1.5391,1.5391,1.5391,1.5391,1.539,1.5363,1.5302,1.5293,1.5233,1.5107,1.5016,1.4881,1.4727,1.4658,1.4332,1.4005,1.472,1.5,1.5112,1.5558,1.595,1.5918,1.4285,1.3514,1.286,1.084,0.9649,0.891,0.8797,0.8797,0.8635,0.8118,0.7516,0.6959,0.6471,0.5432,0.4478,0.4008,0.2907,0.1637,0.0472,0.0239,0.0195,0.0,0.0,0.0,0.0,-0.2092,-0.3679,-0.3953,-0.4154,-0.4563,-0.5307,-0.5483,-0.5538,-0.5597,-0.5597,-0.5597,-0.5487,-0.6145,-0.6475,-0.6475,-0.6534,-0.6858,-0.745,-0.7616,-0.8103,-0.8804,-0.8699,-0.8699,0.7356,0.7372,0.72,0.0,0.0,0.0,0.0,0.5402,0.0,0.0,0.0,0.0,0.0,0.0,0.0,0.0,0.0,0.0,0.0,0.0,0.0,0.0,0.0,0.0,0.0,0.0,1.4162,1.4188,1.4595,1.4832,1.4904,1.5066,1.5201,1.53,1.5303,1.5334,1.5388,1.539,1.541,1.541,1.5391,1.5391,1.5391,1.5391,1.5391,1.5391,1.5405,1.5395,1.5385,1.5329,1.5255,1.5158,1.4992,1.4894,1.4813,1.4444,1.4131,1.3991,1.4617,1.4743,1.4727,1.5459,1.5742,1.5597,1.4521,1.4206,1.3837,1.1977,1.1047,1.036,0.9549,0.9359,0.9199,0.8675,0.8103,0.7697,0.7579,0.6683,0.5886,0.5985,0.4663,0.3108,0.1993,0.1756,0.1361,0.0157,0.0,0.0,0.0,-0.0438,-0.1262,-0.2485,-0.3704,-0.4484,-0.4703,-0.5206,-0.576,-0.6367,-0.6367,-0.6091,-0.5542,-0.5651,-0.5706,-0.5706,-0.6312,-0.6367,-0.5923,-0.7122,-0.8103,-0.8804,-0.8209,-0.7937,0.8117,0.8022,0.7792,0.7156,0.0,0.0,0.0,0.0,0.0,0.0,0.0,0.0,0.0,0.0,0.0,0.0,0.0,0.0,0.0,0.0,0.0,0.0,0.0,0.0,0.0,0.0,1.3768,1.4396,1.4728,1.4911,1.495,1.5146,1.5274,1.5293,1.5331,1.5376,1.5391,1.5391,1.5391,1.5391,1.5391,1.5391,1.5391,1.5408,1.5406,1.5406,1.5369,1.5348,1.5345,1.5231,1.5168,1.5082,1.4952,1.5067,1.5261,1.5032,1.5008,1.519,1.5852,1.5883,1.5664,1.6104,1.6262,1.6044,1.5019,1.4287,1.357,1.2472,1.1579,1.0857,1.036,1.0069,0.9765,0.9239,0.8878,0.8643,0.8357,0.7511,0.6831,0.6969,0.6002,0.4751,0.3404,0.3259,0.3084,0.2329,0.0979,0.0,0.0,0.0,-0.028,-0.1004,-0.1785,-0.2843,-0.4349,-0.4798,-0.5132,-0.5517,-0.5576,-0.5407,-0.5022,-0.5022,-0.5018,-0.5011,-0.5344,-0.5555,-0.5487,-0.6249,-0.6956,-0.767,-0.7343,-0.7128,0.0,0.0,0.0,0.0,0.0,0.7821,0.0,0.0,0.0,0.6376,0.0,0.0,0.0,0.0,0.0,0.0,0.0,0.0,0.0,0.0,0.0,0.0,0.0,0.0,0.0,0.0,1.2918,1.4107,1.4344,1.4528,1.4747,1.5094,1.5311,1.5324,1.5366,1.5403,1.5391,1.5391,1.5391,1.5391,1.5391,1.5391,1.541,1.5401,1.5392,1.5387,1.5321,1.5303,1.5293,1.5317,1.5266,1.5198,1.512,1.537,1.5748,1.5832,1.6042,1.6409,1.71,1.7008,1.6624,1.675,1.6712,1.6405,1.5419,1.4288,1.3243,1.2754,1.197,1.1271,1.1169,1.0867,1.0467,0.9903,0.9762,0.9627,0.9101,0.8392,0.7881,0.7989,0.7454,0.6493,0.4888,0.467,0.4645,0.4519,0.24,0.0781,0.0447,0.0447,0.0336,0.0056,0.0,-0.1004,-0.3416,-0.3869,-0.4039,-0.4039,-0.4039,-0.4039,-0.4039,-0.4039,-0.4036,-0.4082,-0.4366,-0.475,-0.5332,-0.5332,-0.5764,-0.6588,-0.648,-0.6367,0.0,0.0,0.0,0.0,0.9591,0.0,0.0,0.0,0.7829,0.6984,0.0,0.0,0.0,0.0,0.0,0.0,0.0,0.0,0.0,0.0,0.0,0.0,0.0,0.0,0.0,0.0,0.0,1.2316,1.2563,1.3028,1.3806,1.4777,1.5326,1.5389,1.5392,1.5403,1.5391,1.5391,1.5391,1.5391,1.5391,1.5409,1.5397,1.5395,1.5364,1.5318,1.5295,1.5306,1.5347,1.5866,1.6031,1.597,1.5831,1.5811,1.5922,1.6342,1.642,1.6376,1.6955,1.6748,1.6334,1.6692,1.6394,1.5812,1.5255,1.4738,1.4154,1.3276,1.2695,1.2246,1.1811,1.1664,1.1479,1.0971,1.0765,1.0596,1.0076,0.9769,0.9719,0.9992,0.9504,0.8416,0.6498,0.5721,0.519,0.4597,0.4233,0.3519,0.2119,0.1952,0.1451,0.0167,0.0,-0.0111,-0.0502,-0.1729,-0.2456,-0.2456,-0.2456,-0.2456,-0.2456,-0.2456,-0.2456,-0.2454,-0.3811,-0.4543,-0.4639,-0.4639,-0.5289,-0.6588,-0.5928,-0.5651,0.0,0.0,0.0,0.0,0.0,0.0,0.0,0.0,0.8184,0.0,0.0,0.0,0.0,0.0,0.0,0.0,0.0,0.0,0.0,0.0,0.0,0.0,0.0,0.0,0.0,0.0,0.0,0.0,0.0,1.235,1.3798,1.4307,1.4812,1.5374,1.5404,1.5409,1.5391,1.5391,1.5391,1.5391,1.5391,1.5408,1.5394,1.5362,1.5338,1.5292,1.5251,1.5529,1.6006,1.6196,1.6467,1.6827,1.7214,1.7281,1.7191,1.7398,1.7543,1.7666,1.7891,1.7601,1.708,1.6871,1.6355,1.5712,1.5225,1.4968,1.4676,1.3815,1.3213,1.2765,1.2306,1.1993,1.1804,1.1894,1.1908,1.1914,1.1985,1.1553,1.1232,1.1352,1.0774,0.9942,0.9112,0.7717,0.6519,0.5806,0.505,0.4281,0.3608,0.3514,0.3302,0.2685,0.1785,0.1281,0.1282,0.0724,0.0334,0.0334,-0.0446,-0.0949,-0.095,-0.0951,-0.095,-0.0949,-0.1563,-0.2289,-0.3183,-0.4089,-0.4816,-0.536,-0.5073,-0.4908,1.1933,0.0,0.0,0.0,0.0,0.0,0.0,0.0,0.0,0.0,0.0,0.0,0.0,0.0,0.0,0.0,0.0,0.0,0.0,0.0,0.0,0.0,0.0,0.0,0.0,0.0,0.0,0.0,0.0,0.0,1.3175,1.3723,1.4325,1.5026,1.5272,1.5391,1.5391,1.5391,1.5391,1.5391,1.541,1.5384,1.5366,1.5315,1.5292,1.527,1.5468,1.5926,1.6535,1.6839,1.7244,1.7694,1.8441,1.861,1.8427,1.8427,1.8493,1.8585,1.8585,1.8191,1.7549,1.6876,1.6313,1.587,1.5418,1.5195,1.4968,1.4246,1.3683,1.3272,1.2984,1.2674,1.2547,1.2931,1.3122,1.326,1.3542,1.3051,1.2583,1.2583,1.1743,1.1065,1.1065,0.937,0.7812,0.7272,0.5964,0.5089,0.5089,0.4901,0.4702,0.4532,0.3519,0.2847,0.285,0.285,0.285,0.285,0.1451,0.0614,0.0615,0.0224,0.0,0.0,0.0,-0.0502,-0.1618,-0.3532,-0.4098,-0.3299,-0.3691,-0.386,0.0,0.0,0.0,1.1985,0.0,0.0,0.0,0.0,0.9498,0.0,0.0,0.0,0.0,0.0,0.0,0.0,0.0,0.0,0.0,0.0,0.0,0.0,0.0,0.0,0.0,0.0,0.0,0.0,0.0,0.0,1.1339,1.3056,1.4034,1.4134,1.496,1.5391,1.5391,1.5391,1.5391,1.5391,1.5403,1.5366,1.5296,1.5307,1.5265,1.5253,1.608,1.6465,1.6612,1.8119,1.8611,1.8539,1.9275,1.9448,1.9253,1.9253,1.898,1.8585,1.8585,1.8048,1.7224,1.6512,1.6301,1.6219,1.587,1.5448,1.5013,1.4596,1.4181,1.39,1.4016,1.4023,1.4038,1.4033,1.441,1.4592,1.4175,1.3889,1.3747,1.3747,1.2686,1.1765,1.1765,1.0018,0.8678,0.8626,0.7422,0.6534,0.6534,0.5928,0.521,0.4597,0.446,0.4428,0.4438,0.4438,0.4438,0.4438,0.2961,0.2119,0.212,0.0781,0.0,0.0,0.0,-0.0,-0.0056,-0.303,-0.3026,-0.0167,-0.1615,-0.2287,0.0,0.0,1.4119,1.2895,0.0,0.0,0.0,0.0,0.0,0.0,0.0,0.0,0.0,0.0,0.0,0.0,0.0,0.0,0.0,0.0,0.0,0.0,0.0,0.0,0.0,0.0,0.0,0.0,0.0,0.0,0.0,1.2569,1.3488,1.4081,1.4941,1.5391,1.5391,1.5391,1.5391,1.5391,1.5403,1.5364,1.5315,1.5846,1.6071,1.6118,1.6926,1.7626,1.8196,1.8616,1.902,1.939,1.955,1.9485,1.9305,1.9305,1.8998,1.8547,1.8187,1.7602,1.6926,1.6712,1.6328,1.5955,1.5827,1.5697,1.5477,1.5013,1.511,1.5202,1.4651,1.5074,1.5608,1.5254,1.5558,1.5878,1.5709,1.5336,1.4858,1.4468,1.3711,1.2996,1.2598,1.1566,1.0434,0.9585,0.8237,0.7343,0.7343,0.6691,0.6145,0.5919,0.5878,0.5668,0.5175,0.4746,0.4477,0.4484,0.4027,0.3747,0.3697,0.3246,0.2514,0.1449,0.1452,0.1452,0.1449,0.0446,0.0446,0.1448,0.2007,0.1671,1.4526,1.4635,0.0,0.0,1.3062,0.0,1.0925,0.0,0.0,0.0,0.0,0.0,0.0,0.0,0.0,0.0,0.0,0.0,0.0,0.0,0.0,0.0,0.0,0.0,0.0,0.0,0.8186,0.9411,0.0,0.0,0.0,0.0,1.3063,1.3612,1.4785,1.5391,1.5391,1.5409,1.5408,1.5408,1.5676,1.576,1.5753,1.6566,1.6937,1.6965,1.7799,1.8472,1.9004,1.916,1.9447,1.9797,1.9643,1.9485,1.9289,1.923,1.8877,1.8391,1.7949,1.7519,1.7142,1.7018,1.6591,1.6136,1.6011,1.6035,1.6025,1.5558,1.5958,1.6327,1.5782,1.6181,1.6743,1.6573,1.6678,1.6783,1.6789,1.617,1.5499,1.5096,1.4365,1.3684,1.3286,1.2423,1.1516,1.0669,0.9533,0.881,0.881,0.796,0.7326,0.7326,0.6907,0.6421,0.5928,0.5496,0.512,0.4853,0.4853,0.4746,0.4484,0.4487,0.4033,0.3014,0.3016,0.3019,0.3019,0.3019,0.3016,0.307,0.4033,0.3974]}]]